GEFSSGP_con_prob3kmehi_000.txt.gz
EHI
0 0 0 0 0 0 0 0 0 0 0 0 0 0 0 0 0 7 15 12 3 1 0 2 7 11 7 2 6 27 62 86 94 94 89 76 49 20 4 1 0 0 0 1 1 3 6 9 10
0 0 0 0 0 0 0 0 0 0 0 0 0 0 0 0 4 16 27 21 9 2 1 4 11 14 9 3 4 18 44 66 77 78 71 57 35 13 2 0 1 2 3 4 5 5 7 9 11
0 0 0 0 0 0 0 0 0 0 0 0 0 0 0 5 19 36 39 30 12 2 2 6 12 12 6 2 2 7 18 31 40 42 37 27 15 5 0 1 2 5 9 10 10 9 7 8 9
0 0 0 0 0 0 0 0 0 0 0 0 0 0 0 11 36 52 44 24 9 2 1 3 6 6 3 1 1 1 4 7 9 11 9 6 3 1 0 1 4 9 12 13 13 11 7 4 4
0 0 0 0 0 0 0 0 0 0 0 0 0 0 1 11 39 59 43 16 3 1 0 0 1 3 6 6 3 2 3 3 1 2 2 1 0 0 2 3 6 8 11 11 10 8 4 1 0
0 0 0 0 0 0 0 0 0 0 0 0 0 0 2 7 29 50 38 12 2 0 0 0 1 9 20 20 8 4 7 7 3 2 2 1 0 1 3 5 6 7 8 7 5 3 1 0 0
0 0 0 0 0 0 0 0 0 0 0 0 0 0 4 10 20 28 21 7 2 0 0 0 3 18 37 32 14 9 16 15 7 3 2 1 0 1 3 4 6 9 10 6 2 0 0 0 0
0 0 0 0 0 0 0 0 0 0 0 0 0 0 10 22 20 11 6 2 1 0 0 0 3 19 35 30 15 15 26 24 9 2 2 1 0 1 2 5 8 12 12 8 2 0 0 0 0
0 0 0 0 0 0 0 0 0 0 0 0 0 1 16 33 26 8 2 1 2 3 2 1 2 9 18 16 8 12 23 20 7 1 1 1 0 0 2 5 9 11 11 7 2 0 0 0 0
0 0 0 0 0 0 0 0 0 0 0 0 2 9 29 41 25 7 2 1 4 6 4 2 2 3 5 5 2 4 7 7 2 0 0 0 0 0 1 3 4 6 7 4 1 0 0 0 0
0 0 0 0 0 0 0 0 0 0 0 1 5 25 51 46 20 4 1 1 2 4 3 3 4 2 0 0 0 0 0 0 0 0 0 0 0 0 0 0 0 1 2 1 0 0 0 0 0
0 0 0 0 0 0 0 0 0 0 0 0 9 39 62 45 13 1 0 0 0 1 1 2 4 3 1 0 0 0 0 0 0 0 0 0 0 0 0 0 0 0 0 0 0 0 0 0 0
0 0 0 0 0 0 0 0 0 0 0 0 9 35 49 29 10 5 3 0 0 0 0 1 3 5 2 0 0 0 0 0 0 0 0 0 0 0 0 0 0 0 0 0 0 0 0 0 0
0 0 0 0 0 0 0 0 0 0 0 1 7 19 23 13 10 15 9 0 0 0 0 0 2 3 2 0 0 0 0 0 0 0 1 1 1 3 3 1 0 0 0 0 0 0 0 0 0
0 0 0 0 0 0 0 0 0 0 0 1 4 6 6 4 13 24 17 4 0 0 0 0 0 1 1 1 3 6 6 4 1 1 3 4 5 9 8 4 1 0 0 0 0 0 0 0 0
0 0 0 0 0 0 0 0 0 0 0 1 3 4 3 5 19 36 31 10 0 0 0 0 0 1 8 18 27 29 23 10 4 3 4 5 8 10 8 4 2 1 0 0 0 0 0 0 0
0 0 0 0 0 0 0 0 0 0 0 3 10 14 14 15 31 49 41 15 1 0 1 2 5 14 33 54 65 57 33 13 5 3 2 2 4 4 3 2 1 0 0 0 0 0 0 0 0
0 0 0 0 0 0 0 0 0 0 0 5 22 34 30 29 45 57 42 16 4 3 9 15 19 32 52 67 70 54 26 7 2 1 0 0 0 0 0 0 0 0 0 0 0 0 0 0 0
0 0 0 0 0 0 0 0 0 0 0 4 21 34 34 40 60 63 41 16 10 14 28 41 43 41 47 52 45 27 10 2 0 0 0 0 0 0 0 0 0 0 0 0 0 0 0 0 0
0 0 0 0 0 0 0 0 0 0 0 1 9 18 27 49 70 64 39 20 19 32 54 70 68 55 46 39 25 9 1 0 0 0 0 0 0 0 0 0 0 0 0 0 0 0 0 0 0
0 0 0 0 0 0 0 0 0 0 0 0 2 7 25 52 66 53 36 26 29 47 69 79 74 60 44 26 11 3 0 0 0 0 0 0 0 0 0 0 0 0 0 0 0 0 0 0 0
0 0 0 0 0 0 0 0 0 0 0 0 0 3 23 50 55 41 28 24 28 41 59 64 55 39 24 10 2 0 0 0 0 0 0 0 0 0 0 0 0 0 0 0 0 0 0 0 0
0 0 0 0 0 0 0 0 0 0 0 0 0 2 18 45 53 36 20 14 16 27 40 42 30 16 6 2 0 0 0 0 0 0 0 0 0 0 0 0 0 0 0 0 0 0 0 0 0
0 0 0 0 0 0 0 0 0 0 0 0 2 5 19 43 49 27 11 5 9 20 26 23 13 5 1 0 0 0 0 0 0 0 0 0 0 0 0 0 0 0 0 0 0 0 0 0 0
0 0 0 0 0 0 0 0 0 0 0 0 7 19 34 41 27 11 3 1 5 12 13 8 3 1 0 0 0 0 0 0 0 0 0 0 0 0 0 0 0 0 0 0 0 0 0 0 0
0 0 0 0 0 0 0 0 0 0 0 2 18 41 45 25 8 0 0 0 1 3 3 1 0 0 0 0 0 0 0 0 0 0 0 0 0 0 0 0 0 0 0 0 0 0 0 0 0
0 0 0 0 0 0 0 0 0 0 0 6 28 45 29 8 1 0 0 0 0 0 0 0 0 0 0 0 0 0 0 0 0 0 0 0 0 0 0 0 0 0 0 0 0 0 0 0 0
0 0 0 0 0 0 0 0 0 0 0 12 32 30 11 0 0 0 0 0 0 0 0 0 0 0 0 0 0 0 0 0 0 0 0 0 0 0 0 0 0 0 0 0 0 0 0 0 0
0 0 0 0 0 0 0 0 0 0 0 14 30 20 3 0 0 0 0 0 0 0 0 0 0 0 0 0 0 0 0 0 0 0 0 0 0 0 0 0 0 0 0 0 0 0 0 0 0
0 0 0 0 0 0 0 0 0 0 0 12 22 14 2 0 0 0 0 0 0 0 0 0 0 0 0 0 0 0 0 0 0 0 0 0 0 0 0 0 0 0 0 0 0 0 0 0 0

GEFSSGP_con_prob3kmehi_006.txt.gz
EHI
0 0 0 0 0 0 0 0 0 0 0 0 0 0 0 3 25 48 46 48 58 39 13 20 44 47 34 24 19 13 11 11 9 5 2 0 0 0 0 1 1 1 0 1 0 1 1 1 0
0 0 0 0 0 0 0 0 0 0 0 0 0 0 0 2 16 35 38 39 44 32 16 25 46 48 28 14 10 9 12 16 14 9 3 0 0 0 0 0 1 1 1 1 1 1 1 0 0
0 0 0 0 0 0 0 0 0 0 0 0 0 0 0 2 16 36 37 27 30 37 37 42 50 41 17 4 2 3 6 10 11 6 2 0 0 0 0 0 0 1 1 1 1 1 1 0 0
0 0 0 0 0 0 0 0 0 0 0 0 0 0 3 12 30 45 33 17 25 50 60 53 43 26 7 0 0 0 0 2 2 1 0 0 0 0 0 0 0 1 1 1 1 2 1 0 0
0 0 0 0 0 0 0 0 0 0 0 0 0 0 8 28 42 35 17 7 19 51 63 43 23 11 2 0 0 0 0 0 0 0 0 0 0 0 0 0 0 0 0 0 1 1 0 0 0
0 0 0 0 0 0 0 0 0 0 0 0 0 1 14 38 42 22 6 2 14 44 53 28 7 3 0 0 0 0 0 2 4 3 0 0 0 0 0 0 0 0 0 0 0 0 0 0 0
0 0 0 0 0 0 0 0 0 0 0 0 0 3 21 45 44 21 5 1 11 38 45 22 2 0 0 0 0 0 0 3 6 4 1 0 0 0 0 0 0 0 0 0 0 0 0 0 0
0 0 0 0 0 0 0 0 0 0 0 0 0 8 34 59 52 29 16 10 13 34 48 32 12 3 0 0 0 0 0 2 4 3 0 0 0 0 0 0 0 0 0 0 0 0 0 0 0
0 0 0 0 0 0 0 0 0 0 0 0 2 16 46 64 53 38 39 41 37 44 56 51 32 12 3 1 0 0 0 0 0 0 0 0 0 0 0 0 1 0 0 0 0 0 0 0 0
0 0 0 0 0 0 0 0 0 0 0 1 7 26 49 57 47 39 50 69 74 63 55 56 50 28 10 2 1 0 1 2 1 0 0 0 0 0 0 0 0 0 0 0 0 0 0 0 0
0 0 0 0 0 0 0 0 0 0 0 2 13 31 44 46 38 28 37 67 86 68 44 47 56 40 16 3 1 5 11 14 11 7 3 1 0 0 1 2 2 1 0 0 0 0 0 0 0
0 0 0 0 0 0 0 0 0 0 0 1 12 28 36 33 24 15 22 50 72 56 29 35 54 49 32 16 8 16 34 41 35 20 5 1 0 0 3 5 4 2 1 0 0 0 0 0 0
0 0 0 0 0 0 0 0 0 0 0 1 10 27 33 23 12 12 26 51 63 45 19 24 52 66 63 48 32 38 58 61 47 21 5 1 3 10 19 22 16 9 7 11 13 8 3 2 1
0 0 0 0 0 0 0 0 0 0 0 1 9 27 34 20 10 22 49 70 72 55 35 34 57 82 87 71 55 51 53 53 41 30 25 22 20 27 42 50 45 34 27 30 30 16 6 4 2
0 0 0 0 0 0 0 0 0 0 0 1 6 21 30 21 17 39 72 89 88 80 69 58 63 84 88 70 55 44 41 48 57 65 69 62 49 44 54 70 74 63 47 37 30 16 5 3 1
0 0 0 0 0 0 0 0 0 0 0 1 4 12 22 24 29 56 87 98 98 97 89 72 68 85 87 72 61 54 59 74 86 91 90 80 61 48 56 69 70 59 41 27 17 9 3 1 0
0 0 0 0 0 0 0 0 0 0 0 1 3 8 18 28 45 74 95 100 100 100 93 79 79 90 92 88 85 85 88 93 93 87 77 63 42 34 42 47 40 28 19 13 7 3 1 0 0
0 0 0 0 0 0 0 0 0 0 0 0 1 5 16 34 61 87 99 99 99 100 96 92 94 97 98 98 99 99 95 87 76 65 53 36 19 13 17 19 13 7 5 4 1 0 0 0 0
0 0 0 0 0 0 0 0 0 0 0 0 1 3 14 40 74 95 99 97 97 98 99 99 100 100 100 100 100 98 89 71 51 37 26 15 6 3 4 4 2 1 1 1 0 0 0 0 0
0 0 0 0 0 0 0 0 0 0 0 0 0 2 11 41 79 98 98 97 95 97 99 100 100 100 100 100 98 92 76 51 25 12 7 3 1 0 0 0 0 0 0 0 0 0 0 0 0
0 0 0 0 0 0 0 0 0 0 0 0 0 1 7 33 72 96 99 98 97 98 99 100 100 100 100 99 93 79 55 28 9 2 1 0 0 0 0 0 0 0 0 0 0 0 0 0 0
0 0 0 0 0 0 0 0 0 0 0 0 0 0 3 22 60 91 100 99 99 99 100 100 100 99 99 97 90 72 43 19 6 1 0 0 0 0 0 0 0 0 0 0 0 0 0 0 0
0 0 0 0 0 0 0 0 0 0 0 0 0 0 2 18 55 89 100 100 100 100 100 100 99 97 95 92 87 72 45 18 5 1 0 0 0 0 0 0 0 0 0 0 0 0 0 0 0
0 0 0 0 0 0 0 0 0 0 0 0 1 4 10 31 67 93 100 99 99 99 97 95 90 82 74 68 63 52 30 10 2 0 0 0 0 0 0 0 0 0 0 0 0 0 0 0 0
0 0 0 0 0 0 0 0 0 0 0 1 9 23 39 62 86 98 98 95 93 91 85 75 62 49 38 30 25 19 9 2 0 0 0 0 0 0 0 0 0 0 0 0 0 0 0 0 0
0 0 0 0 0 0 0 0 0 0 0 4 24 54 77 89 95 94 86 77 71 66 55 41 26 16 9 5 4 3 1 0 0 0 0 0 0 0 0 0 0 0 0 0 0 0 0 0 0
0 0 0 0 0 0 0 0 0 0 1 11 40 75 89 85 78 68 55 42 35 30 21 12 5 2 1 0 1 1 0 0 0 0 0 0 0 0 0 0 0 0 0 0 0 0 0 0 0
0 0 0 0 0 0 0 0 0 0 2 17 49 71 66 51 39 29 20 12 8 6 3 1 0 0 0 0 0 0 0 0 0 0 0 0 0 0 0 0 0 0 0 0 0 0 0 0 0
0 0 0 0 0 0 0 0 0 0 3 20 51 59 40 20 11 5 3 1 0 0 0 0 0 0 0 0 0 0 0 0 0 0 0 0 0 0 0 0 0 0 0 0 0 0 0 0 0
0 0 0 0 0 0 0 0 1 1 4 21 49 57 33 10 3 1 0 0 0 0 0 0 0 0 0 0 0 0 0 0 0 0 0 0 0 0 0 0 0 0 0 0 0 0 0 0 0

GEFSSGP_con_prob3kmehi_012.txt.gz
EHI
0 0 0 0 0 0 0 0 0 0 0 0 1 6 16 15 5 0 0 0 2 6 23 59 88 95 91 82 67 49 29 16 12 12 10 6 3 2 1 0 0 0 0 0 0 0 0 0 0
0 0 0 0 0 0 0 0 0 0 0 0 0 4 9 11 9 4 1 0 1 4 20 57 89 96 91 79 64 47 28 15 11 8 6 3 1 1 0 0 0 0 0 0 0 0 0 0 0
0 0 0 0 0 0 0 0 0 0 0 0 0 1 2 13 26 21 6 0 0 1 16 54 87 95 85 65 45 31 19 9 5 3 1 0 0 0 0 0 0 0 0 0 0 0 0 0 0
0 0 0 0 0 0 0 0 0 0 0 1 2 1 1 21 51 47 16 1 0 0 10 42 74 79 62 37 18 10 6 2 1 0 0 0 0 0 0 0 0 0 0 0 0 0 0 0 0
0 0 0 0 0 0 0 0 0 0 2 7 9 4 3 29 69 69 31 7 1 0 5 25 46 47 30 13 3 2 1 0 0 0 0 0 0 0 0 0 0 0 0 0 0 0 0 0 0
0 0 0 0 0 0 0 0 0 1 3 11 15 7 5 32 71 79 52 23 6 0 2 11 18 17 9 4 3 4 3 1 0 0 0 0 0 0 0 0 0 0 0 0 0 0 0 0 0
0 0 0 0 0 0 0 0 0 0 2 8 13 8 5 24 58 80 75 48 18 2 1 3 4 3 3 3 4 5 4 1 0 0 0 0 0 0 0 0 0 0 0 0 0 0 0 0 0
0 0 0 0 0 0 0 0 0 0 1 5 8 6 4 13 41 75 89 70 33 8 1 0 0 1 2 3 3 3 2 0 0 0 0 0 0 0 0 0 0 0 0 0 0 0 0 0 0
0 0 0 0 0 0 0 0 0 1 5 13 18 17 14 16 38 73 91 78 47 19 5 0 0 2 2 1 1 1 0 0 0 0 0 0 0 0 0 0 0 0 0 0 0 0 0 0 0
0 0 0 0 0 0 0 0 0 3 12 29 44 46 38 34 50 77 90 79 57 36 17 6 2 2 1 0 0 0 0 0 0 0 0 0 0 0 0 0 0 0 0 0 0 0 0 0 0
0 0 0 0 0 0 0 0 0 4 18 43 66 69 57 53 65 82 88 80 66 54 42 27 13 5 1 0 0 0 0 0 0 0 0 0 0 0 0 0 0 0 0 0 0 0 0 0 0
0 0 0 0 0 0 0 0 0 4 20 48 67 66 59 62 73 84 87 82 75 73 71 58 35 14 3 0 0 0 0 0 0 0 0 0 0 0 0 0 0 0 0 0 0 0 0 0 0
0 0 0 0 0 0 0 0 0 5 24 49 59 53 50 57 70 80 86 87 84 84 86 82 58 26 7 2 1 0 0 0 0 0 0 0 0 0 0 0 0 0 0 0 0 0 0 0 0
0 0 0 0 0 0 0 0 0 6 26 46 50 42 37 43 58 73 84 90 88 83 86 89 73 40 14 8 7 4 2 0 0 0 0 0 0 0 0 0 0 0 0 0 0 0 0 0 0
0 0 0 0 0 0 0 0 0 5 20 35 39 32 25 28 40 58 77 87 84 78 80 88 81 50 20 13 16 15 10 5 2 0 0 0 0 0 0 0 0 0 0 0 0 0 0 0 0
0 0 0 0 0 0 0 0 0 3 11 23 30 26 19 17 22 39 62 77 77 74 78 88 86 60 27 17 26 33 30 19 8 1 0 0 0 0 0 0 0 0 0 0 0 0 0 0 0
0 0 0 0 0 0 0 0 0 2 7 17 25 25 17 11 12 26 50 67 70 73 81 89 92 75 49 38 44 50 44 28 11 2 0 0 0 0 0 0 0 0 0 0 0 0 0 0 0
0 0 0 0 0 0 0 0 0 1 5 13 21 22 16 10 10 22 44 58 62 72 83 91 96 91 80 72 67 54 36 17 5 1 0 0 0 0 0 0 0 0 0 0 0 0 0 0 0
0 0 0 0 0 0 0 0 0 0 2 8 14 15 13 14 19 31 48 58 66 77 87 92 97 99 97 90 74 46 18 4 0 0 0 0 0 0 0 0 0 0 0 0 0 0 0 0 0
0 0 0 0 0 0 0 0 0 0 0 3 6 8 14 27 39 52 64 73 81 88 91 93 98 100 97 86 62 30 8 1 0 0 0 0 0 0 0 0 0 0 0 0 0 0 0 0 0
0 0 0 0 0 0 0 0 0 0 0 1 2 6 20 44 63 75 83 88 91 94 95 96 98 99 91 70 40 14 3 0 0 0 0 0 0 0 0 0 0 0 0 0 0 0 0 0 0
0 0 0 0 0 0 0 0 0 0 0 0 1 5 23 53 79 91 95 95 95 97 98 99 99 94 74 42 16 4 0 0 0 0 0 0 0 0 0 0 0 0 0 0 0 0 0 0 0
0 0 0 0 0 0 0 0 0 0 0 0 0 2 19 52 83 97 99 98 98 99 98 96 89 73 44 16 3 0 0 0 0 0 0 0 0 0 0 0 0 0 0 0 0 0 0 0 0
0 0 0 0 0 0 0 0 0 0 0 2 5 9 22 51 83 97 99 99 99 95 85 73 58 36 16 4 0 0 0 0 0 0 0 0 0 0 0 0 0 0 0 0 0 0 0 0 0
0 0 0 0 0 0 0 0 0 3 9 16 26 34 43 64 87 98 99 98 93 77 55 36 21 9 3 0 0 0 0 0 0 0 0 0 0 0 0 0 0 0 0 0 0 0 0 0 0
0 0 0 0 0 0 0 0 4 15 33 48 59 66 72 82 92 96 94 87 71 44 22 9 3 0 0 0 0 0 0 0 0 0 0 0 0 0 0 0 0 0 0 0 0 0 0 0 0
0 0 0 0 0 0 0 0 5 23 48 67 75 78 80 80 79 76 70 59 38 16 4 1 0 0 0 0 0 0 0 0 0 0 0 0 0 0 0 0 0 0 0 0 0 0 0 0 0
0 0 0 0 0 0 0 0 4 14 34 53 63 62 56 51 46 41 34 24 12 4 0 0 0 0 0 0 0 0 0 0 0 0 0 0 0 0 0 0 0 0 0 0 0 0 0 0 0
0 0 0 0 0 0 0 2 4 6 14 29 37 33 25 20 16 13 8 5 2 0 0 0 0 0 0 0 0 0 0 0 0 0 0 0 0 0 0 0 0 0 0 0 0 0 0 0 0
0 0 0 0 0 0 0 3 6 6 8 17 20 15 10 7 5 3 1 0 0 0 0 0 0 0 0 0 0 0 0 0 0 0 0 0 0 0 0 0 0 0 0 0 0 0 0 0 0

GEFSSGP_con_prob3kmehi_018.txt.gz
EHI
0 0 0 0 0 0 0 0 0 0 0 0 0 0 0 0 0 0 0 0 0 1 1 9 26 51 71 79 84 86 84 82 80 74 68 61 52 36 17 5 1 0 0 0 0 0 0 0 0
0 0 0 0 0 0 0 0 0 0 0 0 0 0 0 0 0 0 0 0 1 2 2 12 36 62 79 85 87 86 81 76 70 59 50 42 32 22 11 3 0 0 0 0 0 0 0 0 0
0 0 0 0 0 0 0 0 0 0 0 0 0 0 0 0 0 0 0 1 2 3 2 16 45 72 84 87 86 82 74 66 53 38 26 19 13 7 3 1 0 0 0 0 0 0 0 0 0
0 0 0 0 0 0 0 0 0 0 0 0 1 1 0 0 0 0 1 4 5 4 2 15 46 72 80 79 77 73 66 53 37 21 11 7 5 2 0 0 0 0 0 0 0 0 0 0 0
0 0 0 0 0 0 0 0 0 0 0 1 2 2 1 0 0 1 3 6 8 6 3 13 40 62 64 57 55 55 50 38 22 10 4 3 2 1 0 0 0 0 0 0 0 0 0 0 0
0 0 0 0 0 0 0 0 0 0 0 2 6 5 1 0 0 1 3 4 6 8 4 8 26 40 38 29 25 28 27 19 9 3 1 1 1 0 0 0 0 0 0 0 0 0 0 0 0
0 0 0 0 0 0 0 0 0 0 0 4 9 7 2 0 0 1 1 1 3 5 3 3 10 16 15 11 9 10 9 5 2 0 0 0 0 0 0 0 0 0 0 0 0 0 0 0 0
0 0 0 0 0 0 0 0 0 0 0 4 8 6 2 1 2 2 1 0 1 2 2 1 1 3 4 3 3 4 4 3 1 0 0 0 0 0 0 0 0 0 0 0 0 0 0 0 0
0 0 0 0 0 0 0 0 0 1 1 3 3 6 13 19 18 12 6 2 1 2 2 1 0 1 1 0 1 2 4 3 1 0 0 0 0 0 0 0 0 0 0 0 0 0 0 0 0
0 0 0 0 0 0 0 0 0 1 2 3 7 22 45 55 46 31 17 5 1 2 3 2 1 1 1 0 0 1 1 1 0 0 0 0 0 0 0 0 0 0 0 0 0 0 0 0 0
0 0 0 0 0 0 0 0 0 1 2 4 19 49 79 84 70 51 30 11 3 1 2 2 3 4 3 2 0 0 0 0 0 0 0 0 0 0 0 0 0 0 0 0 0 0 0 0 0
0 0 0 0 0 0 0 0 0 0 0 4 27 67 94 95 82 62 39 18 6 2 1 2 3 5 5 3 1 1 0 0 0 0 0 0 0 0 0 0 0 0 0 0 0 0 0 0 0
0 0 0 0 0 0 0 0 0 0 0 5 32 73 97 97 87 67 45 26 12 5 2 1 2 4 5 4 3 1 0 0 0 0 0 0 0 0 0 0 0 0 0 0 0 0 0 0 0
0 0 0 0 0 0 0 0 0 0 1 11 41 76 92 92 87 74 57 39 22 9 4 2 3 5 6 6 5 2 0 0 0 0 0 0 0 0 0 0 0 0 0 0 0 0 0 0 0
0 0 0 0 0 0 0 0 0 0 2 14 42 69 78 79 82 78 67 52 34 19 11 8 8 11 13 10 6 2 0 0 0 0 0 0 0 0 0 0 0 0 0 0 0 0 0 0 0
0 0 0 0 0 0 0 0 0 0 1 10 30 53 62 63 67 69 63 56 48 37 28 23 24 26 25 17 8 2 0 0 0 0 0 0 0 0 0 0 0 0 0 0 0 0 0 0 0
0 0 0 0 0 0 0 0 0 0 0 4 16 34 45 47 49 54 55 56 60 59 53 49 50 50 41 24 10 2 0 0 0 0 0 0 0 0 0 0 0 0 0 0 0 0 0 0 0
0 0 0 0 0 0 0 0 0 0 0 1 6 16 26 32 37 41 45 53 64 72 75 75 76 73 58 36 19 10 4 1 0 0 0 0 0 0 0 0 0 0 0 0 0 0 0 0 0
0 0 0 0 0 0 0 0 0 0 0 1 3 6 12 20 26 28 31 42 60 74 82 86 89 84 70 51 33 18 7 1 0 0 0 0 0 0 0 0 0 0 0 0 0 0 0 0 0
0 0 0 0 0 0 0 0 0 0 0 1 2 3 6 10 14 16 20 31 49 68 80 87 90 84 71 54 33 15 5 1 0 0 0 0 0 0 0 0 0 0 0 0 0 0 0 0 0
0 0 0 0 0 0 0 0 0 0 0 0 1 1 2 5 8 10 13 21 37 58 76 86 85 76 59 38 19 6 1 0 0 0 0 0 0 0 0 0 0 0 0 0 0 0 0 0 0
0 0 0 0 0 0 0 0 0 0 0 0 0 0 0 2 5 6 7 12 27 52 74 80 75 60 39 18 7 2 0 0 0 0 0 0 0 0 0 0 0 0 0 0 0 0 0 0 0
0 0 0 0 0 0 0 0 0 0 0 0 0 0 0 1 3 3 5 11 29 55 72 70 57 38 18 6 2 1 0 0 0 0 0 0 0 0 0 0 0 0 0 0 0 0 0 0 0
0 0 0 0 0 0 0 0 0 0 0 0 0 0 0 1 3 6 11 21 38 57 61 51 34 17 5 1 0 0 0 0 0 0 0 0 0 0 0 0 0 0 0 0 0 0 0 0 0
0 0 0 0 0 0 0 0 0 0 1 1 0 0 1 3 6 11 18 28 40 45 40 27 15 5 1 0 0 0 0 0 0 0 0 0 0 0 0 0 0 0 0 0 0 0 0 0 0
0 0 0 0 0 0 0 0 0 1 2 1 0 0 1 4 6 10 15 21 24 23 16 9 4 1 0 0 0 0 0 0 0 0 0 0 0 0 0 0 0 0 0 0 0 0 0 0 0
0 0 0 0 0 0 0 0 0 1 2 2 0 0 2 5 5 5 6 8 7 6 3 1 0 0 0 0 0 0 0 0 0 0 0 0 0 0 0 0 0 0 0 0 0 0 0 0 0
0 0 0 0 0 0 0 0 0 1 2 2 1 1 2 4 3 2 2 1 1 0 0 0 0 0 0 0 0 0 0 0 0 0 0 0 0 0 0 0 0 0 0 0 0 0 0 0 0
0 0 0 0 0 0 0 0 1 1 2 2 1 1 1 1 1 0 0 0 0 0 0 0 0 0 0 0 0 0 0 0 0 0 0 0 0 0 0 0 0 0 0 0 0 0 0 0 0
0 0 0 0 0 0 0 1 2 2 2 2 1 0 0 0 0 0 0 0 0 0 0 0 0 0 0 0 0 0 0 0 0 0 0 0 0 0 0 0 0 0 0 0 0 0 0 0 0

GEFSSGP_con_prob3kmehi_024.txt.gz
EHI
0 0 0 0 0 0 0 0 0 0 0 0 0 0 0 0 0 0 0 0 1 6 12 10 3 1 1 3 20 55 85 94 92 88 80 70 64 56 41 29 22 14 7 2 0 0 0 0 0
0 0 0 0 0 0 0 0 0 0 0 0 0 0 0 0 0 0 0 0 1 3 6 8 5 3 2 3 16 46 74 87 89 87 81 72 64 52 35 22 13 8 3 1 0 0 0 0 0
0 0 0 0 0 0 0 0 0 0 0 0 0 0 0 0 0 0 0 0 0 0 3 8 9 7 5 5 11 31 56 73 81 82 76 65 53 39 24 12 5 1 0 0 0 0 0 0 0
0 0 0 0 0 0 0 0 0 0 0 0 0 0 0 0 0 0 0 0 0 0 3 9 13 11 8 6 8 18 37 56 66 68 61 49 35 23 13 5 1 0 0 0 0 0 0 0 0
0 0 0 0 0 0 0 0 0 0 0 0 0 0 0 0 0 0 0 0 0 0 3 9 15 13 9 6 4 9 22 39 50 51 44 32 21 12 6 2 0 0 0 0 0 0 0 0 0
0 0 0 0 0 0 0 0 0 0 0 0 0 0 0 0 0 1 1 0 0 0 3 9 13 12 7 3 2 5 14 27 37 39 31 20 11 5 2 0 0 0 0 0 0 0 0 0 0
0 0 0 0 0 0 0 0 0 0 0 0 0 0 0 0 1 2 1 0 0 0 2 5 8 7 3 1 1 3 10 18 24 25 18 9 4 1 0 0 0 0 0 0 0 0 0 0 0
0 0 0 0 0 0 0 0 0 0 0 0 0 0 3 8 10 7 3 1 0 0 0 1 3 4 2 0 0 2 4 8 11 10 6 2 1 0 0 0 0 0 0 0 0 0 0 0 0
0 0 0 0 0 0 0 0 0 0 0 0 0 0 10 27 31 20 10 4 4 4 2 0 2 3 1 0 0 0 1 2 2 2 1 0 0 0 0 0 0 0 0 0 0 0 0 0 0
0 0 0 0 0 0 0 0 0 0 0 0 0 1 18 45 52 35 19 10 11 10 4 0 0 1 0 0 0 0 0 0 0 0 0 0 0 0 0 1 0 0 0 0 0 0 0 0 0
0 0 0 0 0 0 0 0 0 0 0 0 0 5 27 54 61 44 24 13 12 11 6 1 0 0 0 0 0 0 0 0 0 1 2 1 1 0 0 0 0 0 0 0 0 0 0 0 0
0 0 0 0 0 0 0 0 0 0 0 0 0 11 34 53 56 45 25 12 9 8 6 2 1 2 2 1 0 0 0 0 1 4 5 4 2 0 0 0 0 0 0 0 0 0 0 0 0
0 0 0 0 0 0 0 0 0 0 0 0 1 11 27 38 42 41 33 22 14 11 8 6 6 8 8 5 2 0 0 0 2 5 6 4 2 1 1 2 3 2 2 1 0 0 0 0 0
0 0 0 0 0 0 0 0 0 0 0 0 1 5 11 17 25 39 50 45 33 25 19 16 18 20 17 11 4 1 0 0 1 3 3 3 2 4 6 9 10 10 8 5 2 0 0 0 0
0 0 0 0 0 0 0 0 0 0 0 0 0 1 2 5 14 34 59 64 55 47 40 34 32 34 32 22 12 6 4 4 4 4 4 4 6 12 20 26 28 23 15 7 3 1 0 0 0
0 0 0 0 0 0 0 0 0 0 0 0 0 0 1 2 7 22 46 64 67 66 64 56 49 51 52 43 31 23 16 12 12 13 12 12 16 25 38 46 43 29 14 6 2 1 0 1 1
0 0 0 0 0 0 0 0 0 0 0 0 0 0 0 1 3 10 28 52 70 77 78 74 71 71 73 68 59 47 36 30 29 32 34 31 31 36 45 48 38 21 10 4 2 0 0 0 0
0 0 0 0 0 0 0 0 0 0 0 0 0 0 0 0 1 5 18 39 65 81 85 87 88 89 90 88 79 67 57 49 45 45 46 42 36 33 34 31 21 11 6 3 1 0 0 0 0
0 0 0 0 0 0 0 0 0 0 0 0 0 1 2 3 3 7 15 31 55 77 89 93 95 97 97 94 87 76 64 49 37 32 31 28 23 19 17 13 8 5 3 1 1 0 0 0 0
0 0 0 0 0 0 0 0 0 0 0 0 2 6 10 12 11 12 18 29 47 69 84 93 96 98 97 91 82 68 49 29 16 11 9 8 7 7 5 3 1 1 1 0 0 0 0 0 0
0 0 0 0 0 0 0 0 0 0 0 3 10 19 27 28 24 21 20 26 40 57 74 86 93 95 91 83 70 53 32 15 5 2 2 1 1 1 0 0 0 0 0 0 0 0 0 0 0
0 0 0 0 0 0 0 0 0 0 1 9 23 38 46 45 37 31 29 32 41 55 69 82 89 89 83 74 61 44 26 12 4 1 0 0 0 0 0 0 0 0 0 0 0 0 0 0 0
0 0 0 0 0 0 0 0 0 0 3 14 31 45 50 47 42 42 48 54 59 67 77 84 84 78 69 59 48 35 21 10 3 0 0 0 0 0 0 0 0 0 0 0 0 0 0 0 0
0 0 0 0 0 0 0 0 1 3 7 15 25 33 35 35 40 51 64 74 77 79 82 80 71 59 47 38 28 18 11 5 1 0 0 0 0 0 0 0 0 0 0 0 0 0 0 0 0
0 0 0 0 0 0 0 1 3 7 8 11 15 17 18 23 33 47 59 67 69 69 66 58 45 33 24 17 11 6 2 1 0 0 0 0 0 0 0 0 0 0 0 0 0 0 0 0 0
0 0 0 0 0 0 0 1 4 5 5 7 9 8 9 14 20 27 33 37 39 40 36 29 20 13 9 5 3 1 0 0 0 0 0 0 0 0 0 0 0 0 0 0 0 0 0 0 0
0 0 0 0 0 0 0 1 2 2 2 5 7 5 4 6 6 7 8 11 14 15 14 10 6 4 2 1 0 0 0 0 0 0 0 0 0 0 0 0 0 0 0 0 0 0 0 0 0
0 0 0 0 0 0 0 0 1 3 5 7 7 4 2 1 0 0 0 1 3 3 3 2 1 0 0 0 0 0 0 0 0 0 0 0 0 0 0 0 0 0 0 0 0 0 0 0 0
0 0 0 0 0 0 0 0 4 10 13 11 7 3 1 0 0 0 0 0 0 0 0 0 0 0 0 0 0 0 0 0 0 0 0 0 0 0 0 0 0 0 0 0 0 0 0 0 0
0 0 0 0 0 0 0 1 6 16 20 14 5 1 0 0 0 0 0 0 0 0 0 0 0 0 0 0 0 0 0 0 0 0 0 0 0 0 0 0 0 0 0 0 0 0 0 0 0

GEFSSGP_con_prob3kmehi_030.txt.gz
EHI
0 0 0 0 0 0 0 0 0 0 0 0 0 0 0 1 2 3 5 31 73 75 47 39 42 33 16 4 1 0 0 0 1 0 1 4 9 16 22 20 11 3 1 0 0 0 0 0 0
0 0 0 0 0 0 0 0 0 0 0 0 0 0 0 1 1 2 9 38 70 63 34 27 36 32 17 6 1 0 0 0 1 1 3 10 18 24 23 17 8 2 0 0 0 0 0 0 0
0 0 0 0 0 0 0 0 0 0 0 0 0 0 0 0 1 4 13 38 59 47 24 22 30 29 17 7 2 0 0 0 2 6 12 23 31 31 22 12 5 1 0 0 0 0 0 0 0
0 0 0 0 0 0 0 0 0 0 0 0 0 0 0 0 3 7 11 27 42 40 27 24 28 25 15 7 2 0 0 2 9 21 33 41 43 36 21 8 2 1 0 0 0 0 0 0 0
0 0 0 0 0 0 0 0 0 0 0 0 0 0 0 1 4 5 6 15 31 42 35 25 24 22 13 7 2 0 0 5 19 38 52 54 48 38 20 5 0 0 0 0 0 0 0 0 0
0 0 0 0 0 0 0 0 0 0 0 0 0 1 1 2 3 2 2 8 28 49 43 25 19 17 9 5 1 0 0 5 22 42 52 48 39 27 14 3 0 0 0 0 0 0 0 0 0
0 0 0 0 0 0 0 0 0 0 0 0 0 1 3 3 1 0 1 5 26 52 47 22 11 10 6 2 0 0 0 4 16 30 34 28 20 12 6 2 0 0 0 0 0 0 0 0 0
0 0 0 0 0 0 0 0 0 0 0 0 0 3 6 5 1 1 2 6 25 52 49 22 7 6 3 1 0 0 1 4 9 14 15 11 6 3 1 4 6 3 0 0 0 0 0 0 0
0 0 0 0 0 0 0 0 0 0 0 0 0 4 8 6 2 2 5 10 29 55 55 29 12 7 3 1 2 1 2 3 4 4 5 3 1 0 5 20 27 13 1 0 0 0 0 0 0
0 0 0 0 0 0 0 0 0 0 0 0 1 4 6 4 2 2 5 13 32 57 60 43 28 16 8 10 11 5 2 3 2 4 5 3 1 6 21 45 47 22 4 1 0 0 0 0 0
0 0 0 0 0 0 0 0 0 0 0 0 2 6 9 7 4 3 4 13 33 50 55 55 49 31 22 29 28 11 6 9 7 10 14 8 5 18 40 53 42 20 5 1 0 0 0 0 0
0 0 0 0 0 0 0 0 0 0 0 1 3 9 15 13 7 3 4 15 36 46 47 59 66 51 41 48 44 21 17 25 23 27 31 20 15 28 44 46 30 14 5 3 2 1 0 0 0
0 0 0 0 0 0 0 0 0 0 0 1 3 9 14 12 6 3 6 21 47 55 51 62 78 73 63 65 60 37 33 43 48 52 52 40 32 39 49 49 36 23 19 18 13 9 6 4 2
0 0 0 0 0 0 0 0 0 0 0 0 1 5 7 6 5 7 13 32 61 74 71 75 89 90 84 83 76 58 50 58 68 73 72 62 58 63 67 63 50 42 46 46 37 28 21 13 9
0 0 0 0 0 0 0 0 0 0 0 0 0 2 3 2 5 12 25 48 74 89 91 92 96 98 97 94 87 71 62 69 79 84 84 82 83 85 83 75 64 59 64 66 61 50 37 26 21
0 0 0 0 0 0 0 0 0 0 0 0 0 1 1 1 3 13 35 63 85 95 99 99 98 99 100 98 92 79 73 80 86 86 88 92 94 93 89 82 73 67 66 64 61 52 40 32 29
0 0 0 0 0 0 0 0 0 0 0 0 0 0 0 0 2 11 37 71 91 97 100 100 99 100 100 100 96 90 87 87 83 80 81 85 87 87 86 80 70 60 53 45 38 33 27 23 22
0 0 0 0 0 0 0 0 0 0 0 0 0 1 2 2 4 11 36 70 92 98 100 100 100 100 100 100 98 97 92 82 72 68 67 67 68 73 73 66 55 43 33 25 18 14 11 9 8
0 0 0 0 0 0 0 0 0 0 0 0 1 4 6 6 8 15 34 66 90 98 100 100 100 100 100 100 99 96 86 73 63 56 51 45 45 50 50 42 35 27 19 12 8 5 3 1 1
0 0 0 0 0 0 0 0 0 0 0 0 1 5 10 13 17 24 38 61 83 94 99 100 100 100 100 100 97 90 78 64 53 43 33 26 23 25 23 19 16 13 9 5 2 1 0 0 0
0 0 0 0 0 0 0 0 0 0 0 1 3 9 19 27 34 41 50 63 77 89 97 100 100 100 100 98 92 81 69 55 39 26 16 11 8 7 6 6 6 5 3 1 0 0 0 0 0
0 0 0 0 0 0 0 0 0 0 0 3 11 24 39 49 56 63 69 75 81 88 96 100 100 99 98 94 85 75 64 48 29 14 6 3 1 1 1 2 2 2 1 0 0 0 0 0 0
0 0 0 0 0 0 0 0 0 0 2 12 31 53 66 72 77 83 86 89 90 93 96 99 98 96 92 85 78 71 60 41 19 7 2 1 0 0 0 1 1 1 0 0 0 0 0 0 0
0 0 0 0 0 0 0 0 3 10 21 38 62 80 85 84 85 89 92 94 96 95 95 94 91 86 80 72 64 58 46 26 9 2 1 0 0 0 0 0 0 0 0 0 0 0 0 0 0
0 0 0 0 0 0 0 1 12 35 56 73 85 88 83 77 76 75 77 81 85 86 84 79 73 67 60 51 43 36 26 13 5 2 1 0 0 0 0 0 0 0 0 0 0 0 0 0 0
0 0 0 0 0 0 1 8 31 62 84 91 86 75 62 54 50 47 45 49 54 59 58 52 45 40 34 27 21 16 10 6 3 2 1 0 0 0 0 0 0 0 0 0 0 0 0 0 0
0 0 0 0 0 0 2 16 45 75 91 89 74 54 37 28 24 20 18 19 22 26 26 23 19 16 12 9 6 4 3 2 1 1 0 0 0 0 0 0 0 0 0 0 0 0 0 0 0
0 0 0 0 0 0 2 15 41 71 85 78 58 36 19 11 7 6 5 6 6 7 7 6 5 3 2 1 1 1 1 1 0 0 0 0 0 0 0 0 0 0 0 0 0 0 0 0 0
0 0 0 0 0 0 1 11 37 67 77 61 39 20 8 3 2 1 1 2 1 1 1 1 1 0 0 0 0 0 0 0 0 0 0 0 0 0 0 0 0 0 0 0 0 0 0 0 0
0 0 0 0 0 0 1 13 44 72 72 49 24 10 3 0 0 0 0 0 0 0 0 0 0 0 0 0 0 0 0 0 0 0 0 0 0 0 0 0 0 0 0 0 0 0 0 0 0

GEFSSGP_con_prob3kmehi_036.txt.gz
EHI
0 0 0 0 0 0 0 0 0 0 0 0 0 0 1 0 0 1 0 7 24 32 29 47 76 87 77 58 36 22 19 19 24 36 44 46 48 48 40 27 17 8 2 1 0 0 0 0 0
0 0 0 0 0 0 0 0 0 0 0 0 0 0 1 1 2 1 1 12 30 34 26 38 67 78 68 47 24 11 9 9 11 17 23 27 28 27 20 13 8 4 1 0 0 0 0 0 0
0 0 0 0 0 0 0 0 0 0 0 0 0 0 0 2 4 2 3 14 27 27 21 35 57 64 53 33 12 3 1 1 1 2 5 7 7 6 3 1 1 1 0 0 0 0 0 0 0
0 0 0 0 0 0 0 0 0 0 0 1 2 1 0 7 16 14 8 12 17 17 18 33 49 49 38 23 9 3 1 0 0 0 0 0 0 0 0 0 0 0 0 0 0 0 0 0 0
0 0 0 0 0 0 0 0 0 0 1 2 5 5 3 18 38 31 12 8 12 15 16 25 36 36 28 19 10 5 3 1 1 1 1 0 0 0 0 0 0 0 0 0 0 0 0 0 0
0 0 0 0 0 0 0 0 0 1 2 4 7 6 5 23 42 31 11 6 11 16 13 14 21 24 22 18 11 7 4 3 4 5 4 4 4 4 3 1 0 0 0 0 0 0 0 0 0
0 0 0 0 0 0 0 0 0 1 2 4 6 5 4 15 26 21 10 7 8 12 11 7 8 11 14 13 9 6 5 5 6 7 8 10 11 9 5 2 1 0 0 0 0 0 0 0 0
0 0 0 0 0 0 0 0 0 0 1 1 2 1 2 7 18 27 25 16 8 6 7 5 3 3 6 6 5 4 5 6 7 8 10 13 11 7 4 2 1 0 0 0 0 0 0 0 1
0 0 0 0 0 0 0 0 0 0 0 0 0 0 1 6 23 45 50 35 17 6 3 5 4 3 4 4 3 3 3 4 4 5 8 9 5 2 1 1 0 0 0 0 0 0 0 0 1
0 0 0 0 0 0 0 0 0 0 0 1 1 1 2 8 25 51 67 59 35 13 3 4 5 6 7 5 3 1 1 1 1 2 3 3 1 0 0 0 0 0 0 0 0 0 0 0 1
0 0 0 0 0 0 0 0 0 0 0 1 2 1 2 6 19 42 65 70 52 24 7 4 7 9 8 5 3 1 0 0 0 0 0 0 0 0 0 0 0 0 0 0 0 0 0 0 0
0 0 0 0 0 0 0 0 0 0 0 1 2 2 2 3 10 28 52 67 60 36 15 9 10 11 9 6 3 1 0 0 0 0 0 0 0 0 0 1 1 1 0 0 0 0 0 0 0
0 0 0 0 0 0 0 0 0 0 0 1 2 2 1 2 5 15 37 58 64 49 28 17 16 14 11 7 4 1 0 0 0 0 0 0 0 0 0 1 1 1 0 0 0 0 0 0 0
0 0 0 0 0 0 0 0 0 0 0 1 2 3 3 3 3 8 24 49 65 62 45 32 26 21 16 12 7 3 2 1 0 0 0 0 0 1 1 0 0 0 0 0 0 0 0 0 0
0 0 0 0 0 0 0 0 0 0 0 1 3 7 8 5 3 5 15 37 59 67 61 53 45 40 34 26 17 12 10 8 5 4 4 3 3 4 3 1 1 0 0 0 0 0 0 0 0
0 0 0 0 0 0 0 0 0 0 0 1 5 10 10 8 6 7 13 27 47 62 69 70 67 64 62 53 41 31 26 23 21 18 15 12 10 9 7 4 2 1 0 0 0 0 0 0 0
0 0 0 0 0 0 0 0 0 0 0 2 6 10 11 10 10 11 15 23 36 55 70 78 80 82 83 79 70 58 49 44 41 38 33 27 22 16 10 6 3 1 1 0 0 0 0 0 0
0 0 0 0 0 0 0 0 0 0 1 3 5 9 12 13 15 16 18 22 33 50 67 78 85 89 92 93 88 78 68 58 53 50 45 37 29 21 13 7 4 2 1 0 0 0 0 0 0
0 0 0 0 0 0 0 0 0 0 2 3 6 10 15 18 22 24 24 27 34 46 59 73 85 92 96 96 92 82 70 58 48 43 37 30 24 18 12 8 4 2 1 0 0 0 0 0 0
0 0 0 0 0 0 0 0 0 1 4 9 15 20 24 28 31 31 31 32 36 43 53 67 81 91 94 92 84 73 60 46 34 26 18 14 13 11 9 5 2 0 0 0 0 0 0 0 0
0 0 0 0 0 0 0 0 1 4 12 23 33 39 43 44 42 38 36 36 38 43 52 63 76 86 89 84 75 63 51 39 26 14 7 5 6 5 4 2 0 0 0 0 0 0 0 0 0
0 0 0 0 0 0 0 0 1 6 18 35 50 58 61 61 58 51 47 45 44 46 53 63 73 81 82 76 68 59 49 36 21 9 3 3 3 2 1 0 0 0 0 0 0 0 0 0 0
0 0 0 0 0 0 0 0 1 5 17 37 56 65 68 70 69 64 60 57 52 51 55 64 73 75 72 67 61 52 41 27 13 4 1 1 1 0 0 0 0 0 0 0 0 0 0 0 0
0 0 0 0 0 0 0 0 1 3 13 33 54 63 64 65 65 65 63 61 58 56 58 63 67 66 60 55 48 38 27 16 7 1 0 0 0 0 0 0 0 0 0 0 0 0 0 0 0
0 0 0 0 0 0 0 2 4 6 13 28 42 48 47 47 51 52 52 50 49 49 51 54 55 52 47 40 31 22 15 8 3 1 0 0 0 0 0 0 0 0 0 0 0 0 0 0 0
0 0 0 0 0 0 0 3 7 9 14 21 23 23 23 25 29 31 31 29 27 28 31 34 34 31 27 21 14 10 6 3 1 0 0 0 0 0 0 0 0 0 0 0 0 0 0 0 0
0 0 0 0 0 0 0 2 6 9 10 10 7 5 6 8 9 11 11 10 9 9 12 14 14 11 9 6 4 2 1 0 0 0 0 0 0 0 0 0 0 0 0 0 0 0 0 0 0
0 0 0 0 0 0 0 0 3 6 7 4 1 0 1 1 1 2 2 2 2 2 2 3 3 3 2 1 0 0 0 0 0 0 0 0 0 0 0 0 0 0 0 0 0 0 0 0 0
0 0 0 0 0 0 0 0 2 5 6 3 0 0 0 0 0 0 0 0 0 0 0 1 1 1 1 0 0 0 0 0 0 0 0 0 0 0 0 0 0 0 0 0 0 0 0 0 0
0 0 0 0 0 0 0 0 1 4 4 2 0 0 0 0 0 0 0 0 0 0 0 0 0 0 0 0 0 0 0 0 0 0 0 0 0 0 0 0 0 0 0 0 0 0 0 0 0

GEFSSGP_con_prob3kmehi_042.txt.gz
EHI
0 0 0 0 0 0 0 0 0 0 0 0 0 0 0 0 0 0 1 13 40 53 35 28 45 67 85 94 97 99 100 100 99 97 97 97 98 98 92 80 68 59 47 30 13 3 1 0 0
0 0 0 0 0 0 0 0 0 0 0 0 0 0 0 0 0 0 4 21 48 57 39 29 45 70 86 94 96 98 98 98 96 95 95 95 96 93 84 70 58 50 39 23 8 2 0 0 0
0 0 0 0 0 0 0 0 0 0 0 0 0 0 0 0 0 1 10 32 53 54 38 32 47 67 83 90 91 93 93 91 90 89 89 88 85 77 64 49 36 30 23 12 3 0 0 0 0
0 0 0 0 0 0 0 0 0 0 0 0 0 0 0 0 0 4 18 37 47 39 28 30 43 57 70 78 81 81 80 80 79 77 74 69 62 50 36 24 15 10 7 4 1 0 0 0 0
0 0 0 0 0 0 0 0 0 0 0 0 0 0 0 1 3 10 22 32 36 31 23 26 34 42 52 61 64 63 62 63 62 58 51 42 33 24 15 9 4 2 1 0 0 0 0 0 0
0 0 0 0 0 0 0 0 0 0 0 0 0 1 1 2 5 13 17 21 28 32 27 22 24 27 33 40 43 42 41 41 40 35 26 18 12 8 5 3 2 1 0 0 0 0 0 0 0
0 0 0 0 0 0 0 0 0 0 0 0 0 1 2 2 6 11 13 15 24 31 26 17 14 15 17 22 24 23 23 23 21 16 10 5 3 2 1 1 1 0 0 0 0 0 0 0 0
0 0 0 0 0 0 0 0 0 0 0 0 0 1 2 5 12 19 22 22 23 22 17 10 8 8 10 12 14 14 14 13 9 6 3 1 0 0 0 1 1 0 0 0 0 0 0 0 0
0 0 0 0 0 0 0 0 0 0 0 0 0 1 8 18 25 31 34 30 23 14 8 6 6 7 9 11 12 11 9 7 4 2 1 0 0 0 1 2 2 1 0 0 0 0 0 0 0
0 0 0 0 0 0 0 0 0 0 0 0 1 6 22 36 36 32 30 25 18 9 4 4 5 9 11 12 11 9 5 3 2 1 0 0 0 0 1 2 2 1 0 0 0 0 0 0 0
0 0 0 0 0 0 0 0 0 0 0 0 3 18 41 50 38 24 17 12 8 5 3 2 4 9 13 13 11 8 4 2 1 0 0 0 0 0 0 1 1 0 0 0 0 0 0 0 0
0 0 0 0 0 0 0 0 0 0 0 0 6 27 53 57 39 19 8 3 2 2 2 1 2 7 12 12 11 8 4 4 3 1 0 0 0 0 0 0 0 0 0 0 0 0 0 0 0
0 0 0 0 0 0 0 0 0 0 0 1 7 27 49 54 37 16 4 1 0 1 1 1 1 4 8 11 11 7 4 4 3 1 1 1 0 0 0 0 0 0 0 0 0 0 0 0 0
0 0 0 0 0 0 0 0 0 0 0 1 6 19 34 42 33 16 4 1 0 0 1 2 2 3 5 9 10 7 3 1 1 1 1 2 1 0 0 0 0 0 0 0 0 0 0 0 0
0 0 0 0 0 0 0 0 0 0 0 1 4 10 19 26 26 19 10 5 3 2 2 3 4 3 4 6 7 4 1 0 0 0 1 1 1 0 0 0 0 0 0 0 0 0 0 0 0
0 0 0 0 0 0 0 0 0 0 0 0 2 5 10 13 17 17 15 13 12 10 7 8 9 7 6 4 2 1 0 0 0 0 0 0 0 0 0 0 0 0 0 0 0 0 0 0 0
0 0 0 0 0 0 0 0 0 0 0 0 1 3 6 7 8 11 15 20 24 23 18 18 18 15 11 7 4 2 1 0 0 0 0 0 0 0 0 0 0 0 0 0 0 0 0 0 0
0 0 0 0 0 0 0 0 0 0 0 0 1 4 5 5 6 9 16 26 32 32 31 31 31 27 21 16 13 10 7 4 2 1 0 0 1 1 1 0 0 0 0 0 0 0 0 0 0
0 0 0 0 0 0 0 0 1 1 0 1 3 5 6 5 7 10 18 30 37 37 37 39 41 40 37 33 29 22 16 10 5 3 1 0 2 3 2 1 1 1 1 0 0 0 0 0 0
0 0 0 0 0 0 0 1 3 5 6 8 11 11 10 8 8 12 21 31 38 39 37 38 44 50 51 51 44 32 22 14 8 4 1 0 1 3 3 2 2 1 1 0 0 0 0 0 0
0 0 0 0 0 0 0 1 4 9 16 21 22 21 19 16 14 18 25 32 36 37 36 36 43 53 58 59 54 43 31 22 15 8 3 0 0 1 1 1 1 1 0 0 0 0 0 0 0
0 0 0 0 0 0 0 1 3 9 19 26 27 26 25 22 21 22 27 32 33 33 31 33 41 50 56 60 59 52 42 32 22 13 5 1 0 0 0 0 0 0 0 0 0 0 0 0 0
0 0 0 0 0 0 0 1 3 7 14 19 20 20 18 19 21 23 24 26 25 23 24 28 34 41 49 56 56 51 42 32 21 12 4 1 0 0 0 0 0 0 0 0 0 0 0 0 0
0 0 0 0 0 0 0 1 3 6 8 9 10 9 9 12 17 19 19 19 18 17 18 23 27 32 38 43 42 37 29 22 14 8 3 1 0 0 0 0 0 0 0 0 0 0 0 0 0
0 0 0 0 0 0 0 1 3 6 6 4 3 3 3 6 9 11 11 11 13 14 14 16 20 24 26 26 24 20 15 12 9 6 3 1 0 0 0 0 0 0 0 0 0 0 0 0 0
0 0 0 0 0 0 0 2 3 3 3 1 1 0 1 2 3 3 4 4 6 8 9 9 13 16 16 13 10 7 6 5 4 3 1 0 0 0 0 0 0 0 0 0 0 0 0 0 0
0 0 0 0 0 0 0 1 2 1 0 0 0 0 0 0 0 0 0 0 1 2 3 4 6 7 7 5 4 3 3 2 1 1 0 0 0 0 0 0 0 0 0 0 0 0 0 0 0
0 0 0 0 0 0 0 0 0 0 0 0 0 0 0 0 0 0 0 0 0 0 0 1 2 3 2 2 2 2 1 1 0 0 0 0 0 0 0 0 0 0 0 0 0 0 0 0 0
0 0 0 0 0 0 0 0 0 0 0 0 0 0 0 0 0 0 0 0 0 0 0 0 1 1 1 1 1 1 0 0 0 0 0 0 0 0 0 0 0 0 0 0 0 0 0 0 0
0 0 0 0 0 0 0 0 0 0 0 0 0 0 0 0 0 0 0 0 0 0 0 0 0 0 0 0 0 0 0 0 0 0 0 0 0 0 0 0 0 0 0 0 0 0 0 0 0

GEFSSGP_con_prob3kmehi_048.txt.gz
EHI
0 0 0 0 0 0 0 0 0 0 0 0 0 0 0 0 0 1 11 35 57 56 35 16 11 19 41 70 85 85 85 87 87 85 86 84 74 60 45 26 11 6 6 7 5 3 1 0 0
0 0 0 0 0 0 0 0 0 0 0 0 0 0 0 0 0 3 21 48 60 51 31 14 13 25 51 78 89 89 88 90 91 91 90 86 77 65 49 28 12 6 5 6 5 2 1 0 0
0 0 0 0 0 0 0 0 0 0 0 0 0 0 0 0 0 9 36 58 55 38 21 14 16 30 59 83 91 92 93 94 95 96 95 90 79 66 50 29 13 6 5 5 3 1 0 0 0
0 0 0 0 0 0 0 0 0 0 0 0 0 0 0 0 2 19 46 55 41 22 11 11 16 30 58 82 90 93 95 96 97 97 96 90 76 61 45 27 13 6 5 4 2 0 0 0 0
0 0 0 0 0 0 0 0 0 0 0 0 0 0 1 4 12 32 49 45 28 12 5 7 12 24 50 75 86 91 94 94 94 94 92 84 71 54 39 24 13 7 4 3 1 0 0 0 0
0 0 0 0 0 0 0 0 0 0 0 0 0 0 3 12 29 45 45 32 18 8 3 4 6 14 33 56 75 85 88 88 88 87 84 76 62 46 31 19 13 8 4 2 1 0 0 0 0
0 0 0 0 0 0 0 0 0 0 0 0 0 0 6 24 47 56 44 25 12 5 1 1 2 4 14 31 50 67 74 75 75 72 67 59 45 30 19 12 9 6 4 2 1 0 0 0 0
0 0 0 0 0 0 0 0 0 0 0 0 0 0 11 37 63 70 54 31 15 5 1 0 0 0 3 10 22 37 48 51 50 45 41 34 23 12 7 5 4 3 2 1 0 0 0 0 0
0 0 0 0 0 0 0 0 0 0 0 0 0 1 15 46 74 84 73 50 29 12 2 0 0 0 0 1 5 11 17 21 20 18 16 11 5 2 1 2 2 1 1 0 0 0 0 0 0
0 0 0 0 0 0 0 0 0 0 0 0 0 2 17 45 73 85 79 62 41 20 5 0 0 0 0 0 0 1 2 3 4 3 3 1 0 0 1 2 1 0 0 0 0 0 0 0 0
0 0 0 0 0 0 0 0 0 0 0 0 0 3 16 39 61 71 68 56 39 20 5 0 0 0 0 0 0 0 0 0 1 1 1 1 0 0 0 1 0 0 0 0 1 0 0 0 0
0 0 0 0 0 0 0 0 0 0 0 0 0 3 14 31 45 52 51 43 29 13 3 0 0 0 0 0 1 0 0 0 1 2 2 1 0 0 0 0 0 0 0 0 0 0 0 0 0
0 0 0 0 0 0 0 0 0 0 0 0 0 3 10 21 32 39 40 35 24 10 2 0 0 0 0 0 0 0 0 0 1 2 1 1 0 1 1 0 0 0 0 0 0 0 0 0 0
0 0 0 0 0 0 0 0 0 0 0 0 0 1 5 11 22 33 36 32 23 12 4 1 1 1 1 0 0 0 1 1 0 1 1 1 1 2 2 2 3 2 1 0 1 1 2 1 0
0 0 0 0 0 0 0 0 0 0 0 0 0 0 1 4 14 24 28 25 19 12 6 3 2 2 1 1 2 2 2 2 1 2 4 6 6 7 7 6 7 7 6 6 7 6 5 4 4
0 0 0 0 0 0 0 0 0 0 0 0 0 1 1 3 7 12 16 15 12 9 8 6 5 5 5 5 5 4 4 4 5 7 10 13 15 18 18 16 18 20 20 18 17 13 9 8 9
0 0 0 0 0 0 0 0 0 0 0 0 2 4 5 6 7 10 11 10 8 8 9 9 8 9 9 9 9 8 8 9 10 13 16 20 24 26 27 31 36 38 39 38 32 25 17 13 12
0 0 0 0 0 0 0 1 2 2 2 3 5 8 11 12 13 14 13 11 9 9 11 12 12 14 16 16 17 17 17 19 19 21 25 28 30 31 33 41 50 54 55 55 48 37 26 17 13
0 0 0 0 0 0 1 3 5 7 8 9 11 15 16 17 19 19 18 17 15 15 17 19 21 23 26 30 32 32 32 31 30 32 36 38 37 35 38 47 56 60 60 57 50 41 28 17 12
0 0 0 0 0 0 1 3 6 9 12 15 18 22 24 26 29 31 29 30 31 31 32 35 37 39 43 48 50 50 49 46 43 46 49 48 44 41 41 49 54 55 54 48 41 34 24 13 8
0 0 0 0 0 0 0 1 4 7 12 18 24 30 35 36 37 39 40 41 45 47 48 50 52 53 58 64 65 65 65 62 59 60 58 52 45 40 39 40 42 44 44 38 30 24 18 10 4
0 0 0 0 0 0 0 0 1 4 10 19 27 34 39 38 36 38 42 45 48 51 53 55 55 56 60 65 68 68 69 70 69 65 57 44 35 30 26 24 26 29 28 23 17 12 9 6 2
0 0 0 0 0 0 0 0 1 4 10 18 27 34 36 34 32 35 42 47 46 48 50 50 51 53 54 57 61 64 67 71 69 60 45 31 22 17 13 12 14 14 11 8 5 3 2 2 1
0 0 0 0 0 0 0 1 4 7 9 14 22 28 30 29 27 30 38 44 44 45 46 47 49 50 51 51 54 59 65 66 61 48 32 20 13 9 7 6 6 4 3 1 0 0 0 0 0
0 0 0 0 0 0 0 2 6 8 8 10 13 16 18 18 17 19 26 31 34 38 41 44 44 44 45 46 48 52 55 53 45 32 20 11 8 6 4 2 1 1 1 0 0 0 0 0 0
0 0 0 0 0 0 0 2 5 5 4 5 6 7 8 9 9 11 14 17 20 24 29 32 33 34 33 34 34 35 36 32 24 16 10 6 5 4 3 1 0 0 0 0 0 0 0 0 0
0 0 0 0 0 0 1 3 3 2 1 1 2 3 4 4 5 6 6 6 8 10 13 16 18 19 19 17 16 16 15 12 9 6 4 3 2 2 2 1 0 0 0 0 0 0 0 0 0
0 0 0 0 0 0 0 1 2 1 0 1 1 1 1 1 2 2 1 1 2 3 3 4 5 5 5 4 3 3 3 2 1 1 1 1 1 1 1 0 0 0 0 0 0 0 0 0 0
0 0 0 0 0 0 0 0 2 3 3 2 1 0 0 0 0 0 0 0 0 0 0 0 0 0 0 0 0 0 0 0 0 0 0 0 0 0 0 0 0 0 0 0 0 0 0 0 0
0 0 0 0 0 0 0 1 3 6 5 3 1 0 0 0 0 0 0 0 0 0 0 0 0 0 0 0 0 0 0 0 0 0 0 0 0 0 0 0 0 0 0 0 0 0 0 0 0

GEFSSGP_con_prob3kmehi_054.txt.gz
EHI
0 0 0 0 0 0 0 0 0 0 0 0 0 0 0 1 2 4 11 41 82 98 96 95 89 72 43 17 5 2 1 2 4 3 3 3 3 2 2 3 3 2 0 0 0 0 0 0 0
0 0 0 0 0 0 0 0 0 0 0 0 0 0 0 1 1 6 23 57 86 94 93 95 91 77 52 27 10 5 4 5 7 7 6 5 3 1 1 3 3 2 0 0 0 0 0 0 0
0 0 0 0 0 0 0 0 0 0 0 0 0 0 1 1 3 15 40 70 86 88 91 96 94 85 66 43 25 15 12 12 13 13 11 9 7 5 3 3 2 1 0 0 0 0 0 0 0
0 0 0 0 0 0 0 0 0 0 0 0 0 2 3 4 10 26 45 65 79 84 89 97 97 92 79 60 43 31 25 24 26 25 21 21 21 17 11 4 1 0 0 0 0 0 0 0 0
0 0 0 0 0 0 0 0 0 0 0 0 1 6 9 9 14 24 34 51 70 80 87 95 99 96 87 72 57 47 43 44 47 45 40 39 38 30 19 7 2 0 0 0 0 0 0 0 0
0 0 0 0 0 0 0 0 0 0 0 0 2 8 14 13 12 14 22 40 63 78 84 90 94 92 85 76 67 60 58 61 62 58 54 51 45 34 20 8 2 0 0 0 0 0 0 0 0
0 0 0 0 0 0 0 0 0 0 0 0 2 11 22 21 12 9 16 35 60 75 75 74 77 79 75 70 66 63 61 62 61 57 53 47 38 27 16 6 1 0 0 0 0 0 0 0 0
0 0 0 0 0 0 0 0 0 0 0 0 2 12 27 26 13 9 18 36 59 70 60 48 48 52 51 48 49 49 48 47 46 43 38 32 22 14 8 3 2 1 0 0 0 0 0 0 0
0 0 0 0 0 0 0 0 0 0 0 0 2 11 22 21 13 15 29 48 67 70 49 24 18 22 22 21 23 25 25 24 23 21 19 14 7 3 6 12 12 5 1 0 0 0 0 0 0
0 0 0 0 0 0 0 0 0 0 0 0 4 12 16 14 11 19 39 63 80 75 43 14 5 5 5 7 9 7 6 6 5 5 4 3 1 2 13 28 25 10 2 0 0 0 0 0 0
0 0 0 0 0 0 0 0 0 0 0 1 6 14 15 11 9 16 39 67 84 74 41 16 8 4 5 8 6 2 1 1 2 3 2 0 0 5 17 26 22 9 2 1 1 1 0 0 0
0 0 0 0 0 0 0 0 0 0 0 0 5 12 13 9 6 12 32 59 76 68 42 26 23 18 21 24 14 6 6 5 8 11 7 1 0 4 11 15 11 5 3 4 4 2 1 1 0
0 0 0 0 0 0 0 0 0 0 0 0 3 7 9 6 5 10 27 53 72 67 49 44 48 46 49 51 34 18 15 13 16 22 15 4 1 3 9 15 14 8 9 15 12 6 4 4 2
0 0 0 0 0 0 0 0 0 0 0 0 1 4 6 5 5 14 32 56 75 76 65 63 71 73 74 70 54 33 22 18 23 31 27 13 7 12 20 27 26 19 21 30 28 18 14 13 9
0 0 0 0 0 0 0 0 0 0 0 0 1 2 4 6 10 22 43 65 81 84 80 77 81 84 83 76 62 43 26 21 30 41 42 31 23 32 43 46 43 37 37 47 47 36 29 25 19
0 0 0 0 0 0 0 0 0 0 0 1 2 3 4 9 18 31 51 74 86 89 89 86 84 86 86 78 65 47 33 33 44 55 60 54 48 56 65 63 57 55 57 61 58 50 43 35 32
0 0 0 0 0 0 0 0 1 1 1 2 4 5 7 16 28 42 61 81 90 91 91 89 86 86 86 80 69 53 46 52 63 73 78 76 69 72 77 73 68 68 70 67 61 57 53 47 44
0 0 0 0 0 0 1 2 5 7 8 9 9 10 15 26 41 56 74 87 91 91 91 89 87 86 85 81 72 62 59 68 77 84 89 86 80 79 79 75 73 74 71 65 61 58 56 53 50
0 0 0 0 0 1 3 6 11 16 19 22 22 23 28 39 53 69 83 90 91 92 90 86 84 85 85 80 75 71 70 76 83 87 89 87 83 81 77 72 70 71 67 60 56 53 51 47 42
0 0 0 0 0 2 5 8 15 22 28 33 36 37 41 49 61 75 86 89 90 92 88 80 77 81 81 77 75 77 78 81 84 85 85 85 82 78 72 65 62 62 58 51 45 44 43 37 29
0 0 0 0 0 2 4 6 12 22 30 35 40 42 45 52 61 70 78 83 86 88 84 77 74 75 74 71 71 77 82 83 82 83 81 77 74 70 63 55 52 50 46 40 35 34 33 27 20
0 0 0 0 0 0 1 2 7 18 28 34 38 39 40 45 51 55 60 67 74 78 79 78 75 73 72 71 71 76 80 80 78 79 75 66 60 56 49 42 38 36 33 30 27 25 21 17 13
0 0 0 0 0 0 0 1 6 15 24 30 35 35 32 33 36 39 42 47 54 61 66 69 70 69 68 67 69 70 71 69 67 68 65 54 43 37 31 26 23 22 21 21 19 16 12 8 6
0 0 0 0 0 0 0 2 9 20 26 28 29 28 26 24 25 27 30 33 38 44 47 50 52 55 56 54 55 56 54 51 51 52 48 38 27 20 16 13 11 11 11 11 10 7 5 4 3
0 0 0 0 0 0 1 5 18 31 33 29 25 23 22 20 19 18 19 21 25 28 32 34 36 39 40 39 37 36 34 34 35 34 29 21 14 11 9 7 5 5 5 5 4 3 1 1 2
0 0 0 0 0 0 4 14 29 36 34 29 24 19 16 15 13 11 10 11 13 15 19 23 24 24 24 22 20 18 18 18 18 16 13 8 6 5 4 3 3 2 2 2 2 1 0 0 1
0 0 0 0 0 0 6 21 33 35 31 25 20 15 12 10 8 7 6 6 6 7 9 10 11 10 8 7 6 6 6 6 5 4 3 2 1 1 1 1 1 1 1 1 1 0 0 0 0
0 0 0 0 0 0 4 12 23 27 25 20 15 11 7 6 5 4 4 3 4 4 2 2 2 1 1 1 1 1 1 1 0 0 0 0 0 0 0 0 0 0 0 0 0 0 0 0 0
0 0 0 0 0 0 0 3 11 16 16 14 11 7 3 2 2 1 1 1 1 1 0 0 0 0 0 0 0 0 0 0 0 0 0 0 0 0 0 0 0 0 0 0 0 0 0 0 0
0 0 0 0 0 0 0 3 10 11 9 9 8 4 1 0 0 0 0 0 0 0 0 0 0 0 0 0 0 0 0 0 0 0 0 0 0 0 0 0 0 0 0 0 0 0 0 0 0

GEFSSGP_con_prob3kmehi_060.txt.gz
EHI
0 0 0 0 0 0 0 0 0 0 0 0 0 0 1 3 3 3 5 19 43 53 39 29 29 29 24 15 8 4 2 3 7 8 8 7 4 3 2 1 2 2 1 0 0 0 0 1 1
0 0 0 0 0 0 0 0 0 0 0 0 0 0 2 5 7 8 15 34 58 64 48 36 35 35 28 19 10 3 1 2 4 5 4 3 3 2 1 0 1 1 0 0 0 0 0 0 1
0 0 0 0 0 0 0 0 0 0 0 0 0 1 2 5 11 20 35 58 74 74 60 49 47 45 37 27 15 5 1 0 1 1 0 0 1 1 0 0 0 0 0 0 0 0 0 0 0
0 0 0 0 0 0 0 0 0 0 0 0 2 3 5 10 22 39 61 76 82 79 70 63 60 55 49 40 27 14 5 1 0 0 0 0 0 0 0 0 0 0 0 0 0 0 0 0 0
0 0 0 0 0 0 0 0 0 0 0 1 4 9 12 22 42 63 76 81 83 83 78 72 68 64 61 56 43 27 12 4 1 0 0 0 0 0 0 0 0 0 0 0 0 0 0 0 0
0 0 0 0 0 0 0 0 0 0 0 1 7 13 18 30 54 74 79 77 81 87 83 73 66 65 68 69 59 42 23 10 2 0 0 0 0 0 0 0 0 0 0 0 0 0 0 0 0
0 0 0 0 0 0 0 0 0 0 0 2 8 16 20 31 53 72 75 74 80 88 86 73 60 60 66 68 64 51 33 16 5 1 1 0 0 0 0 0 0 0 0 0 0 0 0 0 0
0 0 0 0 0 0 0 0 0 0 0 2 8 15 18 26 48 69 73 73 79 86 85 75 64 61 60 59 57 51 36 21 10 4 2 1 0 0 0 0 0 0 0 0 0 0 0 0 0
0 0 0 0 0 0 0 0 0 0 0 3 8 11 12 21 43 65 74 75 76 80 80 76 71 68 63 58 52 45 34 22 13 8 4 2 1 0 0 0 0 0 0 0 0 0 0 0 0
0 0 0 0 0 0 0 0 0 0 1 4 8 11 13 20 39 61 75 77 72 72 73 72 71 70 68 67 59 45 30 19 12 8 5 2 1 0 0 0 0 0 0 0 0 0 0 0 0
0 0 0 0 0 0 0 0 0 0 0 4 10 14 16 21 36 57 73 77 71 68 69 67 64 62 64 67 62 44 24 12 8 5 3 1 0 0 0 0 0 0 0 0 0 0 0 0 0
0 0 0 0 0 0 0 0 0 0 0 4 11 17 16 18 29 48 65 74 71 66 65 63 56 49 47 51 46 30 14 6 4 3 1 0 0 0 0 0 0 0 0 0 0 0 0 0 0
0 0 0 0 0 0 0 0 0 0 0 4 12 17 15 14 21 36 55 69 71 67 64 58 47 36 31 29 22 11 5 2 1 1 0 0 0 0 0 0 0 0 0 0 0 0 0 0 0
0 0 0 0 0 0 0 0 0 0 1 4 9 13 12 13 18 31 50 66 71 68 63 51 35 25 20 15 8 2 1 0 0 0 0 0 0 0 0 0 0 0 0 0 0 0 0 0 0
0 0 0 0 0 0 0 0 0 0 1 3 7 10 11 13 18 30 50 66 70 67 61 48 32 22 15 9 3 0 0 0 0 0 0 0 0 0 0 0 0 0 0 0 0 0 0 0 0
0 0 0 0 0 0 0 0 0 1 2 5 8 9 11 14 20 31 51 65 68 66 64 56 44 35 25 14 6 3 2 1 1 0 0 0 0 0 0 0 0 0 0 0 0 0 0 0 0
0 0 0 0 0 0 1 2 1 1 4 7 10 12 14 18 24 36 52 62 65 67 70 69 63 57 47 35 22 13 9 8 6 4 2 2 2 2 2 1 2 3 3 2 2 1 1 0 0
0 0 0 0 1 2 5 7 7 6 8 11 13 17 22 25 32 43 55 61 62 67 73 75 74 71 67 60 48 34 25 21 17 11 7 5 6 9 9 7 7 7 6 4 2 2 1 0 0
0 0 0 1 2 4 10 16 18 17 16 16 18 22 27 33 39 47 55 60 62 65 70 75 77 75 73 72 65 54 43 34 25 17 10 9 13 18 20 15 10 8 6 3 1 1 0 0 0
0 0 0 1 2 4 12 22 27 26 23 22 23 25 29 33 37 41 46 51 54 56 59 64 68 68 68 67 65 61 52 38 26 16 11 11 17 23 23 19 15 10 6 2 1 1 1 1 0
0 0 0 0 1 2 8 16 23 25 23 23 23 24 25 26 28 30 34 37 38 39 42 45 50 54 55 56 58 57 48 33 21 14 10 10 15 18 18 17 17 14 9 5 3 2 3 3 2
0 0 0 0 0 0 2 6 11 16 19 20 19 17 17 17 19 22 25 26 26 26 27 31 36 41 42 44 48 48 39 26 18 15 11 9 10 12 12 12 13 12 10 8 6 4 4 4 4
0 0 0 0 0 0 0 1 3 7 12 15 15 14 14 13 14 16 18 19 19 18 19 22 27 31 32 33 35 34 27 19 16 15 13 9 8 8 8 8 8 7 8 7 5 4 3 4 4
0 0 0 0 0 0 0 0 1 3 7 12 16 16 14 12 11 12 13 13 13 12 14 17 19 21 22 21 20 18 14 12 12 13 11 8 6 5 5 5 4 4 4 4 3 2 2 2 2
0 0 0 0 0 0 0 0 0 3 8 13 16 15 12 10 9 9 9 9 8 9 11 12 13 13 13 12 10 8 7 7 8 8 7 4 2 2 2 2 1 1 1 1 1 1 1 1 1
0 0 0 0 0 0 0 0 1 5 10 14 14 12 10 8 7 7 7 7 6 7 7 8 8 8 7 7 6 4 4 4 5 4 2 1 0 0 0 0 0 0 0 0 0 0 0 0 0
0 0 0 0 0 0 0 0 1 6 11 12 10 8 7 6 6 6 6 6 5 5 4 4 4 4 4 4 3 2 1 1 2 1 0 0 0 0 0 0 0 0 0 0 0 0 0 0 0
0 0 0 0 0 0 0 0 1 4 7 7 5 5 4 4 4 4 3 3 3 2 1 1 1 1 1 1 1 1 0 0 0 0 0 0 0 0 0 0 0 0 0 0 0 0 0 0 0
0 0 0 0 0 0 0 0 0 1 2 2 2 2 2 2 2 2 1 1 1 0 0 0 0 0 0 0 0 0 0 0 0 0 0 0 0 0 0 0 0 0 0 0 0 0 0 0 0
0 0 0 0 0 0 0 0 1 1 1 0 1 1 1 1 1 1 0 0 0 0 0 0 0 0 0 0 0 0 0 0 0 0 0 0 0 0 0 0 0 0 0 0 0 0 0 0 0

GEFSSGP_con_prob3kmehi_066.txt.gz
EHI
0 0 0 0 0 0 0 0 0 0 0 0 0 0 0 0 1 1 3 15 41 57 48 34 27 27 40 64 84 93 95 92 89 85 79 71 62 49 35 25 18 13 8 5 2 2 2 2 3
0 0 0 0 0 0 0 0 0 0 0 0 0 0 0 1 2 3 5 20 46 63 57 43 38 38 44 60 77 88 90 88 85 81 74 67 58 46 34 25 19 13 7 3 1 1 1 1 2
0 0 0 0 0 0 0 0 0 0 0 0 0 1 2 3 4 5 10 26 50 67 63 55 54 55 56 60 70 81 84 81 79 74 68 62 54 42 30 22 16 10 4 1 0 0 0 0 1
0 0 0 0 0 0 0 0 0 0 0 0 1 3 5 7 7 9 19 37 56 65 62 62 66 67 65 63 67 77 80 76 73 70 64 59 50 36 24 16 12 6 2 0 0 0 1 1 0
0 0 0 0 0 0 0 0 0 0 0 1 2 5 9 12 13 17 31 49 63 67 63 66 70 70 65 62 65 74 76 72 69 67 61 53 44 30 17 10 7 5 2 0 0 1 2 2 1
0 0 0 0 0 0 0 0 0 0 0 1 3 7 11 15 21 31 43 55 66 71 69 68 67 63 59 58 62 69 70 68 66 60 53 45 34 23 13 6 4 3 1 0 0 2 3 3 2
0 0 0 0 0 0 0 0 0 0 0 1 3 7 10 17 31 46 55 60 68 75 75 73 67 60 55 55 57 62 65 66 61 53 44 35 25 16 9 4 1 1 0 0 0 1 2 2 1
0 0 0 0 0 0 0 0 0 0 0 1 2 4 9 22 42 59 64 65 69 74 75 75 71 65 61 57 53 55 60 62 56 46 37 28 19 11 6 3 1 0 0 0 0 0 1 1 0
0 0 0 0 0 0 0 0 0 0 0 0 2 5 14 33 51 62 65 63 64 66 66 66 66 69 70 65 57 54 55 54 47 38 31 23 13 7 4 2 1 0 0 0 0 0 0 0 0
0 0 0 0 0 0 0 0 0 0 0 0 2 9 23 40 52 57 57 55 56 58 56 52 56 68 75 74 69 63 57 50 40 30 23 15 7 4 4 3 1 0 0 0 0 0 0 0 0
0 0 0 0 0 0 0 0 0 0 0 0 3 13 29 43 51 53 50 50 52 55 52 46 50 64 73 78 80 75 65 53 37 25 17 9 4 4 4 4 2 1 0 0 0 0 0 0 0
0 0 0 0 0 0 0 0 0 0 0 0 3 14 31 44 49 48 47 47 49 53 53 50 51 59 68 77 82 79 69 54 35 22 13 6 3 3 3 2 2 1 0 0 1 0 0 0 0
0 0 0 0 0 0 0 0 0 0 0 0 3 13 26 37 41 41 42 44 45 47 51 52 52 56 63 71 77 73 61 47 31 19 11 5 3 2 1 0 0 0 0 0 0 0 0 0 0
0 0 0 0 0 0 0 0 0 0 0 1 4 11 19 25 30 35 39 41 41 41 46 51 52 55 59 64 67 62 50 37 26 17 9 4 3 1 0 0 0 0 0 0 0 0 0 0 0
0 0 0 0 0 0 0 0 0 0 1 2 5 9 13 17 23 30 36 39 40 40 45 52 54 54 54 53 51 47 39 29 20 12 6 3 3 1 0 0 0 0 0 0 0 0 0 0 0
0 0 0 0 0 0 0 0 0 1 2 3 5 8 12 13 16 22 30 37 41 43 47 55 56 50 44 39 34 31 26 20 12 7 4 3 3 2 1 0 0 0 0 0 0 0 0 0 0
0 0 0 0 0 0 0 0 0 1 2 4 5 9 12 12 12 16 23 30 34 40 46 51 51 44 36 28 23 17 13 9 5 3 3 3 2 2 1 0 0 0 0 0 0 0 0 0 0
0 0 0 0 0 0 0 0 0 1 2 4 6 11 15 15 12 12 16 20 26 34 43 47 45 39 31 24 16 8 5 3 1 1 2 1 1 1 0 0 0 0 0 0 0 0 0 0 0
0 0 0 0 0 0 0 0 0 1 2 4 8 12 15 15 11 11 13 16 22 30 37 42 42 36 31 25 15 7 4 2 0 0 0 0 0 0 0 0 0 0 0 0 0 0 0 0 0
0 0 0 0 0 0 0 0 1 2 3 4 6 9 11 11 9 9 10 13 18 24 29 33 35 35 32 27 18 9 4 2 0 0 0 0 0 0 0 0 0 0 0 0 0 0 0 0 0
0 0 0 0 0 0 0 0 1 2 3 3 3 4 6 7 7 8 9 12 14 18 20 21 24 26 27 25 19 10 4 1 0 0 0 0 0 0 0 0 0 0 0 0 0 0 0 0 0
0 0 0 0 0 0 0 0 0 1 2 1 1 1 2 4 6 7 9 12 13 15 15 15 16 17 19 20 17 11 5 2 1 0 0 0 0 0 0 0 0 0 0 0 0 0 0 0 0
0 0 0 0 0 0 0 0 0 0 0 0 1 1 2 3 4 4 7 10 13 13 14 14 15 15 15 15 13 9 5 2 1 0 0 0 0 0 0 0 0 0 0 0 0 0 0 0 0
0 0 0 0 0 0 0 0 0 0 0 1 2 4 4 3 2 2 4 7 10 12 14 16 17 16 13 10 7 6 3 1 0 1 1 1 0 0 0 0 0 0 0 0 0 0 0 0 0
0 0 0 0 0 0 0 0 0 0 0 1 3 5 6 5 3 2 3 5 7 9 11 13 14 13 9 5 4 4 3 1 0 1 2 1 0 0 0 0 0 0 0 0 0 0 0 0 0
0 0 0 0 0 0 0 0 0 0 1 1 2 4 5 5 4 3 3 4 4 5 6 7 9 7 4 3 3 3 2 1 0 1 1 0 0 0 0 0 0 0 0 0 0 0 0 0 0
0 0 0 0 0 0 0 0 0 0 1 1 1 1 2 3 3 3 3 3 3 2 2 3 3 2 1 1 1 1 1 0 0 0 0 0 0 0 0 0 0 0 0 0 0 0 0 0 0
0 0 0 0 0 0 0 0 0 0 1 1 0 0 0 1 2 3 3 3 3 2 1 1 0 0 0 0 0 0 0 0 0 0 0 0 0 0 0 0 0 0 0 0 0 0 0 0 0
0 0 0 0 0 0 0 0 0 0 0 0 0 0 0 1 2 2 1 1 2 1 1 0 0 0 0 0 0 0 0 0 0 0 0 0 0 0 0 0 0 0 0 0 0 0 0 0 0
0 0 0 0 0 0 0 0 0 0 0 0 0 0 0 1 1 1 0 0 1 0 0 0 0 0 0 0 0 0 0 0 0 0 0 0 0 0 0 0 0 0 0 0 0 0 0 0 0

GEFSSGP_con_prob3kmehi_072.txt.gz
EHI
0 0 0 0 0 0 0 0 0 0 0 0 0 0 0 0 0 2 7 13 26 52 69 72 74 73 68 70 73 73 72 69 64 59 54 46 36 29 24 18 12 9 6 5 5 10 15 18 19
0 0 0 0 0 0 0 0 0 0 0 0 0 0 0 0 1 3 9 15 30 55 71 75 80 81 79 77 78 80 79 74 69 65 59 50 41 33 26 19 13 10 8 6 6 9 12 14 14
0 0 0 0 0 0 0 0 0 0 0 0 0 0 0 1 1 6 15 23 35 54 70 80 87 90 90 87 86 87 85 79 74 68 62 55 48 39 29 19 13 11 9 7 7 8 9 10 10
0 0 0 0 0 0 0 0 0 0 0 0 0 0 1 3 5 13 25 30 37 50 67 82 91 94 95 92 88 87 86 82 76 69 62 56 50 41 29 18 11 9 8 7 6 6 7 7 8
0 0 0 0 0 0 0 0 0 0 0 0 0 0 2 5 11 21 28 30 37 50 66 82 92 94 94 90 87 86 86 84 79 71 62 56 49 40 28 17 9 7 7 6 5 5 5 6 7
0 0 0 0 0 0 0 0 0 0 0 0 0 0 2 7 16 27 30 31 41 55 68 81 89 91 88 85 84 85 86 85 81 72 62 52 44 37 27 16 9 7 7 5 5 5 4 5 5
0 0 0 0 0 0 0 0 0 0 0 0 0 0 3 12 25 35 37 38 46 57 68 78 82 82 79 77 78 81 83 85 81 71 58 44 35 30 23 15 10 9 8 6 5 4 3 3 2
0 0 0 0 0 0 0 0 0 0 0 0 0 1 6 18 33 45 49 50 53 58 66 75 77 72 66 63 65 69 73 78 75 63 49 34 23 19 15 12 11 11 8 6 5 4 2 1 0
0 0 0 0 0 0 0 0 0 0 0 0 0 1 7 20 37 52 59 62 62 63 67 73 74 66 51 44 47 49 52 55 50 42 34 22 12 10 9 13 16 12 7 5 4 4 2 0 0
0 0 0 0 0 0 0 0 0 0 0 0 0 1 5 16 34 51 61 65 67 69 69 70 70 62 48 39 39 36 33 30 24 22 22 15 10 7 8 15 18 11 5 4 3 3 1 0 0
0 0 0 0 0 0 0 0 0 0 0 0 0 0 3 12 26 41 50 57 63 68 69 69 69 64 57 51 46 40 34 26 18 20 23 20 16 11 9 12 13 8 4 3 3 2 0 0 0
0 0 0 0 0 0 0 0 0 0 0 0 0 1 3 10 18 26 33 40 51 60 63 66 70 72 71 67 60 53 47 38 32 34 34 27 21 14 11 11 9 5 3 3 3 1 0 0 0
0 0 0 0 0 0 0 0 0 0 0 0 0 1 4 9 13 17 21 29 39 47 53 60 70 77 79 78 73 63 56 50 47 45 37 28 21 15 13 15 13 7 4 4 3 2 1 1 1
0 0 0 0 0 0 0 0 0 0 0 0 0 2 6 12 15 17 20 24 29 35 44 54 66 75 79 80 76 65 58 56 51 44 36 26 20 16 15 17 17 12 9 8 6 3 2 2 2
0 0 0 0 0 0 0 0 0 0 0 1 2 5 10 16 20 21 23 24 24 28 38 49 57 65 72 73 70 61 56 54 50 44 38 29 21 18 20 19 17 15 14 14 10 5 3 2 1
0 0 0 0 0 0 0 0 0 0 1 1 3 6 11 18 23 26 27 27 25 29 39 45 46 51 59 65 64 58 54 54 55 51 45 36 26 22 23 23 20 18 19 17 12 8 5 2 2
0 0 0 0 0 0 0 0 0 1 2 2 3 6 12 19 24 27 29 30 29 33 42 43 38 38 46 55 61 60 57 58 60 59 53 45 35 28 26 26 22 20 22 20 14 13 10 6 4
0 0 0 0 0 0 0 0 0 2 5 7 8 9 12 17 20 21 24 27 28 33 41 40 35 34 38 46 55 57 55 55 59 59 54 47 37 31 30 28 24 23 26 24 18 15 14 9 7
0 0 0 0 0 0 0 0 1 5 9 12 13 13 13 13 12 12 17 22 23 28 36 36 34 37 41 45 50 52 48 47 51 51 47 39 33 32 34 34 30 30 31 27 20 17 16 11 9
0 0 0 0 0 0 0 1 3 6 10 13 13 12 11 9 7 8 11 15 17 21 29 33 34 39 45 49 51 49 44 41 42 42 38 33 29 32 36 37 36 35 35 29 22 20 18 13 11
0 0 0 0 0 0 0 1 2 5 8 10 9 7 6 5 4 5 7 9 11 14 20 26 32 38 44 49 50 46 39 35 34 33 30 25 24 26 28 30 33 36 35 29 23 20 18 14 11
0 0 0 0 0 0 0 0 1 3 6 7 6 4 3 2 2 3 5 7 9 10 12 18 25 33 40 45 44 39 32 28 24 21 17 14 13 13 14 16 21 26 26 21 16 15 14 12 10
0 0 0 0 0 0 0 0 1 2 4 4 4 4 3 3 3 3 4 6 9 10 10 13 19 26 33 37 36 31 25 19 14 11 8 6 5 4 4 6 8 11 11 9 8 9 9 8 7
0 0 0 0 0 0 0 0 0 1 2 2 2 3 4 3 3 3 3 5 8 10 11 12 16 22 25 27 26 21 16 11 7 6 5 3 2 2 2 2 3 4 3 3 3 4 4 3 2
0 0 0 0 0 0 0 1 2 3 4 3 2 2 3 3 3 3 3 5 7 9 11 13 17 20 20 19 17 13 10 7 6 5 3 1 1 2 1 1 2 2 1 1 1 1 1 0 0
0 0 0 0 0 0 0 2 6 7 6 4 3 2 3 4 5 5 5 6 6 7 9 13 16 17 16 14 11 8 6 6 6 5 2 0 0 1 1 0 1 1 0 0 0 0 0 0 0
0 0 0 0 0 0 0 2 7 7 4 2 2 3 5 6 6 5 5 6 6 6 7 10 12 11 9 8 7 5 4 4 4 3 1 0 0 0 0 0 0 0 0 0 0 0 0 0 0
0 0 0 0 0 0 0 1 3 4 3 1 1 3 5 5 5 4 4 5 6 6 6 6 5 5 4 4 4 4 3 3 2 1 0 0 0 0 0 0 0 0 0 0 0 0 0 0 0
0 0 0 0 0 0 0 0 2 6 6 2 1 2 3 4 4 3 3 4 5 5 3 2 1 1 1 2 2 2 2 1 1 0 0 0 0 0 0 0 0 0 0 0 0 0 0 0 0
0 0 0 0 0 0 0 0 2 8 10 4 1 2 2 3 3 3 3 4 4 4 2 0 0 0 1 1 1 1 1 0 0 0 0 0 0 0 0 0 0 0 0 0 0 0 0 0 0

GEFSSGP_con_prob3kmehi_078.txt.gz
EHI
0 0 0 0 0 0 0 0 0 0 0 0 0 0 0 0 1 2 7 31 71 93 93 88 79 60 38 21 11 7 4 3 4 4 2 0 0 1 2 4 5 7 6 5 3 2 2 4 5
0 0 0 0 0 0 0 0 0 0 0 0 0 0 0 0 2 8 18 42 72 88 88 85 79 65 46 27 16 11 7 5 6 6 3 1 1 2 3 4 5 6 5 4 3 2 3 4 4
0 0 0 0 0 0 0 0 0 0 0 0 0 0 0 1 6 19 35 51 69 80 81 84 82 72 57 40 26 19 13 9 8 9 7 5 5 5 5 4 5 5 3 2 2 3 3 3 2
0 0 0 0 0 0 0 0 0 0 0 0 0 1 3 9 18 34 42 47 62 76 80 84 83 75 66 55 42 31 24 17 14 14 13 11 10 7 5 4 4 3 1 1 2 3 2 1 0
0 0 0 0 0 0 0 0 0 0 0 0 0 2 9 21 35 41 35 36 56 77 86 87 82 75 70 65 57 49 40 32 25 24 22 18 14 9 6 4 2 1 0 1 2 2 1 0 0
0 0 0 0 0 0 0 0 0 0 0 0 0 3 16 34 46 43 31 31 52 78 90 89 81 74 71 71 69 66 61 52 44 37 32 26 18 10 7 5 1 0 0 0 1 1 0 0 0
0 0 0 0 0 0 0 0 0 0 0 0 0 4 23 47 56 48 37 36 55 79 91 88 79 71 68 69 72 74 73 68 60 48 36 27 17 7 5 4 2 0 0 0 0 0 0 0 0
0 0 0 0 0 0 0 0 0 0 0 0 0 7 29 54 59 50 41 45 62 81 88 84 75 69 63 61 65 69 70 70 64 49 32 21 10 3 2 4 4 1 0 0 0 0 0 0 0
0 0 0 0 0 0 0 0 0 0 0 0 1 10 31 49 51 44 41 50 69 84 85 75 67 62 55 52 57 61 57 54 49 36 23 13 5 0 0 4 6 3 0 0 0 0 0 0 0
0 0 0 0 0 0 0 0 0 0 0 0 1 11 27 41 41 35 37 51 71 85 83 66 55 51 43 44 56 56 43 34 26 20 15 9 3 1 3 9 11 5 1 0 1 1 0 0 0
0 0 0 0 0 0 0 0 0 0 0 0 1 7 19 31 33 28 31 48 68 83 81 63 49 42 36 44 58 50 36 27 18 15 14 7 3 5 13 20 16 6 1 1 2 2 1 0 0
0 0 0 0 0 0 0 0 0 0 0 0 0 4 12 21 27 26 32 48 68 81 81 69 59 50 46 55 60 45 32 28 25 25 21 12 7 9 20 25 16 6 2 2 3 2 1 0 0
0 0 0 0 0 0 0 0 0 0 0 0 2 6 12 19 25 31 41 56 71 80 81 76 74 70 68 72 66 46 36 33 35 39 34 21 15 16 22 24 17 8 4 3 2 2 1 1 1
0 0 0 0 0 0 0 0 0 0 1 2 6 11 17 22 29 40 53 66 75 78 79 79 82 83 82 80 72 57 48 48 50 55 48 33 28 30 32 32 25 13 8 8 7 6 6 5 4
0 0 0 0 0 0 0 0 0 1 2 6 11 17 22 27 35 48 62 74 78 77 74 74 77 80 82 80 74 66 60 59 64 68 63 47 42 46 47 42 33 19 15 21 20 17 15 11 8
0 0 0 0 0 0 0 0 0 1 4 10 16 21 26 32 40 50 63 74 79 76 71 68 68 72 76 77 72 65 60 60 66 72 68 56 48 51 51 45 37 26 24 28 28 24 20 16 14
0 0 0 0 0 0 0 0 0 2 6 13 20 26 30 34 41 48 58 68 74 73 70 66 64 65 68 69 65 57 51 52 57 61 59 52 46 45 45 43 40 35 31 29 27 25 22 18 16
0 0 0 0 0 0 0 0 1 4 8 16 25 31 33 35 40 44 51 59 66 68 67 65 63 61 60 59 54 45 39 38 41 44 45 43 39 37 36 37 38 39 37 32 28 27 26 19 15
0 0 0 0 0 0 0 1 3 6 10 18 26 32 33 34 35 37 40 45 52 58 59 59 58 56 55 53 46 38 31 28 28 29 31 31 31 30 29 29 32 36 38 37 33 32 28 21 17
0 0 0 0 0 0 0 1 4 8 12 18 25 29 30 28 25 27 29 31 35 42 45 48 50 50 48 48 45 37 28 23 21 20 20 22 25 26 26 28 30 34 39 38 35 33 28 22 20
0 0 0 0 0 0 0 2 6 10 15 19 23 26 25 19 16 18 20 20 22 26 30 34 39 42 42 44 45 38 28 20 18 17 16 18 22 24 25 27 29 31 33 32 31 31 28 23 21
0 0 0 0 0 0 0 2 7 14 16 17 19 21 17 11 9 11 12 13 13 16 19 25 30 33 36 41 42 36 26 18 15 14 13 15 18 20 20 21 22 23 21 21 23 24 24 20 16
0 0 0 0 0 0 0 1 6 13 15 14 15 15 10 7 7 7 9 9 9 9 13 19 24 26 29 34 34 29 21 14 10 9 9 10 12 13 13 13 14 13 12 12 14 16 16 13 8
0 0 0 0 0 0 0 0 3 8 13 15 14 13 10 8 9 9 9 8 6 6 10 15 19 22 25 25 23 19 14 8 5 5 6 7 8 8 6 6 7 6 5 5 7 7 7 5 2
0 0 0 0 0 0 0 0 3 8 14 18 16 12 10 9 9 9 9 8 6 5 8 14 16 17 19 18 16 12 8 5 4 4 6 7 6 5 3 2 1 1 1 1 1 2 2 1 0
0 0 0 0 0 0 0 1 4 9 15 18 15 9 7 7 7 8 9 8 6 5 7 11 13 12 13 13 11 7 5 3 4 5 5 5 4 3 2 1 0 0 0 0 0 0 0 0 0
0 0 0 0 0 0 0 2 4 7 12 13 9 5 5 5 6 7 7 7 7 7 7 8 9 9 9 8 5 3 2 3 3 4 4 3 2 1 1 0 0 0 0 0 0 0 0 0 0
0 0 0 0 0 0 0 1 2 5 8 8 5 4 5 6 6 6 6 5 5 5 5 5 6 6 4 3 2 1 2 3 3 3 3 2 1 0 0 0 0 0 0 0 0 0 0 0 0
0 0 0 0 0 0 0 0 1 4 8 7 4 3 4 5 5 5 4 2 2 2 2 2 2 2 1 1 1 2 2 3 2 2 1 1 0 0 0 0 0 0 0 0 0 0 0 0 0
0 0 0 0 0 0 0 0 1 4 9 8 5 2 2 3 4 4 3 1 0 0 0 0 1 0 1 2 2 2 2 2 1 1 0 0 0 0 0 0 0 0 0 0 0 0 0 0 0

GEFSSGP_con_prob3kmehi_084.txt.gz
EHI
0 0 0 0 0 0 0 0 0 0 0 0 0 1 4 7 5 2 3 11 27 46 56 58 56 48 33 17 8 7 11 17 21 24 28 30 29 28 26 22 14 5 1 0 0 0 0 0 0
0 0 0 0 0 0 0 0 0 0 0 0 0 1 7 14 11 4 5 17 38 57 63 62 61 54 38 21 11 7 7 10 14 16 18 21 23 22 21 16 9 4 2 1 0 0 0 1 1
0 0 0 0 0 0 0 0 0 0 0 0 0 2 9 15 14 8 12 32 54 66 67 67 70 64 47 29 16 8 4 3 5 6 7 10 12 14 13 9 4 2 3 3 1 0 1 2 2
0 0 0 0 0 0 0 0 0 0 0 0 1 6 12 17 19 22 33 53 67 68 66 71 77 71 55 37 22 12 6 3 1 1 2 4 6 7 7 4 1 0 2 3 1 0 1 1 1
0 0 0 0 0 0 0 0 0 0 0 0 3 12 21 28 37 47 57 68 75 73 70 76 80 73 59 43 29 18 11 6 2 1 2 3 4 4 3 2 0 0 0 1 0 0 0 0 0
0 0 0 0 0 0 0 0 0 0 0 0 5 18 30 42 56 66 70 73 79 81 77 77 77 70 61 51 36 25 17 11 5 2 3 3 2 2 1 1 0 0 0 0 0 0 0 0 0
0 0 0 0 0 0 0 0 0 0 0 0 6 19 31 45 62 72 72 75 82 87 85 80 75 69 64 57 46 33 24 17 10 5 3 2 1 0 0 0 0 0 0 0 0 0 0 0 0
0 0 0 0 0 0 0 0 0 0 0 0 5 14 27 44 65 75 78 81 86 89 89 85 80 75 71 65 54 43 32 24 17 9 4 2 0 0 0 0 0 0 0 0 0 0 0 0 0
0 0 0 0 0 0 0 0 0 0 1 3 8 17 34 54 70 78 82 85 88 89 89 88 85 82 79 74 66 56 45 35 26 18 9 4 1 0 0 0 0 0 0 0 0 0 0 0 0
0 0 0 0 0 0 0 0 0 1 2 6 16 30 49 64 70 74 79 83 87 87 85 85 85 83 82 81 79 73 62 50 39 28 17 10 4 1 0 0 0 0 0 0 0 0 0 0 0
0 0 0 0 0 0 0 0 0 1 2 6 18 36 53 63 65 66 70 75 80 83 81 80 80 78 78 81 84 83 76 64 50 36 24 14 6 2 1 0 0 0 0 0 0 0 0 0 0
0 0 0 0 0 0 0 0 0 0 1 4 16 33 48 56 59 59 61 65 71 75 75 73 72 72 73 76 80 82 77 67 53 38 25 14 6 3 1 0 0 0 1 1 1 1 0 0 0
0 0 0 0 0 0 0 0 0 0 1 7 17 30 42 50 53 55 55 59 63 64 63 61 61 62 64 67 72 72 66 57 45 33 22 12 6 2 1 0 0 1 2 2 2 1 0 0 0
0 0 0 0 0 0 0 0 0 0 3 10 19 28 38 45 49 49 51 56 58 54 50 49 49 50 52 57 61 60 53 42 31 23 18 11 5 3 2 0 0 1 3 3 1 1 0 0 0
0 0 0 0 0 0 0 0 0 2 6 13 21 28 34 41 44 44 48 52 53 49 44 42 43 43 44 49 51 49 42 30 19 15 13 9 5 4 3 2 1 2 2 2 1 0 0 0 0
0 0 0 0 0 0 0 0 1 5 12 18 23 28 32 36 38 41 45 48 48 44 40 38 39 39 41 45 46 42 34 23 13 11 11 8 5 4 4 4 2 1 1 1 0 0 0 0 0
0 0 0 0 0 0 0 2 4 10 18 24 26 28 31 32 33 37 41 42 40 38 34 32 32 32 35 41 43 37 28 18 12 10 10 7 4 3 3 3 2 1 0 0 0 0 0 0 0
0 0 0 0 0 0 2 5 7 12 19 25 27 26 26 26 26 27 29 31 31 31 29 27 26 26 28 33 36 33 25 15 10 9 8 5 3 1 1 1 1 1 0 0 0 0 0 0 0
0 0 0 0 0 1 3 5 7 10 17 22 24 21 19 17 16 15 16 18 20 22 23 23 22 21 23 25 27 27 21 13 8 6 5 3 1 0 0 0 0 0 0 0 0 0 0 0 0
0 0 0 0 0 0 2 3 4 8 16 20 19 16 14 12 10 7 7 8 9 12 14 16 16 17 18 20 21 20 15 10 6 6 5 3 2 1 0 0 0 0 0 0 0 0 0 0 0
0 0 0 0 0 0 0 1 2 7 14 18 16 13 12 11 8 5 3 4 4 5 7 10 11 11 13 15 16 14 11 8 6 6 5 4 2 1 0 0 0 0 0 0 0 0 0 0 0
0 0 0 0 0 0 0 0 1 4 9 12 11 10 10 9 7 5 4 3 3 3 4 5 6 7 8 10 11 10 8 6 5 4 3 3 1 0 0 0 0 0 0 0 0 0 0 0 0
0 0 0 0 0 0 0 0 0 1 4 5 5 6 6 6 5 5 4 3 2 2 2 3 4 4 4 6 7 6 6 5 3 2 1 1 0 0 0 0 0 0 0 0 0 0 0 0 0
0 0 0 0 0 0 0 0 0 0 1 1 2 3 4 4 3 3 2 1 1 1 1 3 4 3 3 4 4 4 4 3 1 1 0 0 0 0 0 0 0 0 0 0 0 0 0 0 0
0 0 0 0 0 0 0 0 0 0 0 0 0 2 4 3 1 1 0 0 0 0 1 3 4 4 3 2 1 1 2 1 0 0 0 0 0 0 0 0 0 0 0 0 0 0 0 0 0
0 0 0 0 0 0 0 0 0 0 0 0 0 1 2 2 1 0 0 0 0 0 1 2 3 3 2 1 0 0 0 0 0 0 0 0 0 0 0 0 0 0 0 0 0 0 0 0 0
0 0 0 0 0 0 0 0 0 0 0 0 0 0 1 1 0 0 0 1 0 0 0 2 3 2 1 0 0 0 0 0 0 0 0 0 0 0 0 0 0 0 0 0 0 0 0 0 0
0 0 0 0 0 0 0 0 0 0 0 0 0 0 0 0 0 0 0 0 0 0 0 1 2 1 0 0 0 0 0 0 0 0 0 0 0 0 0 0 0 0 0 0 0 0 0 0 0
0 0 0 0 0 0 0 0 0 0 0 0 0 0 0 0 0 0 0 0 0 0 0 1 1 0 0 0 0 0 0 0 0 0 0 0 0 0 0 0 0 0 0 0 0 0 0 0 0
0 0 0 0 0 0 0 0 0 0 0 0 0 0 0 0 0 0 0 0 0 0 0 0 0 0 0 0 0 0 0 0 0 0 0 0 0 0 0 0 0 0 0 0 0 0 0 0 0

GEFSSGP_con_prob3kmehi_090.txt.gz
EHI
0 0 0 0 0 0 0 0 0 0 0 0 0 0 0 0 0 0 2 16 44 67 73 73 72 68 67 73 81 86 90 92 95 98 95 85 75 69 55 36 20 11 6 3 1 0 1 2 3
0 0 0 0 0 0 0 0 0 0 0 0 0 0 0 0 0 1 5 22 52 73 77 76 75 72 71 75 79 81 84 88 91 93 90 82 75 68 57 41 26 17 13 8 4 2 2 2 3
0 0 0 0 0 0 0 0 0 0 0 0 0 0 1 1 0 1 8 30 62 79 81 79 79 79 77 78 79 79 78 80 83 83 80 76 72 67 61 49 35 27 22 14 9 5 2 2 3
0 0 0 0 0 0 0 0 0 0 0 0 0 2 5 6 3 3 12 36 65 79 80 82 85 84 82 81 82 81 76 73 73 71 69 68 66 65 60 50 39 30 22 16 12 8 4 3 3
0 0 0 0 0 0 0 0 0 0 0 0 2 5 11 12 9 10 19 37 61 75 78 83 89 89 85 84 85 81 75 69 65 60 56 55 56 56 52 43 34 26 17 12 11 10 7 5 4
0 0 0 0 0 0 0 0 0 0 0 1 3 8 17 21 19 20 27 37 54 69 75 81 88 90 87 84 84 82 75 67 59 52 45 41 43 43 39 32 26 19 13 8 7 8 6 4 4
0 0 0 0 0 0 0 0 0 0 1 2 5 10 20 28 31 36 40 43 51 63 73 78 83 85 83 81 83 82 75 65 56 47 38 32 31 29 25 23 19 15 8 4 3 4 5 3 2
0 0 0 0 0 0 0 0 0 0 2 5 9 12 22 35 47 56 57 52 52 58 67 74 79 81 80 79 81 81 75 66 54 43 33 26 21 17 15 15 14 11 5 2 1 3 4 3 1
0 0 0 0 0 0 0 0 0 0 2 8 14 18 30 50 64 69 66 55 49 49 55 65 73 78 79 80 82 82 78 69 56 43 32 25 17 12 11 11 10 7 4 1 2 3 3 1 0
0 0 0 0 0 0 0 0 0 0 2 6 12 21 40 60 68 67 62 53 45 41 44 52 63 73 79 82 84 85 82 74 62 50 39 31 22 15 11 10 8 5 2 1 1 2 2 1 0
0 0 0 0 0 0 0 0 0 0 1 3 7 19 41 58 60 55 51 47 41 38 41 44 52 64 74 78 82 82 80 76 69 60 51 41 30 20 13 9 6 4 2 2 2 2 1 0 0
0 0 0 0 0 0 0 0 0 0 1 4 9 20 39 52 52 44 39 37 38 41 43 42 45 55 64 69 73 73 72 72 70 65 57 46 35 24 14 7 4 3 2 2 2 1 0 0 0
0 0 0 0 0 0 0 0 0 1 4 9 17 27 39 46 44 37 32 31 35 41 43 42 45 51 56 60 63 65 66 67 67 63 56 46 36 26 16 7 2 1 1 1 1 0 0 0 0
0 0 0 0 0 0 1 1 1 3 8 16 24 30 34 37 36 32 28 29 32 36 39 41 44 49 52 54 56 59 61 62 61 57 52 44 34 25 17 10 5 2 0 0 0 0 0 0 1
0 0 0 0 0 0 1 2 2 5 12 20 26 29 30 30 28 25 22 23 26 30 34 37 41 46 48 48 49 53 55 55 53 51 47 40 31 23 17 12 8 5 3 1 0 0 0 0 1
0 0 0 0 0 0 1 1 2 5 12 19 22 25 26 25 22 18 15 15 19 26 32 36 39 42 42 41 41 44 45 45 44 43 39 33 27 21 17 12 8 7 6 2 0 0 0 0 1
0 0 0 0 0 0 0 1 2 4 8 12 14 16 18 17 14 12 11 12 14 21 29 34 36 36 34 33 32 33 34 35 34 32 29 27 25 20 16 11 6 5 5 2 0 0 0 0 0
0 0 0 0 0 0 0 1 2 2 3 5 7 8 8 8 7 8 10 11 13 17 23 28 28 27 26 26 27 27 27 27 25 21 20 21 20 17 14 10 4 3 3 1 0 0 0 0 0
0 0 0 0 0 0 0 1 1 0 0 2 4 5 4 3 4 5 7 8 10 12 16 19 19 18 18 21 23 23 22 20 17 15 13 12 11 11 10 7 3 1 1 0 0 0 0 0 0
0 0 0 0 0 0 0 1 0 0 1 2 3 4 3 3 2 3 4 4 5 7 9 10 11 12 13 15 17 17 15 13 11 9 7 5 5 6 5 3 1 0 0 0 0 0 0 0 0
0 0 0 0 0 0 0 0 0 0 1 2 3 4 3 2 1 2 2 1 1 2 3 4 6 8 11 12 12 13 12 9 6 4 3 2 3 3 2 1 1 1 1 0 0 0 0 0 0
0 0 0 0 0 0 0 0 0 0 0 1 2 3 3 1 0 1 1 1 1 1 1 1 2 5 8 9 10 11 10 8 4 1 1 1 1 2 1 1 2 2 1 0 0 0 0 0 0
0 0 0 0 0 0 0 0 0 0 0 0 1 2 2 1 0 0 0 1 2 2 2 1 1 3 5 6 7 7 6 4 2 0 0 0 0 0 0 1 1 1 1 0 0 0 0 0 0
0 0 0 0 0 0 0 0 0 0 0 0 1 1 1 0 0 0 0 1 1 2 3 2 1 2 3 3 3 2 2 1 0 0 0 0 0 0 0 0 0 0 0 0 0 0 0 0 0
0 0 0 0 0 0 0 0 0 0 0 0 0 0 0 0 0 0 0 0 0 1 3 3 2 2 3 2 1 0 0 0 0 0 0 0 0 0 0 0 0 0 0 0 0 0 0 0 0
0 0 0 0 0 0 0 0 0 0 0 0 0 0 0 0 0 0 0 0 0 1 2 2 2 2 1 1 0 0 0 0 0 0 0 0 0 0 0 0 0 0 0 0 0 0 0 0 0
0 0 0 0 0 0 0 0 0 0 0 0 0 0 0 0 0 0 0 0 0 0 1 1 2 1 0 0 0 0 0 0 0 0 0 0 0 0 0 0 0 0 0 0 0 0 0 0 0
0 0 0 0 0 0 0 0 0 0 0 0 0 0 0 0 0 0 0 0 0 0 0 0 0 0 0 0 0 0 0 0 0 0 0 0 0 0 0 0 0 0 0 0 0 0 0 0 0
0 0 0 0 0 0 0 0 0 0 0 0 0 0 0 0 0 0 0 0 0 0 0 0 0 0 0 0 0 0 0 0 0 0 0 0 0 0 0 0 0 0 0 0 0 0 0 0 0
0 0 0 0 0 0 0 0 0 0 0 0 0 0 0 0 0 0 0 0 0 0 0 0 0 0 0 0 0 0 0 0 0 0 0 0 0 0 0 0 0 0 0 0 0 0 0 0 0

GEFSSGP_con_prob3kmehi_096.txt.gz
EHI
0 0 0 0 0 0 0 0 0 0 0 0 0 0 0 0 0 0 3 14 32 50 55 47 45 49 53 60 68 71 70 67 62 56 53 48 38 29 21 14 11 11 9 8 11 14 14 14 15
0 0 0 0 0 0 0 0 0 0 0 0 0 0 0 0 0 0 4 16 31 45 50 47 48 53 59 66 72 76 78 79 76 69 63 56 46 37 29 20 15 13 12 11 12 13 13 15 17
0 0 0 0 0 0 0 0 0 0 1 1 1 1 2 3 2 2 9 21 29 34 41 49 55 59 66 72 76 80 86 91 91 85 76 68 58 48 39 29 21 18 17 15 14 17 18 16 15
0 0 0 0 0 0 0 0 0 0 1 2 2 3 7 8 7 7 14 22 24 23 31 45 56 61 67 73 77 81 87 94 96 93 88 80 68 58 49 38 28 24 22 20 20 24 24 18 14
0 0 0 0 0 0 0 0 0 0 0 1 2 7 15 18 13 12 16 19 17 16 25 40 48 50 56 67 75 80 85 91 94 93 92 88 79 69 59 47 37 32 28 25 26 27 25 19 14
0 0 0 0 0 0 0 0 0 0 2 4 6 13 26 29 20 14 16 16 13 13 24 37 37 32 37 52 68 77 84 87 89 90 90 88 83 75 66 55 45 38 32 27 27 25 21 17 13
0 0 0 0 0 0 0 0 0 3 7 10 12 18 33 39 28 19 20 20 16 15 23 30 26 19 21 33 48 64 76 83 86 86 85 81 76 68 60 53 47 41 33 26 22 19 16 12 9
0 0 0 0 0 0 0 0 2 7 16 22 23 28 42 47 37 29 29 28 24 21 22 23 18 13 12 17 27 42 59 71 75 75 72 64 54 46 40 40 43 40 31 23 16 13 11 8 5
0 0 0 0 0 0 0 1 3 9 20 32 40 45 52 53 46 40 41 38 32 28 24 21 18 14 12 16 22 28 36 46 50 51 49 39 27 22 23 33 43 36 25 17 11 9 8 5 2
0 0 0 0 0 0 0 1 4 7 17 33 47 54 56 54 48 44 44 43 38 33 28 23 21 20 21 27 33 30 28 30 30 31 32 25 19 15 22 40 45 31 18 13 10 8 6 2 0
0 0 0 0 0 0 0 2 4 7 14 26 38 47 51 49 43 39 40 41 41 37 32 27 27 28 30 39 45 43 41 41 36 35 37 35 33 29 32 43 41 26 15 12 11 9 4 1 0
0 0 0 0 0 0 0 2 6 9 12 17 25 35 41 41 38 37 38 41 41 37 33 32 35 37 40 46 51 52 55 57 55 55 54 53 51 44 42 45 39 26 18 16 15 10 6 3 1
0 0 0 0 0 0 0 1 5 7 8 9 15 27 35 37 38 39 40 41 41 36 31 33 39 43 48 52 52 50 55 60 63 66 67 66 63 55 50 52 47 35 25 23 19 14 11 8 6
0 0 0 0 0 0 0 1 3 5 4 4 11 23 32 34 35 35 33 34 37 34 30 31 36 42 48 51 48 45 50 56 60 65 68 69 67 61 57 57 55 47 36 31 25 19 16 15 12
0 0 0 0 0 0 0 0 2 3 2 2 8 19 26 27 27 25 22 21 23 25 26 27 29 37 45 46 44 44 46 51 55 59 63 65 65 64 61 59 57 52 47 45 40 32 27 24 21
0 0 0 0 0 0 0 0 1 2 1 1 5 12 17 18 19 19 18 16 15 17 21 23 24 31 42 46 45 43 44 48 53 56 56 56 57 59 59 59 58 57 55 55 53 49 44 36 29
0 0 0 0 0 0 0 0 0 1 2 2 4 7 10 11 13 15 16 16 16 18 22 23 24 29 38 45 46 44 43 47 53 54 50 46 46 49 52 56 57 55 56 58 57 58 56 47 38
0 0 0 0 0 0 0 0 1 2 3 4 3 4 5 6 7 9 11 13 17 21 23 24 26 29 34 40 43 43 42 45 47 47 42 37 36 38 42 47 49 48 50 56 57 57 57 50 43
0 0 0 0 0 0 0 0 1 2 3 3 2 3 4 4 4 4 5 8 12 17 19 20 22 26 31 36 38 38 39 39 39 37 33 30 28 28 31 37 41 42 45 49 51 52 50 42 36
0 0 0 0 0 0 0 0 1 3 4 3 2 4 5 4 3 3 3 5 8 11 12 13 15 20 25 28 29 29 30 31 29 28 26 24 21 20 23 30 33 36 40 41 42 40 37 30 23
0 0 0 0 0 0 0 0 2 4 4 3 3 5 6 5 4 4 3 4 7 9 9 9 12 15 19 20 21 21 22 21 19 20 22 20 16 15 19 24 27 30 33 36 34 28 24 19 14
0 0 0 0 0 0 0 0 2 2 2 2 4 6 7 6 6 5 4 5 8 9 9 10 11 13 14 15 15 16 16 15 14 17 18 17 14 13 15 20 24 26 27 28 25 20 17 14 11
0 0 0 0 0 0 0 0 1 1 1 2 4 6 7 6 6 5 4 5 7 8 9 9 10 10 11 11 12 13 13 13 14 15 16 14 13 13 14 17 20 22 23 22 19 17 16 14 12
0 0 0 0 0 0 0 0 0 0 0 1 4 6 7 6 6 4 2 3 5 6 6 7 8 8 8 7 8 10 11 12 12 12 12 11 11 12 13 13 14 15 17 18 17 16 15 12 11
0 0 0 0 0 0 0 0 0 0 0 1 3 6 6 6 6 3 2 2 2 3 4 4 4 4 4 4 5 8 9 8 7 7 8 8 8 9 9 8 8 8 10 12 13 12 9 7 7
0 0 0 0 0 0 0 0 1 0 0 1 3 4 5 6 5 3 2 1 1 1 2 2 2 1 1 1 2 5 5 5 3 3 4 6 6 6 6 5 3 3 4 6 7 8 6 4 4
0 0 0 0 0 0 0 0 0 0 0 1 2 3 3 4 3 2 1 1 0 0 1 1 1 1 1 0 0 1 2 1 1 1 2 3 4 4 3 2 1 1 2 4 5 5 4 3 2
0 0 0 0 0 0 0 0 0 0 0 1 2 2 1 1 2 1 0 0 0 0 0 0 1 1 1 0 0 0 0 0 0 0 1 1 1 1 1 0 0 0 1 2 3 4 3 1 0
0 0 0 0 0 0 0 0 0 0 1 3 3 1 0 1 2 1 0 0 0 0 0 0 1 1 0 0 0 0 0 0 0 0 0 0 0 0 0 0 0 0 0 1 2 2 2 1 0
0 0 0 0 0 0 0 0 0 0 1 3 4 2 0 1 2 1 0 0 0 0 0 0 1 0 0 0 0 0 0 0 0 0 0 0 0 0 0 0 0 0 0 0 1 1 1 0 0

GEFSSGP_con_prob3kmehi_102.txt.gz
EHI
0 0 0 0 0 0 0 0 0 0 0 0 0 2 5 7 6 8 22 50 65 59 50 48 44 31 15 6 1 0 0 0 0 0 0 0 0 1 2 2 1 0 0 0 0 0 0 0 0
0 0 0 0 0 0 0 0 0 0 0 0 0 3 7 10 9 10 27 52 58 47 39 40 39 29 15 6 2 1 0 0 0 0 0 0 0 0 1 1 1 0 0 0 0 0 0 0 1
0 0 0 0 0 0 0 0 0 0 0 0 2 7 12 14 12 14 30 48 47 36 33 36 36 29 17 8 5 4 3 2 2 1 1 2 2 1 1 1 0 0 1 1 1 1 1 1 1
0 0 0 0 0 0 0 0 0 0 0 2 9 19 23 22 18 17 27 39 40 35 35 37 37 32 22 13 9 8 8 7 7 6 6 7 7 6 3 2 1 1 1 2 3 3 3 2 1
0 0 0 0 0 0 0 0 0 0 1 6 18 32 36 32 25 18 21 32 40 40 38 38 41 38 28 18 13 12 13 14 16 16 16 16 15 12 8 5 4 3 1 2 4 4 3 2 1
0 0 0 0 0 0 0 0 0 0 2 10 25 38 41 38 29 18 17 29 42 45 37 35 39 38 31 23 19 18 19 23 28 31 30 27 23 17 11 8 7 4 1 1 4 5 3 2 1
0 0 0 0 0 0 0 0 0 1 7 16 28 38 40 38 33 24 23 33 44 45 34 27 28 29 27 26 26 27 29 32 37 40 39 34 26 17 10 8 7 5 2 2 4 5 3 2 1
0 0 0 0 0 0 0 0 2 6 16 25 31 36 40 39 37 34 33 39 45 41 31 21 19 19 18 22 26 29 32 35 36 36 34 28 19 11 6 8 11 10 4 2 3 3 2 1 0
0 0 0 0 0 0 0 1 4 12 22 29 32 35 39 40 38 37 41 48 50 43 31 23 19 16 13 17 22 23 25 27 26 24 22 16 8 3 4 14 25 20 8 2 1 2 1 0 0
0 0 0 0 0 0 0 3 8 15 23 29 32 35 36 36 33 35 45 55 56 49 37 30 28 23 21 24 24 19 17 18 15 13 13 8 3 2 10 30 45 33 14 4 2 2 1 0 0
0 0 0 0 0 0 1 6 12 17 21 25 29 32 32 30 29 33 45 57 58 51 43 39 39 38 37 39 32 22 21 22 18 17 18 10 4 8 23 47 55 41 19 8 5 3 1 0 0
0 0 0 0 0 0 2 7 13 17 19 21 25 27 28 30 31 36 45 56 58 51 44 42 45 47 50 52 44 32 33 37 36 40 39 24 12 15 33 52 54 38 22 14 10 5 2 1 1
0 0 0 0 0 0 1 6 11 12 14 18 22 24 28 34 38 40 46 53 56 52 44 43 48 53 59 62 55 44 46 51 55 61 60 44 29 29 41 54 52 36 24 21 17 10 6 6 6
0 0 0 0 0 0 1 5 7 8 10 15 20 24 27 31 34 40 46 48 49 47 46 46 51 60 67 67 60 54 55 60 65 71 70 58 51 49 53 60 56 41 30 29 24 18 17 17 15
0 0 0 0 0 0 1 4 5 5 6 12 18 21 23 23 25 33 40 41 40 42 46 48 51 60 66 65 61 60 64 67 71 74 73 66 61 61 62 64 61 49 41 39 35 31 30 30 29
0 0 0 0 0 0 1 3 3 3 5 11 17 19 19 19 19 24 29 30 31 36 45 46 47 55 62 61 60 61 65 70 72 73 74 69 63 63 64 64 62 57 53 50 45 42 41 37 35
0 0 0 0 0 0 1 3 2 2 7 13 18 18 17 17 17 18 19 19 22 31 40 42 44 51 57 59 60 60 63 68 69 70 71 68 61 59 60 61 61 58 56 54 50 48 44 37 33
0 0 0 0 0 0 1 2 1 3 9 15 18 18 17 16 16 14 13 14 18 27 35 38 42 48 53 58 60 60 61 63 64 65 65 61 56 51 52 54 55 54 52 50 50 47 41 33 28
0 0 0 0 0 0 1 2 3 6 12 16 19 19 17 15 14 12 11 13 17 22 28 32 36 40 45 52 57 58 58 58 57 58 56 51 46 43 44 46 47 47 45 44 44 42 36 29 25
0 0 0 0 0 0 0 2 7 11 14 18 21 21 18 14 12 10 10 13 15 17 21 25 28 32 39 47 52 54 55 53 51 52 51 43 36 33 36 39 41 41 40 39 39 38 33 27 23
0 0 0 0 0 0 0 4 10 13 14 17 20 20 17 13 10 9 9 11 12 13 16 19 24 28 34 42 48 51 52 50 47 45 43 36 29 25 27 31 34 35 33 34 35 35 32 28 26
0 0 0 0 0 0 0 4 10 13 12 13 15 15 14 13 9 8 9 9 9 11 13 17 21 24 28 34 39 42 43 43 40 36 33 30 26 21 19 22 27 29 27 28 30 31 30 29 28
0 0 0 0 0 0 0 2 7 10 9 9 10 11 13 13 10 8 8 8 8 9 11 14 17 19 21 24 26 27 28 29 28 27 25 25 24 22 18 19 22 25 25 25 25 24 23 25 26
0 0 0 0 0 0 0 1 4 6 5 7 11 12 12 12 9 6 6 6 7 8 10 12 13 14 15 16 17 17 17 18 20 20 18 19 20 20 18 19 21 22 24 24 22 18 17 19 20
0 0 0 0 0 0 0 1 3 4 4 9 15 14 13 11 7 3 2 3 4 6 8 9 10 10 11 11 12 13 14 15 16 15 13 13 14 14 14 16 18 19 21 20 18 15 13 13 14
0 0 0 0 0 0 0 1 3 5 7 13 18 16 13 10 5 1 0 1 3 4 5 6 7 8 8 8 9 10 11 11 11 10 9 9 10 9 9 10 12 14 15 14 12 11 10 9 10
0 0 0 0 0 0 0 1 3 6 10 15 16 16 13 9 4 1 0 1 2 2 2 2 2 4 5 5 5 5 6 6 5 5 5 6 6 6 6 5 6 8 8 8 8 8 8 7 6
0 0 0 0 0 0 0 0 2 4 8 11 13 13 11 8 5 2 1 1 1 1 1 1 1 1 2 2 2 1 1 1 2 2 3 3 3 3 3 2 2 3 4 4 4 5 5 5 4
0 0 0 0 0 0 0 0 0 2 5 9 12 13 11 9 6 3 1 0 0 1 2 2 1 1 1 1 1 0 0 0 1 1 1 1 1 1 1 1 0 1 1 1 1 2 3 3 3
0 0 0 0 0 0 0 0 1 3 7 11 15 14 12 10 7 4 1 0 0 1 1 1 1 0 0 0 0 0 0 0 0 0 0 0 0 0 0 0 0 0 0 0 0 0 1 1 1

GEFSSGP_con_prob3kmehi_108.txt.gz
EHI
0 0 0 0 0 0 0 0 0 0 1 7 17 29 37 35 24 13 6 15 42 56 47 40 44 46 41 33 26 20 19 22 25 26 29 31 30 25 19 13 8 5 3 2 2 1 0 0 0
0 0 0 0 0 0 0 0 0 0 2 10 23 35 41 38 29 19 11 23 51 62 51 45 49 50 43 35 28 21 17 19 22 22 22 23 22 18 15 11 7 4 2 1 1 0 0 0 0
0 0 0 0 0 0 0 0 0 1 5 15 28 38 41 35 28 20 17 33 58 65 56 54 60 58 46 36 29 20 13 12 14 14 12 11 10 10 9 7 4 2 1 0 0 0 0 0 0
0 0 0 0 0 0 0 0 0 3 13 25 35 41 39 30 23 21 25 39 60 66 59 59 66 62 48 36 28 20 12 8 9 7 4 3 3 3 4 4 2 1 0 0 0 1 1 0 0
0 0 0 0 0 0 0 0 2 9 21 34 44 47 43 31 28 32 33 42 59 66 62 62 66 62 51 39 29 21 14 10 8 4 1 0 0 1 2 2 1 0 0 0 0 1 1 0 0
0 0 0 0 0 0 0 2 8 16 24 33 42 46 41 33 34 37 37 42 55 61 61 60 61 58 51 43 32 23 16 12 8 4 1 0 0 1 2 1 1 0 0 0 0 0 0 0 0
0 0 0 0 0 0 1 5 14 19 23 26 31 35 35 34 35 35 35 41 50 53 53 53 50 47 46 43 34 24 17 12 8 4 1 1 1 1 1 0 0 0 0 0 0 0 0 0 0
0 0 0 0 0 0 2 8 17 22 23 24 26 30 35 37 38 37 37 41 46 45 42 41 38 36 37 37 32 24 17 13 9 5 3 3 2 1 0 0 0 0 0 0 0 0 0 0 0
0 0 0 0 0 1 4 10 19 25 27 28 30 35 39 41 41 40 39 39 40 37 31 29 27 27 28 29 28 23 17 12 9 6 4 4 2 1 1 1 1 1 0 0 0 0 0 0 0
0 0 0 0 0 2 6 11 18 26 30 31 35 40 42 41 40 38 35 32 31 27 22 19 19 20 22 22 22 20 15 10 8 6 4 3 2 1 1 1 2 2 1 0 0 1 1 1 0
0 0 0 0 0 3 8 11 16 22 25 27 32 38 39 36 33 31 27 24 22 20 18 16 15 15 15 16 17 15 12 10 8 7 6 3 1 0 0 1 1 3 3 1 2 3 3 2 1
0 0 0 0 0 3 8 12 15 17 18 22 27 30 30 27 25 23 21 20 18 16 17 16 14 12 11 13 14 12 10 8 8 9 8 5 3 1 0 0 1 3 5 4 3 3 3 2 1
0 0 0 1 2 3 7 11 13 15 18 22 25 26 24 21 19 17 17 16 15 14 14 14 12 11 11 11 10 9 6 5 6 7 7 7 5 2 1 1 2 3 5 5 4 2 1 1 0
0 0 0 1 3 3 7 10 10 11 17 21 23 22 22 19 16 14 12 13 12 10 10 10 8 8 10 10 9 7 5 5 6 5 6 7 6 3 3 5 4 3 3 3 2 1 0 0 0
0 0 0 1 1 2 6 8 6 8 14 19 19 19 18 16 13 11 10 10 10 8 6 6 5 5 8 11 10 8 7 9 9 7 7 9 7 5 6 8 7 4 2 1 1 0 0 0 1
0 0 0 0 0 1 4 6 7 9 15 19 18 15 13 10 7 7 6 7 8 7 5 5 7 8 9 9 10 9 9 11 11 11 12 12 9 7 8 11 10 7 5 3 2 1 1 1 2
0 0 0 0 1 2 4 7 11 15 19 19 16 12 8 4 2 2 3 4 5 5 3 4 8 10 10 8 8 10 12 14 14 14 16 16 13 11 12 13 12 10 8 6 5 4 2 1 2
0 0 0 0 1 4 6 10 16 21 21 17 12 9 6 2 0 0 1 3 4 3 2 3 5 7 8 8 10 12 15 16 14 13 14 16 15 16 18 18 16 14 11 9 8 7 4 2 2
0 0 0 0 1 4 8 12 16 19 18 15 12 10 8 5 2 1 1 2 3 3 2 2 4 5 5 7 10 13 14 12 9 7 8 10 11 16 20 20 18 15 12 11 10 9 5 3 3
0 0 0 0 1 5 9 11 13 14 15 15 14 12 10 9 7 4 3 4 5 5 4 4 5 4 4 5 7 9 10 8 7 5 5 4 6 10 14 16 16 15 14 12 11 9 6 4 2
0 0 0 0 2 5 7 8 10 13 15 15 14 12 10 11 11 9 7 7 7 6 5 5 5 4 4 4 5 7 8 8 8 6 4 3 3 5 7 8 10 12 12 10 9 7 4 2 1
0 0 0 0 1 2 3 5 8 13 14 13 12 11 10 11 12 10 8 8 7 6 6 6 6 6 6 5 6 7 8 8 7 6 6 4 3 4 5 5 6 8 8 6 6 4 3 1 0
0 0 0 0 0 0 0 1 4 8 9 10 11 11 10 11 10 8 7 6 6 6 6 6 6 6 6 6 5 6 6 6 5 6 7 6 5 5 6 6 6 7 6 4 4 3 2 1 0
0 0 0 0 0 0 0 0 1 2 5 9 12 11 10 9 6 5 4 4 3 4 4 3 3 3 3 3 3 3 4 4 3 4 6 6 5 5 5 6 6 6 5 3 3 3 3 2 1
0 0 0 0 0 0 0 0 0 0 3 9 13 12 9 7 4 3 2 1 1 2 2 1 1 1 1 1 1 1 1 1 1 2 3 4 3 3 3 3 2 3 2 2 3 4 4 3 1
0 0 0 0 0 0 0 0 0 1 4 9 11 11 8 5 3 2 1 0 0 1 1 0 0 0 0 0 0 0 0 0 0 1 1 2 2 2 1 1 0 0 1 1 2 3 4 3 2
0 0 0 0 0 0 0 0 0 2 4 6 8 8 5 3 2 1 0 0 0 0 0 0 0 0 0 0 0 0 0 0 0 0 0 0 0 0 0 0 0 0 0 0 0 1 2 2 2
0 0 0 0 0 0 0 0 0 1 3 4 5 5 3 1 1 1 0 0 0 0 0 0 0 0 0 0 0 0 0 0 0 0 0 0 0 0 0 0 0 0 0 0 0 0 0 1 1
0 0 0 0 0 0 0 0 0 0 1 2 3 3 1 0 1 1 1 0 0 0 0 0 0 0 0 0 0 0 0 0 0 0 0 0 0 0 0 0 0 0 0 0 0 0 0 0 0
0 0 0 0 0 0 0 0 0 1 2 2 1 1 0 0 1 2 1 0 0 0 0 0 0 0 0 0 0 0 0 0 0 0 0 0 0 0 0 0 0 0 0 0 0 0 0 0 0

GEFSSGP_con_prob3kmehi_114.txt.gz
EHI
0 0 0 0 0 0 0 0 0 0 1 4 11 15 17 13 7 4 5 14 28 31 21 18 23 34 47 58 67 74 77 74 70 66 62 56 46 33 19 7 2 1 0 0 0 1 1 0 0
0 0 0 0 0 0 0 0 0 1 2 6 14 21 21 15 10 9 10 19 33 35 23 18 24 35 47 56 62 67 69 68 66 62 59 54 46 35 24 12 5 3 1 0 0 1 1 0 0
0 0 0 0 0 0 0 0 0 1 4 9 18 23 22 16 13 14 18 28 42 40 28 23 29 39 50 56 57 57 58 60 61 59 56 51 43 35 28 19 11 6 4 2 2 2 1 0 0
0 0 0 0 0 0 0 0 0 1 5 15 23 25 25 20 17 21 28 38 48 44 34 31 38 46 53 55 51 47 48 52 55 54 51 46 40 33 27 22 15 11 8 6 4 3 2 1 1
0 0 0 0 0 0 0 0 0 1 6 16 24 29 32 28 25 29 37 44 49 48 41 40 46 51 53 50 46 41 40 45 46 43 40 38 33 28 24 21 17 13 9 7 5 4 4 3 3
0 0 0 0 0 0 0 0 1 4 7 12 21 28 32 29 28 32 40 46 49 52 51 50 51 53 51 48 44 40 38 39 37 31 28 27 25 22 19 17 15 12 9 6 5 5 6 6 7
0 0 0 0 0 0 0 0 2 5 7 10 16 24 28 28 28 32 39 46 49 52 56 56 56 57 54 49 44 39 36 35 32 26 22 19 18 16 14 13 13 12 10 7 6 6 7 8 9
0 0 0 0 0 0 0 1 3 6 9 11 16 23 29 32 35 39 43 46 46 47 51 54 55 55 53 48 44 38 32 30 27 23 18 16 14 13 11 11 11 12 10 8 6 7 9 10 10
0 0 0 0 0 0 0 2 3 7 13 19 23 28 36 42 44 47 47 45 42 40 41 43 44 46 46 45 41 35 27 23 21 17 14 13 11 9 8 7 8 9 7 6 5 6 9 10 8
0 0 0 0 0 0 2 4 4 7 15 23 29 36 43 46 45 44 43 40 36 33 31 32 34 37 41 42 38 30 23 17 15 12 8 8 7 5 4 4 5 5 4 3 3 4 6 6 4
0 0 0 0 0 1 3 6 7 9 12 18 27 37 41 40 37 35 33 30 28 27 27 26 28 31 35 36 33 25 17 12 10 6 4 4 4 3 1 2 3 3 3 3 2 3 3 2 1
0 0 0 0 0 1 4 7 10 11 11 14 22 29 32 31 28 25 21 19 19 21 23 21 20 22 24 27 26 19 12 9 7 5 3 4 3 2 1 1 1 1 2 2 2 2 2 1 1
0 0 0 0 0 2 5 8 10 10 11 14 17 19 23 24 21 15 10 9 10 12 14 13 12 11 14 17 17 13 10 8 6 5 4 4 4 3 2 2 1 1 2 2 2 2 2 2 2
0 0 0 0 0 2 5 7 8 7 10 13 15 15 17 18 15 9 6 5 5 4 5 6 6 7 9 11 11 9 8 8 6 5 5 4 4 4 3 2 1 2 3 2 1 1 1 1 2
0 0 0 0 0 1 4 6 5 5 9 13 15 14 14 12 10 7 6 6 6 4 3 4 4 6 8 8 7 6 6 6 5 5 4 4 4 4 3 2 2 3 3 3 2 1 0 0 1
0 0 0 0 0 0 2 4 4 6 10 13 12 11 10 8 6 5 4 6 6 4 2 2 2 3 4 4 3 3 3 3 3 4 4 4 4 3 2 2 2 4 4 3 3 2 1 0 0
0 0 0 0 0 0 1 3 5 7 10 10 8 6 6 5 4 2 1 2 2 2 1 1 1 0 1 1 1 1 2 1 1 2 2 2 3 2 1 2 2 3 3 3 3 3 1 0 0
0 0 0 0 0 0 1 3 5 7 8 7 5 4 3 2 1 0 0 0 0 0 0 0 0 0 0 0 0 1 2 1 0 1 1 1 1 1 1 1 1 1 1 2 3 2 1 0 0
0 0 0 0 0 0 0 2 3 5 6 6 4 4 3 1 1 0 0 0 0 0 0 0 0 0 0 0 0 1 2 1 0 0 0 0 0 0 0 0 0 0 0 0 1 1 1 0 0
0 0 0 0 1 1 1 1 1 2 3 3 4 4 4 3 2 1 1 1 1 0 0 0 0 0 0 0 0 0 1 1 0 0 0 0 0 0 0 0 0 0 0 0 0 0 0 0 0
0 0 0 0 1 2 2 1 1 0 0 1 3 5 5 4 3 2 2 1 1 0 0 0 0 0 0 0 0 0 0 0 0 0 0 0 0 0 0 0 0 0 0 0 0 0 0 1 1
0 0 0 0 1 1 1 1 1 1 1 1 3 5 5 4 4 3 2 1 0 0 0 0 0 0 0 0 0 0 0 0 0 0 0 0 0 0 0 0 0 0 0 0 0 0 0 1 2
0 0 0 0 0 0 0 0 1 2 3 3 4 6 6 5 5 4 1 0 0 0 0 0 0 0 0 0 0 0 0 0 0 0 0 0 0 0 0 0 0 0 0 0 0 0 0 1 2
0 0 0 0 0 0 0 0 0 1 2 3 5 8 8 7 6 4 2 0 0 0 0 0 0 0 0 0 0 0 0 0 0 0 0 0 0 0 0 0 0 0 0 0 0 0 0 0 1
0 0 0 0 0 0 0 0 0 0 1 3 5 8 8 7 5 3 1 0 0 0 0 0 0 0 0 0 0 0 0 0 0 0 0 0 0 0 0 0 0 0 0 0 0 0 0 0 0
0 0 0 0 0 0 0 0 0 0 0 2 4 6 6 5 3 1 0 0 0 0 0 0 0 0 0 0 0 0 0 0 0 0 0 0 0 0 0 0 0 0 0 0 0 0 0 0 0
0 0 0 0 0 0 0 0 0 0 1 2 4 4 5 4 1 0 0 0 0 0 0 0 0 0 0 0 0 0 0 0 0 0 0 0 0 0 0 0 0 0 0 0 0 0 0 0 0
0 0 0 0 0 0 0 0 0 1 2 3 4 4 4 3 1 0 0 0 0 0 0 0 0 0 0 0 0 0 0 0 0 0 0 0 0 0 0 0 0 0 0 0 0 0 0 0 0
0 0 0 0 0 0 0 0 0 1 2 3 3 4 3 1 1 0 0 0 0 0 0 0 0 0 0 0 0 0 0 0 0 0 0 0 0 0 0 0 0 0 0 0 0 0 0 0 0
0 0 0 0 0 0 0 0 0 0 1 3 3 3 2 1 0 0 0 0 0 0 0 0 0 0 0 0 0 0 0 0 0 0 0 0 0 0 0 0 0 0 0 0 0 0 0 0 0

GEFSSGP_con_prob3kmehi_120.txt.gz
EHI
0 0 0 0 0 0 0 0 0 0 0 1 3 4 6 8 8 6 3 2 5 9 9 8 10 13 20 32 44 49 46 41 36 31 23 14 10 8 6 6 5 4 2 1 0 0 0 1 1
0 0 0 0 0 0 0 0 0 0 0 1 4 7 8 9 8 7 6 4 5 7 8 9 13 18 25 36 47 53 53 48 44 37 27 17 13 11 8 5 4 3 3 1 0 0 0 0 1
0 0 0 0 0 0 0 0 0 0 0 1 5 7 8 8 7 9 11 9 6 7 9 14 20 26 34 43 50 56 59 56 51 44 33 23 19 17 12 7 4 4 4 2 1 0 0 0 0
0 0 0 0 0 0 0 0 0 0 0 2 4 7 9 9 7 13 18 15 10 10 12 17 22 29 38 45 49 53 55 54 51 46 39 32 28 24 18 11 7 6 6 4 1 0 0 0 0
0 0 0 0 0 0 0 0 0 0 1 3 6 9 11 11 13 19 24 19 13 12 15 18 21 25 33 40 43 46 49 49 47 44 41 39 35 28 21 15 12 10 9 5 1 0 0 0 0
0 0 0 0 0 0 0 0 0 0 2 4 7 11 13 14 18 24 26 22 16 15 17 18 17 17 24 31 36 40 45 47 45 42 40 40 35 27 21 17 14 11 9 5 1 0 0 0 0
0 0 0 0 0 0 0 0 1 1 3 4 7 11 14 16 19 23 25 25 20 18 19 18 14 12 16 23 30 35 39 42 42 39 35 33 29 22 17 14 12 10 7 4 1 0 0 0 0
0 0 0 0 0 0 0 1 2 4 6 8 9 13 19 22 22 23 26 26 25 22 22 21 17 14 14 18 24 29 32 32 31 29 24 20 18 14 9 8 9 8 6 3 1 1 1 0 0
0 0 0 0 0 0 0 1 2 5 10 15 18 23 30 33 31 30 31 30 28 25 24 25 23 19 17 17 21 23 23 19 16 14 12 8 6 4 4 6 7 6 4 3 3 2 1 0 0
0 0 0 0 0 0 0 0 2 5 10 19 27 34 38 39 37 35 33 31 29 27 25 24 23 20 19 20 21 19 15 11 7 6 5 3 1 0 3 6 5 3 2 3 4 2 1 0 0
0 0 0 0 0 0 0 2 6 9 12 18 28 35 37 36 35 33 30 28 27 26 24 23 22 20 21 24 24 21 17 12 7 5 6 5 3 1 2 3 3 1 2 3 3 1 0 0 0
0 0 0 0 0 0 2 7 13 17 16 18 24 29 31 30 29 29 27 24 21 21 22 23 25 25 26 29 30 27 22 16 11 9 8 7 5 3 1 1 1 1 3 4 4 2 1 0 0
0 0 0 0 0 1 4 9 17 21 20 18 19 22 24 25 25 24 21 18 16 15 19 25 30 33 31 33 33 29 23 18 14 12 10 8 7 4 2 2 2 2 3 6 7 4 2 2 2
0 0 0 0 0 1 4 8 13 17 18 17 15 15 18 20 21 20 18 16 14 14 18 23 30 34 34 33 30 24 19 16 14 12 9 8 6 4 3 3 3 2 3 6 6 4 3 3 3
1 1 0 0 0 0 2 4 6 8 11 13 11 10 12 15 16 15 15 14 12 14 17 19 22 26 30 30 26 19 15 13 14 12 10 9 7 6 5 5 4 4 4 5 6 5 4 3 2
0 0 0 0 0 0 0 1 2 3 5 7 7 6 8 11 12 10 10 11 10 11 15 15 13 14 19 22 21 17 13 13 15 16 14 11 9 8 9 9 8 6 6 8 8 8 7 5 4
0 0 0 0 0 0 0 1 2 3 3 4 4 5 7 9 9 8 9 11 10 11 13 11 7 6 9 13 14 13 12 14 17 18 16 15 12 9 9 11 11 10 11 13 13 14 14 10 6
0 0 0 0 0 0 0 1 3 4 3 3 3 5 8 10 9 7 8 10 10 9 8 6 3 2 3 6 9 10 11 14 17 17 17 17 14 10 8 9 10 10 13 16 17 18 18 12 7
0 0 0 0 0 0 0 1 3 4 3 1 2 4 7 9 8 5 6 8 8 7 5 3 2 1 2 5 7 7 9 11 14 14 13 13 12 10 8 7 7 9 12 15 17 18 15 10 7
0 0 0 0 0 0 0 0 1 2 2 0 1 3 6 7 6 4 5 6 6 5 4 2 2 1 2 4 6 7 8 9 10 10 8 7 8 9 8 8 8 8 9 11 13 13 11 8 8
0 0 0 0 0 0 0 0 0 1 1 1 1 4 6 7 5 5 5 5 4 4 2 1 1 1 2 2 4 6 8 9 8 7 6 5 5 6 7 8 8 6 6 7 9 10 9 7 7
0 0 0 0 0 0 0 0 0 1 2 1 3 7 9 9 7 5 4 5 5 4 2 1 0 1 1 1 2 4 6 6 6 6 6 5 4 4 5 5 5 5 5 6 7 8 8 6 6
0 0 0 0 0 0 0 0 0 1 2 3 7 13 16 14 11 8 6 6 6 4 2 1 0 0 0 0 1 2 2 2 2 3 3 2 2 3 3 3 3 5 6 6 6 6 7 8 8
0 0 0 0 0 0 0 0 0 1 3 5 10 18 20 18 16 13 10 7 6 4 1 0 0 0 0 0 1 1 1 0 0 1 1 0 1 2 3 3 3 4 5 5 4 5 7 9 9
0 0 0 0 0 0 0 0 0 1 3 7 14 19 19 18 17 15 11 7 4 2 0 0 0 0 0 0 0 0 0 0 0 0 0 0 0 1 1 2 2 3 3 3 3 4 5 6 6
0 0 0 0 0 0 0 0 0 2 4 8 14 18 17 17 16 13 9 6 3 1 1 0 0 0 0 0 0 0 0 0 0 0 0 0 0 0 0 1 1 1 1 2 2 2 2 2 2
0 0 0 0 0 0 0 0 0 1 2 6 11 14 15 16 14 10 8 6 4 3 1 0 0 0 0 0 0 0 0 0 0 0 0 0 0 0 0 0 0 0 0 1 1 1 1 0 0
0 0 0 0 0 0 0 0 0 0 1 5 8 10 12 13 11 8 6 5 4 3 1 0 0 0 0 0 0 0 0 0 0 0 0 0 0 0 0 0 0 0 0 0 0 0 0 0 0
0 0 0 0 0 0 0 0 0 0 1 3 6 7 9 9 7 5 3 3 3 1 0 0 0 0 0 0 0 0 0 0 0 0 0 0 0 0 0 0 0 0 0 0 0 0 0 0 0
0 0 0 0 0 0 0 0 0 0 1 2 4 5 6 7 5 2 1 2 2 1 0 0 0 0 0 0 0 0 0 0 0 0 0 0 0 0 0 0 0 0 0 0 0 0 0 0 0

GEFSSGP_con_prob3kmehi_126.txt.gz
EHI
0 0 0 0 0 0 0 0 0 0 1 4 7 14 28 33 24 17 21 40 55 52 41 37 34 23 11 5 4 3 1 0 1 3 3 3 2 1 0 0 0 0 0 0 0 0 0 0 0
0 0 0 0 0 0 0 0 1 1 1 5 12 21 31 33 24 20 27 39 47 44 40 41 39 28 15 6 4 5 3 1 2 3 3 3 3 2 1 0 0 0 0 0 0 0 0 0 0
0 0 0 0 0 0 0 1 2 2 3 8 20 32 35 31 24 24 31 37 40 43 48 53 51 41 25 13 8 6 5 3 2 3 3 4 3 2 1 1 0 0 0 0 0 0 0 0 0
0 0 0 0 0 0 0 2 3 4 5 12 27 40 39 31 25 25 29 33 40 49 55 59 61 53 37 23 15 10 8 5 4 4 5 5 4 2 1 0 0 0 0 0 0 0 0 0 0
0 0 0 0 0 0 0 1 3 5 8 16 30 42 42 34 28 27 29 34 45 53 53 58 64 58 46 33 24 19 16 13 10 9 9 8 6 3 1 0 0 0 0 0 0 0 0 0 0
0 0 0 0 0 0 1 2 3 5 9 17 29 39 40 34 31 33 34 40 50 53 48 50 57 55 46 40 34 30 26 22 20 17 15 13 9 4 2 1 0 0 0 0 0 0 0 0 0
0 0 0 0 0 0 1 2 4 6 9 17 28 33 33 33 35 38 40 45 52 51 42 38 40 40 38 39 39 37 33 29 26 23 19 15 10 6 2 1 0 0 0 0 0 0 0 0 0
0 0 0 0 0 0 1 3 6 11 16 25 34 39 39 37 39 42 45 49 53 51 41 33 29 27 28 33 37 36 33 28 24 20 16 12 9 6 2 1 0 0 0 0 0 0 0 0 0
0 0 0 0 0 0 1 4 8 15 27 41 51 55 51 42 39 44 49 53 55 52 44 35 29 26 24 26 30 30 27 23 18 13 9 6 6 5 4 5 5 3 1 1 0 0 0 0 0
0 0 0 0 0 0 1 4 7 15 30 47 57 59 53 44 42 47 52 56 57 53 46 40 36 30 27 26 26 23 21 19 14 8 5 3 3 5 8 13 12 7 3 2 1 0 0 0 0
0 0 0 0 1 1 2 5 11 20 32 45 53 53 50 48 47 50 54 57 55 52 48 43 39 34 33 33 27 22 22 21 15 10 7 4 4 7 12 17 14 8 4 3 2 1 0 0 0
0 0 0 0 1 2 5 11 21 32 40 47 49 48 48 48 47 49 53 53 49 46 44 43 41 39 42 43 36 30 29 26 21 18 15 10 8 8 14 19 16 8 4 4 4 1 0 0 0
0 0 0 0 1 3 8 17 27 36 42 46 44 41 42 44 44 47 49 47 42 39 41 43 44 44 48 50 44 38 36 32 30 30 27 22 17 15 18 24 21 13 8 6 4 3 2 2 1
0 0 0 0 1 4 9 16 24 30 35 39 39 38 42 44 45 47 48 46 42 41 43 44 44 45 49 49 44 41 39 37 36 36 34 30 26 24 25 27 24 17 13 12 9 7 7 6 4
0 0 0 0 1 2 5 12 20 25 28 33 37 42 48 51 52 51 49 47 45 44 44 41 38 40 44 42 37 36 36 36 37 35 32 29 27 27 27 26 22 18 17 17 15 12 12 10 7
0 0 0 0 0 0 2 9 17 21 25 30 35 43 50 54 54 50 47 45 45 44 41 36 33 35 38 35 31 29 29 31 33 32 28 25 23 24 25 23 20 18 20 20 17 15 15 13 11
0 0 0 0 0 0 2 9 15 19 22 27 32 39 45 50 50 45 42 42 42 41 37 32 30 31 32 32 29 26 25 26 29 29 25 22 20 20 22 21 19 20 23 21 18 17 19 18 16
0 0 0 0 0 0 2 8 13 17 20 23 29 34 40 46 45 41 38 38 37 35 32 27 25 25 25 25 25 25 24 24 25 24 22 19 18 16 17 19 19 19 20 19 17 17 19 19 17
0 0 0 0 0 1 3 5 9 14 16 19 26 35 42 45 44 40 36 33 31 29 26 22 18 16 16 17 20 22 22 21 19 18 17 16 16 14 13 14 16 16 15 14 14 14 15 15 15
0 0 0 0 0 1 3 4 5 8 12 15 24 39 48 47 45 40 34 30 27 23 19 16 12 9 8 11 16 19 20 18 14 13 13 13 14 13 12 12 13 14 12 11 12 12 11 10 11
0 0 0 0 0 1 2 3 4 6 8 11 20 38 50 50 46 40 32 27 22 16 12 10 8 6 6 8 12 14 15 14 12 10 10 10 11 12 11 11 12 13 12 11 11 11 10 9 10
0 0 0 0 0 0 1 1 4 8 10 12 19 32 44 49 47 40 31 24 18 13 9 7 7 6 6 8 10 10 10 10 9 8 7 6 7 8 8 8 10 12 12 11 9 9 10 10 10
0 0 0 0 0 0 0 0 3 9 14 16 20 28 39 47 48 43 32 23 18 14 10 9 8 8 8 10 11 9 7 6 4 3 3 3 3 5 6 6 7 9 10 9 8 8 9 9 9
0 0 0 0 0 0 0 0 3 8 14 18 22 30 40 47 49 44 33 23 17 13 12 11 9 9 9 9 9 7 5 4 3 1 1 2 2 3 3 3 4 6 7 7 7 8 8 7 5
0 0 0 0 0 0 0 1 4 8 12 18 25 33 41 46 47 41 31 22 16 12 10 9 8 7 7 7 6 5 3 3 3 2 1 1 1 1 1 1 2 3 3 4 5 6 6 4 2
0 0 0 0 0 0 0 2 5 9 12 18 24 31 38 43 42 36 27 20 14 10 8 5 4 4 4 4 4 4 3 3 3 2 1 0 0 0 0 0 1 1 1 2 3 3 3 1 0
0 0 0 0 0 0 0 2 4 8 13 19 23 29 36 39 39 34 26 18 13 9 6 4 3 3 2 2 2 3 3 3 2 1 0 0 0 0 0 0 0 0 0 0 1 1 1 0 0
0 0 0 0 0 0 0 1 3 7 13 18 24 29 34 37 36 32 24 18 13 9 6 4 3 2 1 0 1 1 1 2 1 0 0 0 0 0 0 0 0 0 0 0 0 0 0 0 0
0 0 0 0 0 0 0 0 3 7 11 16 21 24 28 30 31 27 21 16 12 8 5 3 2 1 0 0 0 0 0 0 0 0 0 0 0 0 0 0 0 0 0 0 0 0 0 0 0
0 0 0 0 0 0 0 1 4 8 11 13 17 18 21 25 26 23 18 14 10 6 4 2 1 1 0 0 0 0 0 0 0 0 0 0 0 0 0 0 0 0 0 0 0 0 0 0 0

GEFSSGP_con_prob3kmehi_132.txt.gz
EHI
0 0 0 0 0 0 0 0 1 4 13 27 40 44 39 29 16 7 4 16 37 39 27 22 25 24 19 14 11 9 7 6 9 14 15 14 11 7 2 0 0 0 0 0 0 0 0 0 0
0 0 0 0 0 0 0 0 4 10 20 34 48 51 46 37 25 12 8 22 41 43 30 24 26 25 19 13 9 8 7 7 9 11 11 10 8 4 2 1 0 0 0 0 0 0 0 0 0
0 0 0 0 0 0 0 1 9 22 32 43 53 56 49 37 25 13 14 31 48 47 35 29 31 29 22 15 10 9 9 9 9 9 7 5 3 2 2 2 1 0 0 0 0 0 0 0 0
0 0 0 0 0 0 0 3 14 30 42 48 53 56 48 35 27 24 27 40 51 48 38 36 38 35 27 21 16 13 10 9 9 8 6 3 1 1 3 3 1 0 0 0 0 0 0 0 0
0 0 0 0 0 0 1 6 19 35 46 50 52 53 47 41 43 43 39 42 48 46 38 40 45 42 36 28 23 18 12 9 10 9 6 4 3 3 3 3 2 1 0 0 0 0 0 0 0
0 0 0 0 0 0 3 12 27 42 48 49 50 50 45 45 53 54 47 43 45 44 38 40 45 44 41 36 30 22 14 10 12 12 9 6 5 5 4 4 3 1 0 0 0 0 0 0 0
0 0 0 0 0 1 6 16 30 43 45 42 42 45 43 46 54 58 53 49 46 42 37 36 37 38 40 39 34 26 19 16 17 18 13 8 6 5 4 3 1 1 0 0 0 1 1 0 0
0 0 0 0 0 1 7 17 29 37 36 31 31 37 43 51 60 63 60 55 48 39 33 29 29 31 35 36 35 31 25 22 23 22 18 11 5 3 3 2 1 0 1 1 1 3 2 1 0
0 0 0 0 0 1 8 21 32 35 33 31 32 40 51 61 68 67 62 55 46 35 27 24 23 25 28 31 32 30 26 22 22 20 17 11 4 1 1 2 2 2 3 4 4 5 4 2 0
0 0 0 0 0 2 10 24 34 38 36 36 44 55 63 69 70 67 59 49 39 30 23 19 17 19 21 23 24 22 19 16 13 10 9 6 2 0 1 2 4 5 6 6 6 6 4 2 1
0 0 0 0 2 6 13 25 36 39 34 34 47 60 65 65 63 61 55 44 32 24 19 15 13 13 14 15 15 14 12 10 5 3 2 1 0 0 1 2 3 4 5 5 4 3 2 1 0
0 0 0 1 5 12 20 31 40 40 32 32 43 54 59 58 55 52 48 38 28 22 17 11 9 9 10 11 10 8 8 8 4 2 1 1 0 0 2 3 2 3 3 3 1 1 0 0 0
0 0 0 3 8 17 27 37 40 38 34 34 41 50 55 54 47 41 39 35 28 24 19 11 7 7 8 7 6 5 6 6 4 3 3 2 0 0 1 2 1 2 3 3 1 0 0 0 0
0 0 0 2 7 15 26 32 32 30 31 35 41 46 48 45 38 33 32 32 28 23 19 13 8 7 7 5 4 3 3 3 3 4 4 2 0 0 1 1 0 1 2 2 1 0 0 0 0
0 0 0 1 4 9 18 22 22 23 26 32 39 39 37 34 31 28 28 27 22 19 16 13 11 9 7 6 4 4 4 3 3 4 4 2 1 1 2 1 0 0 1 1 1 0 0 0 0
0 0 0 1 2 5 10 13 14 19 27 33 36 34 30 28 26 25 24 22 18 15 15 14 12 11 10 10 9 8 8 7 6 5 5 5 4 3 3 2 1 0 0 0 0 0 0 0 0
0 0 0 0 1 3 5 6 8 16 26 32 34 33 29 26 25 24 24 22 18 16 16 15 14 13 13 13 14 13 11 11 10 8 6 6 5 4 3 2 1 0 0 0 0 0 0 0 0
0 0 0 0 1 2 3 4 8 15 23 28 31 31 29 27 26 25 25 22 18 15 15 15 14 14 13 13 14 12 10 10 10 8 7 5 4 3 3 1 0 0 0 0 0 0 0 0 0
0 0 0 1 2 3 4 6 10 15 20 24 27 29 29 29 27 23 20 18 15 14 13 13 12 10 10 10 10 7 6 5 5 5 5 3 2 2 2 1 0 0 0 0 0 0 0 0 0
0 0 1 2 2 3 5 7 9 12 17 22 27 29 30 30 26 19 13 12 13 12 11 10 8 5 5 6 6 4 3 2 1 2 2 1 0 1 1 1 1 1 0 0 0 0 0 0 0
0 0 1 2 1 1 3 3 4 7 12 18 24 27 29 29 24 16 10 9 9 10 9 8 5 2 1 1 2 2 1 0 0 0 0 0 0 0 0 1 2 2 1 0 0 0 0 0 0
0 0 1 2 1 0 0 0 0 2 7 13 17 20 24 25 20 14 10 7 6 7 7 6 4 1 0 0 0 0 0 0 0 0 0 0 0 0 0 1 2 2 1 0 0 0 0 0 0
0 0 1 1 0 0 0 0 0 1 5 9 11 13 19 21 17 14 11 7 6 6 6 6 4 2 0 0 0 0 0 0 0 0 0 0 0 0 0 0 1 1 0 0 0 0 0 0 0
0 0 0 0 0 0 0 0 0 1 5 9 10 11 15 17 15 13 10 7 6 7 7 6 4 2 1 0 0 0 0 0 0 0 0 0 0 0 0 0 0 0 0 0 0 0 0 0 0
0 0 0 0 0 0 0 0 0 1 5 10 11 11 13 14 13 11 7 5 6 7 7 5 3 2 1 0 0 0 0 0 0 0 0 0 0 0 0 0 0 0 0 0 0 0 0 0 0
0 0 0 0 0 0 0 0 0 1 4 9 11 11 12 11 9 7 4 2 4 4 4 3 2 1 0 0 0 0 0 0 0 0 0 0 0 0 0 0 0 0 0 0 0 0 0 0 0
0 0 0 0 0 0 0 0 0 1 3 6 9 10 11 8 5 4 3 2 2 1 1 1 0 0 0 0 0 0 0 0 0 0 0 0 0 0 0 0 0 0 0 0 0 0 0 0 0
0 0 0 0 0 0 0 0 0 1 2 4 7 9 9 6 4 3 4 3 2 1 0 0 0 0 0 0 0 0 0 0 0 0 0 0 0 0 0 0 0 0 0 0 0 0 0 0 0
0 0 0 0 0 0 0 0 0 0 1 3 6 8 8 5 4 3 3 3 2 1 0 0 0 0 0 0 0 0 0 0 0 0 0 0 0 0 0 0 0 0 0 0 0 0 0 0 0
0 0 0 0 0 0 0 0 0 0 0 2 5 8 8 5 4 3 3 3 1 0 0 0 0 0 0 0 0 0 0 0 0 0 0 0 0 0 0 0 0 0 0 0 0 0 0 0 0

GEFSSGP_con_prob3kmehi_138.txt.gz
EHI
0 0 0 0 0 0 0 0 0 1 4 8 9 8 6 3 2 1 0 4 11 12 8 6 9 16 24 30 38 44 48 54 60 62 56 43 32 24 16 10 5 1 0 0 0 0 0 0 0
0 0 0 0 0 0 0 1 3 6 10 15 17 15 10 6 4 2 1 5 12 13 9 8 12 19 24 28 32 37 41 45 50 54 49 39 30 24 16 9 3 0 0 0 0 0 0 0 0
0 0 0 0 0 0 0 2 7 11 16 19 21 19 14 9 7 4 2 6 13 13 9 11 18 23 25 25 25 27 30 32 36 39 37 32 28 23 17 9 2 0 1 1 1 0 0 0 0
0 0 0 0 0 0 0 2 6 11 14 17 19 20 18 14 10 7 6 9 14 15 11 13 21 26 24 23 21 22 23 24 27 30 29 27 24 22 17 9 2 0 1 2 2 1 0 0 0
0 0 0 0 0 0 0 1 3 8 12 16 21 25 27 22 15 12 11 12 15 16 13 14 19 22 22 21 21 21 21 22 25 27 27 25 22 20 17 10 3 0 1 2 2 1 0 0 0
0 0 0 0 0 0 0 0 2 6 11 17 24 32 34 27 19 16 14 14 17 19 17 15 15 16 19 23 24 24 25 25 26 28 28 24 20 16 14 10 3 0 0 1 1 0 0 0 0
0 0 0 0 0 1 0 1 3 6 11 16 23 31 34 28 22 20 20 19 20 21 21 17 13 13 18 23 24 26 28 29 29 28 25 20 14 11 10 8 4 1 0 0 0 1 1 1 2
0 0 0 0 0 0 1 2 5 7 11 14 18 24 31 33 32 32 31 28 24 21 20 19 16 15 17 18 20 24 27 29 29 25 19 14 9 6 7 7 5 2 0 0 1 2 3 4 4
0 0 0 0 0 0 2 5 7 7 11 15 19 27 39 46 45 42 38 32 25 19 17 18 19 18 16 15 16 19 21 23 22 18 15 11 6 4 5 7 7 4 2 2 2 3 3 3 3
0 0 0 0 0 0 2 6 8 7 10 17 28 43 57 55 46 39 34 29 23 18 15 16 17 16 15 14 13 13 14 14 13 12 11 9 5 3 4 6 8 7 5 4 4 3 2 2 2
0 0 0 0 1 1 2 6 9 10 10 17 34 55 62 51 35 30 28 23 20 17 14 13 13 12 12 12 11 10 9 8 7 8 8 5 3 2 2 4 5 7 7 5 4 4 3 2 2
0 0 0 1 2 4 6 10 14 14 13 22 40 55 54 40 29 27 25 21 20 17 13 9 8 8 10 10 10 10 9 6 5 6 6 4 2 2 1 1 2 3 4 3 2 4 3 2 2
0 0 1 1 3 8 13 17 18 16 18 31 48 50 42 33 29 27 24 21 20 16 10 6 4 4 6 7 7 8 7 5 4 5 5 3 2 2 2 1 0 1 1 1 1 2 2 1 1
0 0 0 0 2 6 13 16 15 13 20 36 45 40 32 28 27 25 20 18 16 12 8 5 3 2 3 4 4 4 4 3 3 4 4 2 2 2 2 1 0 0 0 0 0 1 1 1 0
0 0 0 0 0 3 7 11 9 11 21 33 34 30 27 24 23 19 15 13 10 7 6 4 2 2 1 1 2 2 1 1 1 2 1 1 0 1 1 0 0 0 0 0 0 0 1 0 0
0 0 0 0 0 1 4 6 7 10 19 26 25 24 23 20 17 14 10 7 5 4 3 2 1 1 1 0 1 1 0 0 0 0 0 0 0 0 0 0 0 0 0 0 0 0 1 0 0
0 0 0 0 0 0 1 3 5 9 15 19 19 18 18 16 13 10 6 4 3 2 2 1 1 0 0 0 0 0 0 0 0 0 0 0 0 0 0 0 0 0 0 0 0 0 0 0 0
0 0 0 0 0 0 0 1 3 6 11 15 16 16 16 15 12 8 6 3 2 2 1 1 0 0 0 0 1 1 1 1 0 0 0 0 0 0 0 1 1 1 0 0 0 0 0 0 0
0 0 0 0 0 0 0 0 2 5 9 13 16 16 16 16 14 10 6 2 2 2 1 1 0 0 0 1 2 2 2 1 0 0 0 0 0 0 0 1 1 1 0 0 0 0 0 0 0
0 0 0 0 0 0 0 0 2 5 8 11 14 14 15 17 17 12 6 2 1 1 1 0 0 0 0 1 2 2 1 0 0 0 0 0 0 0 0 0 0 0 0 0 0 0 0 0 0
0 0 0 0 0 0 0 0 1 4 6 8 11 12 12 14 15 10 5 1 0 1 1 0 0 0 0 1 1 1 0 0 0 0 0 0 0 0 0 0 0 0 0 0 0 0 0 0 0
0 0 0 0 0 0 0 0 0 2 3 5 8 10 10 10 10 8 5 3 1 0 0 0 0 0 0 0 0 0 0 0 0 0 0 0 0 0 0 0 0 0 0 0 0 0 0 0 0
0 0 0 0 0 0 0 0 0 0 1 2 6 9 9 7 6 6 5 3 1 0 0 0 0 0 0 0 0 0 0 0 0 0 0 0 0 0 0 0 0 0 0 0 0 0 0 0 0
0 0 0 0 0 0 0 0 0 0 0 1 4 8 8 5 4 4 3 2 0 0 0 0 0 0 0 0 0 0 0 0 0 0 0 0 0 0 0 0 0 0 0 0 0 0 0 0 0
0 0 0 0 0 0 0 0 0 0 0 1 4 9 8 5 2 1 1 0 0 0 0 0 0 0 0 0 0 0 0 0 0 0 0 0 0 0 0 0 0 0 0 0 0 0 0 0 0
0 0 0 0 0 0 0 0 0 0 0 0 4 9 9 4 1 0 0 0 0 0 0 0 0 0 0 0 0 0 0 0 0 0 0 0 0 0 0 0 0 0 0 0 0 0 0 0 0
0 0 0 0 0 0 0 0 0 0 0 0 3 8 9 5 1 0 0 0 0 0 0 0 0 0 0 0 0 0 0 0 0 0 0 0 0 0 0 0 0 0 0 0 0 0 0 0 0
0 0 0 0 0 0 0 0 0 0 0 0 3 7 8 5 2 0 0 0 0 0 0 0 0 0 0 0 0 0 0 0 0 0 0 0 0 0 0 0 0 0 0 0 0 0 0 0 0
0 0 0 0 0 0 0 0 0 0 0 0 1 4 7 6 3 1 0 0 0 0 0 0 0 0 0 0 0 0 0 0 0 0 0 0 0 0 0 0 0 0 0 0 0 0 0 0 0
0 0 0 0 0 0 0 0 0 0 0 0 0 2 5 5 3 1 0 0 0 0 0 0 0 0 0 0 0 0 0 0 0 0 0 0 0 0 0 0 0 0 0 0 0 0 0 0 0

GEFSSGP_con_prob3kmehi_144.txt.gz
EHI
0 0 0 0 0 0 0 0 0 0 0 0 0 0 0 0 2 6 7 6 7 9 8 7 6 5 7 20 40 51 50 44 40 35 27 21 14 8 5 1 0 0 0 0 0 1 2 2 1
0 0 0 0 0 0 0 0 0 0 0 0 0 0 1 1 4 7 9 8 9 9 8 7 8 6 8 19 36 48 49 45 41 35 27 20 14 9 5 2 0 0 0 1 1 1 1 1 2
0 0 0 0 0 0 1 2 2 1 0 0 1 1 3 5 6 9 10 11 11 10 8 9 9 8 10 17 29 40 44 44 40 33 25 19 15 11 7 3 1 0 1 2 2 2 1 1 2
0 0 0 0 0 1 2 4 4 2 1 1 2 3 7 11 12 12 13 12 12 11 9 9 9 9 10 15 23 30 34 36 35 28 20 17 15 12 9 5 2 1 2 3 3 3 2 2 3
0 0 0 0 1 2 4 5 4 3 3 3 3 6 15 22 23 20 16 12 11 11 10 10 9 8 8 12 18 23 26 27 27 24 18 15 14 11 9 6 4 3 4 4 3 3 2 2 2
0 0 0 1 2 4 6 6 4 4 5 3 3 10 25 38 38 28 18 13 10 9 9 9 8 7 8 11 17 21 23 23 23 22 17 14 11 9 7 6 5 4 5 5 4 3 2 1 1
0 0 0 1 3 5 8 8 6 5 4 2 2 11 32 52 52 37 24 16 10 8 8 8 7 8 10 11 16 20 21 22 23 21 16 12 9 6 5 5 5 5 5 4 3 2 1 0 0
0 0 0 0 2 5 7 9 9 5 3 3 4 14 39 63 64 49 34 23 14 9 9 8 8 8 9 10 14 18 20 21 22 19 14 10 7 4 3 5 7 6 4 3 2 1 1 0 0
0 0 0 0 2 4 5 7 7 5 4 7 11 26 53 73 73 59 43 30 20 14 11 10 9 7 6 8 13 16 17 17 17 14 11 7 4 3 4 9 12 8 2 1 1 1 0 0 0
0 0 0 1 3 4 5 6 6 4 5 9 19 40 64 77 72 58 43 31 23 17 13 12 11 8 6 8 13 15 15 13 12 11 11 8 6 5 8 15 15 9 3 1 1 1 0 0 0
1 1 1 1 3 5 6 8 7 7 7 9 22 45 65 69 60 46 34 27 21 16 13 12 12 12 11 11 13 15 15 13 11 12 13 12 10 8 11 14 14 10 7 6 5 3 1 1 1
1 1 1 1 3 5 7 9 11 12 12 12 23 44 58 58 48 35 26 21 17 15 13 13 13 14 16 16 14 13 13 12 11 12 12 12 11 10 11 13 13 12 12 12 11 7 4 3 3
0 0 0 1 2 4 6 10 13 16 16 17 25 38 46 46 40 29 21 17 15 15 15 14 15 17 18 19 16 14 13 11 9 9 9 8 8 9 11 14 15 14 15 16 15 12 10 8 8
0 0 0 0 2 3 6 9 13 16 17 19 24 30 36 38 33 25 19 15 14 15 15 15 18 20 20 19 19 17 14 9 6 5 4 3 4 5 8 12 13 12 14 16 17 15 13 12 12
0 0 0 1 2 3 4 8 12 15 17 20 21 25 33 34 29 21 16 15 15 16 17 17 18 20 19 17 17 16 10 5 3 2 1 0 1 2 5 8 9 9 10 14 18 18 17 15 14
0 0 0 1 2 3 2 6 12 15 16 18 20 24 32 35 28 20 16 16 18 20 21 20 18 18 18 16 16 14 10 6 4 3 2 0 0 1 3 5 6 7 9 12 16 19 20 18 16
0 0 0 1 2 2 1 3 9 12 11 13 16 21 29 33 29 22 18 19 22 25 25 23 21 20 19 18 17 17 16 13 9 6 4 3 2 3 4 6 7 8 9 10 11 17 20 18 16
0 0 0 0 1 1 0 2 6 8 7 9 12 16 23 29 28 21 19 21 24 26 26 25 25 25 24 21 20 19 18 15 12 9 8 7 7 6 6 8 10 9 8 7 7 10 12 12 12
0 0 0 0 0 0 0 2 4 6 6 8 13 16 20 24 22 15 14 18 23 25 26 26 27 29 27 22 19 18 16 14 12 11 11 10 9 9 8 9 11 10 8 6 4 4 5 6 7
0 0 0 0 0 0 0 1 2 4 5 8 14 17 19 19 15 10 10 14 18 21 23 24 26 27 24 20 16 14 12 12 12 12 13 12 10 8 8 9 9 9 7 5 3 2 3 4 4
0 0 0 0 0 0 0 0 1 2 3 5 11 16 18 15 11 9 10 11 15 19 22 23 24 22 18 15 12 10 10 11 11 11 11 10 8 6 6 6 6 6 4 3 2 1 2 2 2
0 0 0 0 0 0 0 0 0 1 1 2 6 13 16 14 11 10 9 8 11 17 23 25 22 17 13 11 10 9 9 10 10 9 7 6 4 3 3 4 4 3 2 1 1 0 0 1 1
0 0 0 0 0 0 0 0 0 1 1 1 3 9 13 14 13 12 10 7 8 16 23 25 20 12 10 10 8 7 8 8 7 5 4 3 2 2 2 2 2 2 1 0 0 0 0 0 0
0 0 0 0 0 0 0 0 1 1 2 2 2 5 9 12 13 14 12 8 8 14 20 20 14 9 7 7 6 5 5 5 4 4 3 2 1 1 0 1 1 1 0 0 0 0 0 0 0
0 0 0 0 0 0 0 1 2 1 1 1 2 3 7 10 11 11 10 8 9 13 15 13 8 4 4 4 3 2 2 3 3 3 2 1 0 0 0 0 0 0 0 0 0 0 0 0 0
0 0 0 0 0 0 0 2 3 1 0 0 1 3 6 8 8 9 9 8 9 11 10 7 4 1 1 2 2 1 1 2 3 2 1 0 0 0 0 0 0 0 0 0 0 0 0 0 0
0 0 0 0 0 0 1 2 2 1 0 0 1 3 6 7 7 7 9 10 9 7 5 3 1 0 0 1 1 0 1 1 1 1 0 0 0 0 0 0 0 0 0 0 0 0 0 0 0
0 0 0 0 0 0 0 1 2 2 1 0 1 3 6 7 6 7 9 9 8 4 2 1 0 0 0 0 1 1 0 0 0 1 1 0 0 0 0 0 0 0 0 0 0 0 0 0 0
0 0 0 0 0 0 0 1 2 2 1 1 1 4 6 6 7 8 9 9 6 3 1 0 0 1 1 1 2 2 1 0 0 1 2 1 0 0 0 0 0 0 0 0 0 0 0 0 0
0 0 0 0 0 0 0 0 1 1 1 1 2 4 6 6 7 9 10 9 6 3 1 0 1 1 1 1 2 2 1 0 0 1 2 1 0 0 0 0 0 0 0 0 0 0 0 0 0

GEFSSGP_con_prob3kmehi_150.txt.gz
EHI
0 0 0 0 0 0 0 0 0 0 1 1 3 9 18 19 12 10 16 29 36 28 19 18 19 14 8 4 1 0 0 0 1 1 1 0 0 1 2 2 2 1 0 0 0 0 0 0 0
0 0 0 0 0 0 0 1 1 1 2 3 6 13 18 16 12 13 21 28 28 21 17 19 20 16 10 5 2 1 0 1 2 2 1 0 0 0 1 1 1 0 0 0 0 0 0 0 0
0 0 0 0 0 0 0 1 2 2 3 7 13 18 18 13 10 14 20 21 19 18 20 23 23 20 14 9 4 1 0 1 3 3 2 0 0 0 0 0 0 0 0 0 0 0 0 0 0
0 0 0 0 0 0 0 1 1 1 3 10 21 27 23 16 12 13 15 15 17 22 25 25 27 24 18 11 5 2 1 3 4 5 3 2 1 0 0 0 0 0 0 0 0 0 0 0 0
0 0 0 0 0 0 0 0 0 1 4 13 28 35 30 22 17 14 13 14 19 26 27 25 27 25 19 11 6 4 4 5 5 6 5 4 3 1 1 1 1 0 0 0 0 0 0 0 0
0 0 0 0 0 0 0 0 0 1 6 16 30 37 33 24 18 14 13 15 21 28 27 23 22 21 16 11 8 7 7 6 6 6 5 5 4 3 2 2 2 1 0 0 0 0 0 0 0
0 0 0 0 0 0 0 1 2 5 10 18 27 33 32 29 23 17 15 16 21 26 23 17 14 12 11 9 8 8 8 7 7 6 4 3 3 3 3 3 2 1 0 0 0 0 0 0 0
0 0 0 0 0 0 1 4 8 13 18 22 27 34 38 38 32 24 21 22 24 25 20 13 9 8 7 5 6 8 8 8 7 6 4 3 1 1 2 4 5 3 1 1 1 1 1 1 1
0 0 0 0 0 0 2 8 13 18 22 29 40 48 50 44 37 33 30 30 32 29 21 13 10 9 6 5 6 8 8 7 6 5 5 4 2 2 4 11 16 13 6 5 5 4 3 2 2
0 0 0 0 0 1 3 8 12 15 22 37 54 60 54 42 36 35 35 36 38 34 25 18 15 15 13 11 12 11 9 9 7 7 10 8 5 6 11 23 32 26 15 8 8 8 6 4 2
0 0 0 1 1 2 4 9 13 17 25 40 55 58 49 39 36 38 40 42 41 37 30 25 25 26 26 25 21 17 16 16 14 16 20 17 12 13 20 32 38 32 21 13 11 11 9 5 3
0 0 0 1 2 4 6 12 18 25 32 40 49 51 44 39 41 46 48 46 43 40 37 36 39 44 45 40 32 26 25 25 26 29 31 28 24 23 28 36 38 32 26 22 20 18 13 9 7
0 0 0 1 3 5 8 14 21 26 32 39 43 45 43 41 46 52 56 52 46 44 47 50 55 59 59 53 43 35 32 34 37 39 38 36 34 32 34 39 38 33 29 29 29 26 22 19 17
0 0 1 2 3 5 7 11 15 19 27 33 36 38 40 41 47 55 58 56 52 51 55 61 65 65 62 57 47 38 35 39 42 43 41 37 37 37 35 36 35 29 25 25 27 28 29 28 25
0 0 1 2 2 3 4 7 10 15 22 26 29 32 36 38 46 54 58 60 59 58 61 62 62 59 58 54 45 36 33 36 40 42 39 35 34 34 30 28 27 22 19 19 22 26 31 30 27
0 0 0 1 1 1 2 5 10 15 19 22 25 30 35 39 44 50 58 62 63 62 62 59 53 51 51 47 42 37 34 34 36 38 37 32 29 28 25 21 19 19 18 20 22 24 29 28 25
0 0 0 0 0 0 1 4 9 13 16 18 24 32 38 40 42 48 56 62 62 61 61 56 51 49 47 43 41 38 35 34 34 35 35 30 26 24 21 18 16 17 20 23 22 22 24 23 21
0 0 0 0 0 0 1 4 8 12 13 16 23 34 39 39 42 49 55 57 58 59 60 57 53 51 48 44 41 37 33 31 32 33 30 25 23 22 20 17 16 17 21 23 21 20 18 16 14
0 0 0 0 0 1 1 4 8 12 13 16 24 32 36 38 46 52 54 54 56 57 57 56 53 50 48 45 41 38 35 32 31 30 25 22 21 20 17 15 16 18 20 21 18 15 13 10 8
0 0 0 0 0 0 1 3 8 13 16 18 24 31 35 40 48 54 54 52 52 53 52 51 50 48 45 44 43 41 38 34 31 29 25 21 18 15 13 13 14 14 15 15 13 10 8 6 4
0 0 0 0 0 0 0 2 8 15 18 19 25 33 38 40 45 49 50 50 50 49 47 46 47 46 43 41 39 37 34 30 28 27 25 19 14 10 9 9 9 8 8 9 9 7 6 4 3
0 0 0 0 0 0 0 2 7 14 17 19 24 31 35 36 38 41 42 44 46 46 43 43 46 46 44 41 36 31 27 25 24 23 21 16 12 7 5 5 5 4 4 4 5 5 4 3 2
0 0 0 0 0 0 0 1 4 9 13 18 23 27 29 30 32 35 36 36 39 39 37 38 42 44 43 41 36 31 26 24 21 18 16 14 10 5 2 2 3 3 3 2 3 3 2 1 1
0 0 0 0 0 0 0 1 3 7 11 16 21 25 26 26 27 30 32 31 32 32 31 31 34 36 36 36 35 30 24 20 17 14 11 9 7 4 1 2 3 3 3 2 1 1 1 0 0
0 0 0 0 0 0 0 2 6 9 12 15 18 21 21 21 23 26 27 27 27 28 28 28 29 30 29 29 28 24 18 13 12 10 7 6 5 3 1 2 3 3 2 1 0 0 0 0 0
0 0 0 0 0 0 1 4 7 10 11 11 13 16 16 16 21 24 26 25 24 24 27 27 27 27 26 24 22 19 12 8 7 7 6 5 3 1 0 1 2 2 1 0 0 0 0 0 0
0 0 0 0 0 0 1 4 5 5 6 7 9 12 13 15 21 26 26 24 22 22 24 25 25 24 23 21 18 14 9 6 5 5 5 3 2 0 0 0 1 1 0 0 0 0 0 0 0
0 0 0 0 0 0 1 1 2 2 3 6 9 11 14 18 23 26 24 22 20 20 20 21 22 21 20 18 14 9 6 5 4 3 1 1 0 0 0 0 0 0 0 0 0 0 0 0 0
0 0 0 0 0 0 0 0 1 3 6 9 12 14 16 20 22 22 21 19 17 17 17 18 18 17 15 13 10 6 4 4 3 1 0 0 0 0 0 0 0 0 0 0 0 0 0 0 0
0 0 0 0 0 0 0 0 2 6 10 12 14 15 16 19 19 19 19 17 15 16 16 16 16 14 11 10 8 5 4 4 3 1 0 0 0 0 0 0 0 0 0 0 0 0 0 0 0

GEFSSGP_con_prob3kmehi_156.txt.gz
EHI
0 0 0 0 0 0 0 0 0 2 5 12 23 28 24 16 7 2 2 9 21 26 26 33 39 36 28 20 14 11 9 9 9 8 9 12 11 8 7 7 7 5 3 2 1 0 0 0 0
0 0 0 0 0 0 0 0 1 3 10 21 33 36 29 19 10 3 2 11 23 27 26 33 43 43 35 25 18 13 11 10 9 8 9 10 10 8 6 5 5 4 2 1 0 0 0 0 0
0 0 0 0 0 0 0 0 2 7 18 34 44 41 29 18 10 4 6 16 24 26 27 35 47 50 42 31 22 15 13 11 9 6 6 7 7 6 5 3 3 2 1 0 0 0 0 0 0
0 0 0 0 0 0 0 0 4 12 26 40 45 40 27 16 14 14 15 22 29 29 29 38 49 51 44 34 25 18 14 12 8 4 3 3 4 4 4 3 2 2 1 0 0 0 0 0 0
0 0 0 0 0 0 0 2 7 18 30 40 44 38 25 18 23 27 24 27 33 34 33 38 45 47 43 36 28 21 15 12 8 4 1 1 1 2 2 2 2 2 1 0 0 0 0 0 0
0 0 0 0 0 0 1 4 11 21 31 41 44 36 22 17 24 29 27 28 32 33 32 34 38 40 40 37 30 22 17 13 7 3 1 0 0 0 1 1 2 1 0 0 0 0 0 0 0
0 0 0 0 0 0 2 7 12 19 29 40 44 33 18 12 18 26 28 28 27 27 27 28 29 32 35 34 29 24 20 16 10 3 1 0 0 0 0 0 0 0 0 0 0 0 0 0 0
0 0 0 0 0 1 5 10 14 19 28 39 41 30 17 14 20 31 36 31 24 22 21 21 22 24 27 28 26 25 24 21 14 6 2 1 0 0 0 0 0 0 1 1 1 1 1 1 0
0 0 0 0 0 2 7 12 16 22 33 40 39 30 21 22 28 37 41 35 26 19 14 14 15 16 19 22 23 22 22 20 14 9 6 5 3 1 0 0 1 1 2 3 3 3 2 2 1
0 0 0 0 1 2 7 13 16 23 34 38 36 32 27 28 33 38 39 35 28 18 11 10 11 12 13 16 18 17 15 14 11 10 9 8 5 3 1 0 1 2 2 3 4 4 2 2 2
0 0 0 1 2 4 9 12 14 19 26 29 31 32 29 30 35 37 36 32 27 20 13 11 11 10 9 11 13 13 10 9 9 8 8 8 6 3 1 0 1 1 1 1 2 1 1 1 3
0 0 1 2 4 7 10 13 14 15 17 23 30 31 28 30 36 37 32 29 28 24 18 14 12 9 7 9 12 12 10 9 7 5 5 6 5 2 1 0 0 0 0 1 0 0 0 1 1
0 1 3 4 6 9 11 13 15 15 19 29 35 33 29 31 34 33 30 31 32 29 24 20 17 12 10 12 13 13 10 7 5 4 3 4 3 2 0 0 0 0 0 0 0 0 1 0 0
0 1 3 6 7 9 11 13 14 18 27 36 39 35 32 31 32 32 33 36 37 34 30 28 25 20 17 16 15 12 9 7 5 4 3 3 3 2 0 0 0 0 0 0 0 0 0 0 0
0 0 2 5 6 7 8 9 11 19 32 40 39 36 33 32 32 32 35 39 40 37 35 34 32 26 22 19 15 11 9 8 7 5 5 4 4 2 0 0 0 0 0 0 0 0 0 0 0
0 0 1 3 3 3 3 5 9 18 29 37 37 33 32 32 32 32 34 36 37 35 33 34 32 27 23 19 15 11 10 10 9 7 6 6 5 2 1 0 0 0 0 0 0 0 0 0 0
0 0 1 1 1 1 1 3 9 17 25 32 32 28 26 26 29 32 34 36 35 32 29 28 28 25 22 19 16 13 10 10 9 8 7 6 5 3 1 0 1 1 1 0 0 0 0 0 0
0 0 0 0 1 1 1 3 9 15 22 29 28 24 21 22 26 31 35 36 34 29 26 24 23 22 19 17 15 13 10 8 8 8 7 7 6 4 2 0 1 2 1 0 0 0 0 0 0
0 0 0 0 0 1 1 3 8 15 22 27 27 23 21 23 28 31 33 33 31 26 24 22 20 18 15 14 13 12 9 7 7 9 10 9 7 4 2 1 1 1 1 0 0 0 0 0 0
0 0 0 0 0 1 1 2 6 13 21 26 27 24 22 26 30 31 30 30 29 25 23 21 18 15 13 11 11 11 9 7 7 9 9 8 6 4 2 1 1 0 0 0 0 0 0 0 0
0 0 0 0 0 1 1 1 3 9 17 24 26 24 23 26 30 31 30 28 26 25 23 21 17 14 12 10 9 9 8 7 7 7 6 5 4 2 1 1 0 0 0 0 0 0 0 0 0
0 0 0 0 0 0 0 0 1 6 12 18 21 22 22 25 29 31 29 26 25 24 22 21 17 14 12 9 8 7 7 6 6 5 4 3 2 1 0 0 0 0 0 0 0 0 0 0 0
0 0 0 0 0 0 0 0 1 4 9 12 15 19 23 25 28 31 31 27 24 23 22 21 19 16 12 8 6 6 6 5 4 4 3 2 1 1 0 0 0 0 0 0 0 0 0 0 0
0 0 0 0 0 0 0 0 1 3 5 7 9 16 23 27 29 32 31 28 24 23 22 21 20 17 12 7 5 5 5 4 3 3 3 1 0 0 0 0 0 0 0 0 0 0 0 0 0
0 0 0 0 0 0 0 0 1 2 2 3 5 13 23 28 29 29 29 26 23 21 19 18 18 16 12 8 5 4 4 3 3 3 2 1 0 0 0 0 0 0 0 0 0 0 0 0 0
0 0 0 0 0 0 0 0 0 0 0 1 4 11 21 26 26 25 23 20 16 15 14 13 15 15 12 8 5 4 3 3 2 2 1 0 0 0 0 0 0 0 0 0 0 0 0 0 0
0 0 0 0 0 0 0 0 0 0 0 1 4 11 17 21 23 21 16 12 9 9 9 10 13 14 11 7 4 4 3 1 1 1 0 0 0 0 0 0 0 0 0 0 0 0 0 0 0
0 0 0 0 0 0 0 0 0 0 1 2 5 10 14 17 19 16 11 8 7 7 6 8 10 11 9 6 4 3 2 1 0 0 0 0 0 0 0 0 0 0 0 0 0 0 0 0 0
0 0 0 0 0 0 0 0 0 0 0 2 5 9 13 15 15 12 8 7 6 6 6 7 7 8 7 5 3 2 1 0 0 0 0 0 0 0 0 0 0 0 0 0 0 0 0 0 0
0 0 0 0 0 0 0 0 0 0 0 1 5 9 13 14 12 9 7 6 6 6 6 6 6 7 6 4 2 1 0 0 0 0 0 0 0 0 0 0 0 0 0 0 0 0 0 0 0

GEFSSGP_con_prob3kmehi_162.txt.gz
EHI
0 0 0 0 0 0 0 0 0 0 1 3 5 4 2 1 1 1 1 3 11 18 20 23 28 32 33 34 36 39 39 36 35 37 37 35 33 31 27 20 13 8 5 4 3 1 0 0 1
0 0 0 0 0 0 0 0 0 1 2 5 7 7 4 3 2 2 2 6 16 25 25 25 31 35 37 39 41 40 38 35 32 32 32 32 30 29 26 21 15 10 7 5 3 1 0 0 1
0 0 0 0 0 0 0 0 0 2 5 8 10 9 7 5 4 3 4 11 24 29 26 29 37 42 43 46 46 43 38 33 30 29 30 30 29 26 24 20 16 11 7 4 2 1 1 1 1
0 0 0 0 0 0 0 0 1 3 7 10 11 11 9 7 5 6 9 18 27 28 24 31 44 49 48 48 48 44 38 34 31 30 31 30 28 23 20 17 13 9 5 3 2 2 3 3 2
0 0 0 0 0 0 0 0 1 5 9 11 12 11 9 7 7 10 14 20 26 27 25 33 47 53 52 50 46 42 38 35 33 31 30 28 24 20 16 11 8 5 3 2 1 2 4 4 4
0 0 0 0 0 0 0 0 2 7 10 12 11 10 8 8 10 12 14 17 23 28 31 36 43 50 53 50 45 39 35 33 31 29 26 23 18 15 12 8 5 3 2 1 0 1 2 4 4
0 0 0 0 0 0 1 2 4 8 13 13 12 10 9 10 13 14 14 18 23 28 31 33 36 43 47 45 40 35 31 27 25 23 21 17 13 11 9 7 5 3 1 0 0 0 1 2 3
0 0 0 0 0 0 1 3 6 10 17 18 15 12 12 15 20 22 21 23 26 26 26 26 28 33 36 35 32 29 27 23 21 20 19 15 11 9 8 8 6 3 1 0 0 0 0 1 2
0 0 0 0 0 0 1 4 6 11 19 21 18 15 19 27 33 34 29 25 25 23 19 20 23 26 28 27 24 24 24 21 19 19 18 13 9 8 8 7 5 4 2 1 0 0 0 0 1
0 0 0 0 0 0 1 3 5 9 14 16 16 19 29 40 42 36 28 20 18 17 16 16 18 21 22 21 17 18 19 19 17 17 16 13 8 7 6 6 5 4 2 1 1 1 1 2 3
0 0 0 0 0 0 0 2 4 6 7 8 12 23 36 44 41 31 22 14 10 11 13 13 13 15 16 15 13 14 16 17 15 13 13 13 10 7 6 5 4 2 1 1 1 2 2 3 4
0 0 1 1 1 1 2 3 4 4 4 6 13 26 37 41 35 26 18 9 5 6 8 9 10 11 11 10 10 12 14 15 13 10 10 12 10 7 6 5 3 2 0 0 1 2 2 2 2
0 1 2 2 3 4 4 4 4 3 5 10 17 26 34 35 27 19 14 9 6 4 3 4 7 8 8 8 8 10 12 11 10 8 8 8 8 6 6 5 3 1 0 0 0 1 1 1 1
1 2 3 3 4 6 6 5 5 6 12 20 24 26 28 27 21 15 12 10 7 4 1 1 2 4 5 6 7 8 8 8 7 7 6 5 5 6 5 3 1 0 0 0 0 0 0 1 1
1 2 2 2 4 6 6 5 6 11 19 27 30 27 23 21 20 17 15 12 8 3 2 1 0 1 3 4 4 6 6 6 6 6 6 4 4 5 4 2 1 0 0 0 0 0 0 0 0
0 1 1 1 2 3 3 4 6 13 22 28 29 25 20 18 18 20 19 16 9 5 3 2 1 1 2 3 4 5 6 6 6 6 6 4 3 4 3 2 0 0 0 0 0 0 0 0 0
0 0 0 0 1 1 1 2 5 12 20 24 22 19 17 15 15 17 18 16 12 7 5 5 4 4 4 4 5 5 5 6 6 6 6 4 3 3 3 2 1 0 0 0 0 1 0 0 0
0 0 0 0 0 0 0 1 4 11 17 17 15 14 14 12 12 13 13 13 12 9 8 7 7 6 6 5 5 5 4 4 5 5 5 4 3 3 4 3 2 0 0 0 0 0 0 0 0
0 0 0 0 0 0 0 0 3 9 14 15 14 13 12 11 11 12 10 10 12 12 12 10 9 7 7 6 5 4 3 2 2 3 4 3 3 3 3 3 2 1 0 0 0 0 0 0 0
0 0 0 0 0 0 0 0 2 6 12 16 16 14 12 11 11 12 11 11 13 16 15 13 11 9 7 6 4 3 2 1 0 1 2 2 3 3 3 3 2 1 0 0 0 0 0 0 0
0 0 0 0 0 0 0 0 1 3 8 13 15 12 9 9 11 13 13 13 15 17 17 15 13 11 9 7 4 2 1 0 0 0 1 1 1 2 2 2 2 1 0 0 0 0 0 0 0
0 0 0 0 0 0 0 0 0 1 4 8 10 9 6 6 9 13 15 15 15 17 17 16 14 13 10 8 5 3 1 0 0 0 0 0 0 1 1 1 1 0 0 0 0 0 0 0 0
0 0 0 0 0 0 0 0 0 1 2 4 6 7 6 5 7 12 15 15 14 15 16 14 13 12 10 7 5 2 1 0 0 0 0 0 0 0 0 0 0 0 0 0 0 0 0 0 0
0 0 0 0 0 0 0 0 0 1 2 2 3 5 5 5 6 10 12 12 11 12 12 12 11 10 8 6 4 2 0 0 0 0 0 0 0 0 0 0 0 0 0 0 0 0 0 0 0
0 0 0 0 0 0 0 0 0 0 1 1 2 2 3 4 4 7 10 11 11 10 9 8 8 7 6 5 3 1 0 0 0 0 0 0 0 0 0 0 0 0 0 0 0 0 0 0 0
0 0 0 0 0 0 0 0 0 0 0 0 0 0 1 2 4 7 11 13 12 11 8 6 5 5 5 4 2 1 0 0 0 0 0 0 0 0 0 0 0 0 0 0 0 0 0 0 0
0 0 0 0 0 0 0 0 0 0 0 0 0 0 0 2 5 9 11 12 12 10 8 6 4 4 4 3 1 0 0 0 0 0 0 0 0 0 0 0 0 0 0 0 0 0 0 0 0
0 0 0 0 0 0 0 0 0 0 0 0 0 0 1 4 6 8 9 11 10 9 7 5 4 4 4 3 1 0 0 0 0 0 0 0 0 0 0 0 0 0 0 0 0 0 0 0 0
0 0 0 0 0 0 0 0 0 0 0 0 0 1 2 4 6 7 8 9 9 7 5 4 3 4 4 3 1 0 0 0 0 0 0 0 0 0 0 0 0 0 0 0 0 0 0 0 0
0 0 0 0 0 0 0 0 0 0 0 0 0 1 2 4 5 7 7 8 8 6 5 4 3 4 4 3 2 1 0 0 0 0 0 0 0 0 0 0 0 0 0 0 0 0 0 0 0

GEFSSGP_con_prob3kmehi_168.txt.gz
EHI
0 0 0 0 0 0 0 0 0 0 1 1 1 0 0 0 0 1 1 2 6 12 15 13 12 10 9 14 23 31 38 42 43 45 46 45 40 33 24 17 13 9 4 1 0 0 0 0 0
0 0 0 0 0 0 0 0 0 0 0 0 0 0 1 1 1 2 4 5 7 10 13 16 15 12 10 15 23 29 34 38 42 44 45 44 40 33 24 17 14 12 7 2 0 0 0 0 0
0 0 0 0 0 0 0 0 0 0 0 0 1 2 3 2 2 4 8 9 8 8 14 22 21 15 12 16 23 26 28 33 38 41 42 42 38 32 23 17 14 13 8 3 1 1 0 0 0
0 0 0 0 0 0 0 0 0 0 0 0 1 4 7 6 5 8 11 10 9 8 16 26 26 19 15 17 21 23 25 29 34 37 37 35 32 30 24 16 12 11 7 2 1 2 1 0 0
0 0 0 0 0 0 0 0 0 0 0 0 1 4 8 10 12 15 15 11 9 10 17 27 28 22 19 18 19 21 24 28 31 31 30 28 27 26 21 14 9 8 6 3 1 1 1 0 1
0 0 0 0 0 0 0 1 1 1 1 2 3 5 10 17 22 24 21 15 12 13 19 25 26 22 21 19 19 22 25 26 25 23 22 21 20 19 15 11 8 7 6 4 1 1 0 0 1
0 0 0 0 0 0 1 2 3 3 4 5 6 7 14 24 34 34 28 21 16 14 17 19 19 20 20 20 20 21 22 22 19 16 14 13 12 10 9 8 7 7 6 5 3 1 1 1 1
0 0 0 0 0 0 1 3 5 6 7 8 8 10 18 33 43 41 36 30 23 18 16 15 15 17 19 18 18 18 18 16 14 11 9 7 5 4 4 5 6 5 4 4 3 3 2 1 1
0 0 0 0 0 0 1 3 4 6 7 9 11 14 25 42 49 45 42 38 33 28 23 19 18 17 16 15 16 17 16 13 11 10 8 5 4 4 3 4 7 6 4 3 3 3 2 1 0
0 0 0 0 0 1 2 3 3 3 5 8 12 19 33 47 50 46 42 41 38 33 28 24 22 19 15 14 16 16 14 14 13 10 9 8 7 5 4 7 10 8 4 3 3 2 1 1 1
0 0 0 0 0 1 2 2 2 3 4 5 10 22 38 48 49 45 42 40 37 32 26 23 22 20 16 16 17 15 15 16 17 14 14 15 13 8 7 10 12 9 7 6 5 3 2 1 2
0 0 0 0 1 1 1 2 4 5 5 4 10 25 38 44 45 44 42 40 36 30 25 22 21 19 17 16 15 15 16 18 20 21 22 22 18 11 9 12 13 11 11 11 9 6 4 2 2
0 0 0 0 1 0 0 2 5 5 4 5 12 24 31 33 36 38 39 39 36 30 26 24 22 22 22 21 18 16 15 15 19 23 24 22 19 13 11 13 13 9 9 11 10 8 6 6 5
0 0 0 0 0 0 0 1 3 3 3 5 12 18 22 24 28 31 35 36 33 30 28 26 25 26 28 27 23 19 14 12 14 18 18 16 15 14 13 11 8 6 6 7 6 5 7 8 9
0 0 0 0 0 0 0 1 2 2 3 6 11 15 17 20 24 27 30 31 30 28 27 26 25 26 29 27 23 18 13 11 12 14 13 11 12 13 11 8 6 6 6 7 6 4 6 9 11
0 0 0 0 0 0 0 1 2 3 3 7 13 16 16 17 19 21 24 25 24 24 26 25 21 23 26 25 21 17 14 14 16 16 13 9 8 9 8 8 8 9 11 11 9 7 8 10 10
0 0 0 0 0 0 0 0 1 2 3 6 12 15 15 13 13 14 16 18 18 20 23 24 22 23 26 28 27 25 23 21 20 19 16 12 9 8 8 9 10 13 16 15 13 11 12 12 10
0 0 0 0 0 0 0 0 0 1 2 5 10 14 14 13 12 12 11 13 16 19 22 24 26 27 28 31 34 35 32 26 21 19 17 15 13 12 12 13 13 17 19 18 15 14 14 14 12
0 0 0 0 0 0 0 0 0 1 3 6 10 14 15 15 15 14 12 14 18 21 23 25 26 28 29 32 35 36 31 23 18 17 16 15 14 15 14 14 14 17 19 17 13 11 11 12 13
0 0 0 0 0 0 0 0 1 2 3 7 10 13 14 15 16 17 17 20 23 26 27 27 27 28 29 31 32 31 26 19 15 15 15 12 10 10 9 10 11 13 14 12 9 6 6 8 10
0 0 0 0 0 0 0 0 1 3 4 6 9 10 12 13 15 18 23 28 30 31 32 31 31 31 31 31 29 26 23 19 15 14 13 9 5 4 5 6 8 9 9 7 6 4 4 6 7
0 0 0 0 0 0 0 0 1 3 3 5 7 8 10 11 15 21 28 34 35 33 32 33 34 34 32 29 26 25 24 21 17 14 11 7 4 3 3 5 6 7 6 5 3 3 4 5 6
0 0 0 0 0 0 0 0 1 2 2 4 7 6 6 8 13 21 29 35 35 31 28 29 31 32 30 28 26 24 24 22 16 12 9 7 5 4 3 3 4 5 5 4 3 3 4 5 5
0 0 0 0 0 0 0 0 0 0 0 2 5 5 4 5 10 18 26 32 33 29 25 25 28 29 27 26 24 23 23 20 14 10 8 7 5 3 1 1 2 3 3 3 3 3 4 5 5
0 0 0 0 0 0 0 0 0 0 0 2 4 5 4 4 8 14 21 28 31 30 27 26 28 27 25 23 22 20 19 17 12 9 6 4 3 2 0 0 1 1 1 1 2 2 3 4 4
0 0 0 0 0 0 0 0 1 0 0 2 4 4 3 4 8 13 19 24 28 29 29 28 28 27 22 20 18 16 15 13 10 7 4 2 1 0 0 0 0 0 0 0 1 1 1 3 3
0 0 0 0 0 0 0 0 0 0 0 1 2 2 3 5 8 12 17 22 25 27 28 28 27 24 19 16 15 14 13 11 8 5 2 0 0 0 0 1 0 0 0 0 0 0 1 2 2
0 0 0 0 0 0 0 0 0 0 0 0 1 1 3 6 8 11 14 18 21 22 22 23 23 20 16 14 13 13 12 10 7 3 1 1 1 0 0 0 0 0 0 0 0 0 0 1 1
0 0 0 0 0 0 0 0 0 0 0 0 1 1 2 5 8 9 11 13 15 16 16 16 16 15 13 11 11 10 10 9 7 4 3 2 2 1 0 0 0 0 0 0 0 0 0 0 0
0 0 0 0 0 0 0 0 0 0 0 0 1 1 2 5 7 9 10 10 11 12 13 13 12 11 10 9 8 8 8 8 7 5 4 3 2 1 0 0 0 0 0 0 0 0 0 0 0